<?xml version="1.0" encoding="UTF-8" standalone="no" ?>
<gpx xmlns="http://www.topografix.com/GPX/1/1" xmlns:xsi="http://www.w3.org/2001/XMLSchema-instance" xsi:schemaLocation="http://www.topografix.com/GPX/1/1 http://www.topografix.com/GPX/1/1/gpx.xsd" version="1.1" creator="VisuGPX - https://www.visugpx.com">
  <metadata>
    <name>Randonnées Biertoises : Tuc de la Coume via col de Saraillé et col de Vièle Morte</name>
    <desc><![CDATA[Randonnée près de Biert et Massat, dans le Couserans en Ariège (Pyrénées) : Tuc de la Coume.
Dans cette balade, de nombreux passages sont hors sentier.
Départ Biert ;
Col de Boulogne ;
Col de Bidal ;
Camp Faba ;
Col de Saraillé ;
Tuc de Mongalas ;
Col de Vièle Morte ;
Coume des Lanes ;
Tuc de la Coume ;
Pic des Lanes ;
Route forestière de la Cramade ;
Peyou ;
Col d'Urbens ;
Biert.


]]></desc>
  </metadata>
  <trk>
    <name><![CDATA[4 avr. 2021 à 11:34:21]]></name>
    <cmt><![CDATA[4 avr. 2021 à 11:34:21]]></cmt>
    <trkseg>
      <trkpt lat="42.89665" lon="1.29805">
        <ele>584</ele>
        <time>2021-04-04T09:34:21Z</time>
      </trkpt>
      <trkpt lat="42.89665" lon="1.29805">
        <ele>584</ele>
        <time>2021-04-04T09:34:22Z</time>
      </trkpt>
      <trkpt lat="42.89659" lon="1.29804">
        <ele>584</ele>
        <time>2021-04-04T09:34:30Z</time>
      </trkpt>
      <trkpt lat="42.89655" lon="1.29805">
        <ele>584</ele>
        <time>2021-04-04T09:34:34Z</time>
      </trkpt>
      <trkpt lat="42.89648" lon="1.29803">
        <ele>583</ele>
        <time>2021-04-04T09:34:40Z</time>
      </trkpt>
      <trkpt lat="42.89643" lon="1.29802">
        <ele>583</ele>
        <time>2021-04-04T09:34:45Z</time>
      </trkpt>
      <trkpt lat="42.89632" lon="1.29804">
        <ele>582</ele>
        <time>2021-04-04T09:34:55Z</time>
      </trkpt>
      <trkpt lat="42.89614" lon="1.29802">
        <ele>583</ele>
        <time>2021-04-04T09:35:14Z</time>
      </trkpt>
      <trkpt lat="42.89609" lon="1.29799">
        <ele>583</ele>
        <time>2021-04-04T09:35:18Z</time>
      </trkpt>
      <trkpt lat="42.89604" lon="1.29798">
        <ele>583</ele>
        <time>2021-04-04T09:35:22Z</time>
      </trkpt>
      <trkpt lat="42.89594" lon="1.29795">
        <ele>583</ele>
        <time>2021-04-04T09:35:29Z</time>
      </trkpt>
      <trkpt lat="42.89573" lon="1.29794">
        <ele>586</ele>
        <time>2021-04-04T09:35:45Z</time>
      </trkpt>
      <trkpt lat="42.89568" lon="1.29796">
        <ele>587</ele>
        <time>2021-04-04T09:35:49Z</time>
      </trkpt>
      <trkpt lat="42.89564" lon="1.29793">
        <ele>588</ele>
        <time>2021-04-04T09:35:54Z</time>
      </trkpt>
      <trkpt lat="42.89561" lon="1.29782">
        <ele>589</ele>
        <time>2021-04-04T09:36:04Z</time>
      </trkpt>
      <trkpt lat="42.89549" lon="1.29721">
        <ele>593</ele>
        <time>2021-04-04T09:36:38Z</time>
      </trkpt>
      <trkpt lat="42.89549" lon="1.29706">
        <ele>594</ele>
        <time>2021-04-04T09:36:46Z</time>
      </trkpt>
      <trkpt lat="42.89551" lon="1.29678">
        <ele>596</ele>
        <time>2021-04-04T09:37:02Z</time>
      </trkpt>
      <trkpt lat="42.89548" lon="1.29666">
        <ele>597</ele>
        <time>2021-04-04T09:37:10Z</time>
      </trkpt>
      <trkpt lat="42.89548" lon="1.29658">
        <ele>599</ele>
        <time>2021-04-04T09:37:15Z</time>
      </trkpt>
      <trkpt lat="42.89541" lon="1.29615">
        <ele>602</ele>
        <time>2021-04-04T09:37:43Z</time>
      </trkpt>
      <trkpt lat="42.89538" lon="1.29603">
        <ele>603</ele>
        <time>2021-04-04T09:37:51Z</time>
      </trkpt>
      <trkpt lat="42.89538" lon="1.29597">
        <ele>604</ele>
        <time>2021-04-04T09:37:55Z</time>
      </trkpt>
      <trkpt lat="42.89537" lon="1.2959">
        <ele>604</ele>
        <time>2021-04-04T09:37:59Z</time>
      </trkpt>
      <trkpt lat="42.89524" lon="1.29561">
        <ele>607</ele>
        <time>2021-04-04T09:38:15Z</time>
      </trkpt>
      <trkpt lat="42.89515" lon="1.29549">
        <ele>608</ele>
        <time>2021-04-04T09:38:25Z</time>
      </trkpt>
      <trkpt lat="42.89504" lon="1.29548">
        <ele>609</ele>
        <time>2021-04-04T09:38:33Z</time>
      </trkpt>
      <trkpt lat="42.89498" lon="1.29551">
        <ele>610</ele>
        <time>2021-04-04T09:38:37Z</time>
      </trkpt>
      <trkpt lat="42.8949" lon="1.2956">
        <ele>611</ele>
        <time>2021-04-04T09:38:44Z</time>
      </trkpt>
      <trkpt lat="42.89475" lon="1.29591">
        <ele>613</ele>
        <time>2021-04-04T09:39:05Z</time>
      </trkpt>
      <trkpt lat="42.89471" lon="1.29604">
        <ele>614</ele>
        <time>2021-04-04T09:39:13Z</time>
      </trkpt>
      <trkpt lat="42.89463" lon="1.29624">
        <ele>615</ele>
        <time>2021-04-04T09:39:25Z</time>
      </trkpt>
      <trkpt lat="42.89458" lon="1.29627">
        <ele>615</ele>
        <time>2021-04-04T09:39:35Z</time>
      </trkpt>
      <trkpt lat="42.89447" lon="1.29629">
        <ele>616</ele>
        <time>2021-04-04T09:39:43Z</time>
      </trkpt>
      <trkpt lat="42.89437" lon="1.29628">
        <ele>617</ele>
        <time>2021-04-04T09:39:49Z</time>
      </trkpt>
      <trkpt lat="42.89431" lon="1.29633">
        <ele>617</ele>
        <time>2021-04-04T09:39:53Z</time>
      </trkpt>
      <trkpt lat="42.8943" lon="1.2964">
        <ele>618</ele>
        <time>2021-04-04T09:39:57Z</time>
      </trkpt>
      <trkpt lat="42.89428" lon="1.29654">
        <ele>620</ele>
        <time>2021-04-04T09:40:05Z</time>
      </trkpt>
      <trkpt lat="42.89425" lon="1.29666">
        <ele>621</ele>
        <time>2021-04-04T09:40:13Z</time>
      </trkpt>
      <trkpt lat="42.89422" lon="1.29672">
        <ele>622</ele>
        <time>2021-04-04T09:40:17Z</time>
      </trkpt>
      <trkpt lat="42.8942" lon="1.29678">
        <ele>622</ele>
        <time>2021-04-04T09:40:21Z</time>
      </trkpt>
      <trkpt lat="42.8941" lon="1.29695">
        <ele>624</ele>
        <time>2021-04-04T09:40:33Z</time>
      </trkpt>
      <trkpt lat="42.89392" lon="1.29709">
        <ele>626</ele>
        <time>2021-04-04T09:40:49Z</time>
      </trkpt>
      <trkpt lat="42.89372" lon="1.29722">
        <ele>627</ele>
        <time>2021-04-04T09:41:05Z</time>
      </trkpt>
      <trkpt lat="42.8936" lon="1.29721">
        <ele>628</ele>
        <time>2021-04-04T09:41:15Z</time>
      </trkpt>
      <trkpt lat="42.8935" lon="1.29724">
        <ele>628</ele>
        <time>2021-04-04T09:41:24Z</time>
      </trkpt>
      <trkpt lat="42.89345" lon="1.29723">
        <ele>628</ele>
        <time>2021-04-04T09:41:27Z</time>
      </trkpt>
      <trkpt lat="42.8934" lon="1.29725">
        <ele>628</ele>
        <time>2021-04-04T09:41:30Z</time>
      </trkpt>
      <trkpt lat="42.8933" lon="1.29731">
        <ele>628</ele>
        <time>2021-04-04T09:41:37Z</time>
      </trkpt>
      <trkpt lat="42.89317" lon="1.29736">
        <ele>629</ele>
        <time>2021-04-04T09:41:47Z</time>
      </trkpt>
      <trkpt lat="42.89288" lon="1.29759">
        <ele>632</ele>
        <time>2021-04-04T09:42:11Z</time>
      </trkpt>
      <trkpt lat="42.89284" lon="1.29764">
        <ele>632</ele>
        <time>2021-04-04T09:42:15Z</time>
      </trkpt>
      <trkpt lat="42.89279" lon="1.29776">
        <ele>634</ele>
        <time>2021-04-04T09:42:23Z</time>
      </trkpt>
      <trkpt lat="42.89278" lon="1.29783">
        <ele>635</ele>
        <time>2021-04-04T09:43:11Z</time>
      </trkpt>
      <trkpt lat="42.89273" lon="1.29788">
        <ele>636</ele>
        <time>2021-04-04T09:43:15Z</time>
      </trkpt>
      <trkpt lat="42.8927" lon="1.29794">
        <ele>636</ele>
        <time>2021-04-04T09:43:19Z</time>
      </trkpt>
      <trkpt lat="42.89267" lon="1.29801">
        <ele>636</ele>
        <time>2021-04-04T09:43:23Z</time>
      </trkpt>
      <trkpt lat="42.89262" lon="1.29805">
        <ele>636</ele>
        <time>2021-04-04T09:43:27Z</time>
      </trkpt>
      <trkpt lat="42.89258" lon="1.29808">
        <ele>636</ele>
        <time>2021-04-04T09:43:30Z</time>
      </trkpt>
      <trkpt lat="42.89254" lon="1.29814">
        <ele>636</ele>
        <time>2021-04-04T09:43:34Z</time>
      </trkpt>
      <trkpt lat="42.89245" lon="1.2982">
        <ele>635</ele>
        <time>2021-04-04T09:43:42Z</time>
      </trkpt>
      <trkpt lat="42.89242" lon="1.29837">
        <ele>634</ele>
        <time>2021-04-04T09:44:23Z</time>
      </trkpt>
      <trkpt lat="42.89239" lon="1.29856">
        <ele>635</ele>
        <time>2021-04-04T09:44:37Z</time>
      </trkpt>
      <trkpt lat="42.89236" lon="1.29866">
        <ele>635</ele>
        <time>2021-04-04T09:44:44Z</time>
      </trkpt>
      <trkpt lat="42.89237" lon="1.29881">
        <ele>635</ele>
        <time>2021-04-04T09:44:52Z</time>
      </trkpt>
      <trkpt lat="42.89236" lon="1.29887">
        <ele>636</ele>
        <time>2021-04-04T09:44:57Z</time>
      </trkpt>
      <trkpt lat="42.89234" lon="1.29892">
        <ele>637</ele>
        <time>2021-04-04T09:45:11Z</time>
      </trkpt>
      <trkpt lat="42.89227" lon="1.29881">
        <ele>640</ele>
        <time>2021-04-04T09:45:25Z</time>
      </trkpt>
      <trkpt lat="42.89226" lon="1.29874">
        <ele>642</ele>
        <time>2021-04-04T09:45:37Z</time>
      </trkpt>
      <trkpt lat="42.89223" lon="1.29869">
        <ele>643</ele>
        <time>2021-04-04T09:45:41Z</time>
      </trkpt>
      <trkpt lat="42.89216" lon="1.29847">
        <ele>646</ele>
        <time>2021-04-04T09:45:59Z</time>
      </trkpt>
      <trkpt lat="42.89216" lon="1.29838">
        <ele>648</ele>
        <time>2021-04-04T09:46:08Z</time>
      </trkpt>
      <trkpt lat="42.8921" lon="1.29828">
        <ele>650</ele>
        <time>2021-04-04T09:46:18Z</time>
      </trkpt>
      <trkpt lat="42.89204" lon="1.29824">
        <ele>652</ele>
        <time>2021-04-04T09:46:26Z</time>
      </trkpt>
      <trkpt lat="42.89199" lon="1.2981">
        <ele>655</ele>
        <time>2021-04-04T09:46:40Z</time>
      </trkpt>
      <trkpt lat="42.89197" lon="1.29795">
        <ele>657</ele>
        <time>2021-04-04T09:46:55Z</time>
      </trkpt>
      <trkpt lat="42.89194" lon="1.29789">
        <ele>657</ele>
        <time>2021-04-04T09:47:01Z</time>
      </trkpt>
      <trkpt lat="42.89194" lon="1.29765">
        <ele>660</ele>
        <time>2021-04-04T09:47:26Z</time>
      </trkpt>
      <trkpt lat="42.89191" lon="1.29744">
        <ele>664</ele>
        <time>2021-04-04T09:47:44Z</time>
      </trkpt>
      <trkpt lat="42.89192" lon="1.29736">
        <ele>666</ele>
        <time>2021-04-04T09:47:51Z</time>
      </trkpt>
      <trkpt lat="42.89189" lon="1.29719">
        <ele>669</ele>
        <time>2021-04-04T09:48:06Z</time>
      </trkpt>
      <trkpt lat="42.89186" lon="1.29715">
        <ele>671</ele>
        <time>2021-04-04T09:48:11Z</time>
      </trkpt>
      <trkpt lat="42.89184" lon="1.29709">
        <ele>672</ele>
        <time>2021-04-04T09:48:18Z</time>
      </trkpt>
      <trkpt lat="42.89171" lon="1.29696">
        <ele>676</ele>
        <time>2021-04-04T09:48:38Z</time>
      </trkpt>
      <trkpt lat="42.89163" lon="1.29679">
        <ele>677</ele>
        <time>2021-04-04T09:48:53Z</time>
      </trkpt>
      <trkpt lat="42.89147" lon="1.29677">
        <ele>678</ele>
        <time>2021-04-04T09:49:05Z</time>
      </trkpt>
      <trkpt lat="42.89142" lon="1.29673">
        <ele>678</ele>
        <time>2021-04-04T09:49:14Z</time>
      </trkpt>
      <trkpt lat="42.89127" lon="1.29668">
        <ele>679</ele>
        <time>2021-04-04T09:49:28Z</time>
      </trkpt>
      <trkpt lat="42.89122" lon="1.29663">
        <ele>679</ele>
        <time>2021-04-04T09:49:35Z</time>
      </trkpt>
      <trkpt lat="42.89107" lon="1.29661">
        <ele>680</ele>
        <time>2021-04-04T09:49:44Z</time>
      </trkpt>
      <trkpt lat="42.89092" lon="1.29665">
        <ele>681</ele>
        <time>2021-04-04T09:49:54Z</time>
      </trkpt>
      <trkpt lat="42.89088" lon="1.29671">
        <ele>682</ele>
        <time>2021-04-04T09:50:56Z</time>
      </trkpt>
      <trkpt lat="42.89083" lon="1.29672">
        <ele>682</ele>
        <time>2021-04-04T09:51:04Z</time>
      </trkpt>
      <trkpt lat="42.89071" lon="1.29671">
        <ele>683</ele>
        <time>2021-04-04T09:51:12Z</time>
      </trkpt>
      <trkpt lat="42.89063" lon="1.29665">
        <ele>684</ele>
        <time>2021-04-04T09:51:21Z</time>
      </trkpt>
      <trkpt lat="42.89048" lon="1.29662">
        <ele>685</ele>
        <time>2021-04-04T09:51:33Z</time>
      </trkpt>
      <trkpt lat="42.89043" lon="1.29656">
        <ele>686</ele>
        <time>2021-04-04T09:51:39Z</time>
      </trkpt>
      <trkpt lat="42.89039" lon="1.29654">
        <ele>687</ele>
        <time>2021-04-04T09:51:42Z</time>
      </trkpt>
      <trkpt lat="42.89034" lon="1.29653">
        <ele>687</ele>
        <time>2021-04-04T09:51:45Z</time>
      </trkpt>
      <trkpt lat="42.89024" lon="1.29649">
        <ele>688</ele>
        <time>2021-04-04T09:51:58Z</time>
      </trkpt>
      <trkpt lat="42.89019" lon="1.29649">
        <ele>688</ele>
        <time>2021-04-04T09:52:01Z</time>
      </trkpt>
      <trkpt lat="42.89014" lon="1.29644">
        <ele>689</ele>
        <time>2021-04-04T09:52:05Z</time>
      </trkpt>
      <trkpt lat="42.89007" lon="1.29635">
        <ele>689</ele>
        <time>2021-04-04T09:52:12Z</time>
      </trkpt>
      <trkpt lat="42.89003" lon="1.29615">
        <ele>692</ele>
        <time>2021-04-04T09:52:25Z</time>
      </trkpt>
      <trkpt lat="42.89008" lon="1.29603">
        <ele>692</ele>
        <time>2021-04-04T09:52:34Z</time>
      </trkpt>
      <trkpt lat="42.89007" lon="1.29596">
        <ele>692</ele>
        <time>2021-04-04T09:52:38Z</time>
      </trkpt>
      <trkpt lat="42.89005" lon="1.29589">
        <ele>693</ele>
        <time>2021-04-04T09:52:43Z</time>
      </trkpt>
      <trkpt lat="42.88999" lon="1.29578">
        <ele>693</ele>
        <time>2021-04-04T09:52:51Z</time>
      </trkpt>
      <trkpt lat="42.88968" lon="1.29541">
        <ele>698</ele>
        <time>2021-04-04T09:53:22Z</time>
      </trkpt>
      <trkpt lat="42.88965" lon="1.29536">
        <ele>699</ele>
        <time>2021-04-04T09:53:26Z</time>
      </trkpt>
      <trkpt lat="42.88964" lon="1.29529">
        <ele>699</ele>
        <time>2021-04-04T09:53:30Z</time>
      </trkpt>
      <trkpt lat="42.88962" lon="1.29524">
        <ele>700</ele>
        <time>2021-04-04T09:53:34Z</time>
      </trkpt>
      <trkpt lat="42.88955" lon="1.29513">
        <ele>701</ele>
        <time>2021-04-04T09:53:43Z</time>
      </trkpt>
      <trkpt lat="42.88924" lon="1.2945">
        <ele>702</ele>
        <time>2021-04-04T09:54:21Z</time>
      </trkpt>
      <trkpt lat="42.88894" lon="1.29404">
        <ele>705</ele>
        <time>2021-04-04T09:54:53Z</time>
      </trkpt>
      <trkpt lat="42.88892" lon="1.29397">
        <ele>705</ele>
        <time>2021-04-04T09:54:57Z</time>
      </trkpt>
      <trkpt lat="42.88893" lon="1.2939">
        <ele>706</ele>
        <time>2021-04-04T09:55:00Z</time>
      </trkpt>
      <trkpt lat="42.8889" lon="1.29385">
        <ele>706</ele>
        <time>2021-04-04T09:55:04Z</time>
      </trkpt>
      <trkpt lat="42.88883" lon="1.29375">
        <ele>708</ele>
        <time>2021-04-04T09:55:12Z</time>
      </trkpt>
      <trkpt lat="42.88879" lon="1.29363">
        <ele>709</ele>
        <time>2021-04-04T09:55:21Z</time>
      </trkpt>
      <trkpt lat="42.88879" lon="1.29355">
        <ele>710</ele>
        <time>2021-04-04T09:55:25Z</time>
      </trkpt>
      <trkpt lat="42.88877" lon="1.29349">
        <ele>710</ele>
        <time>2021-04-04T09:55:29Z</time>
      </trkpt>
      <trkpt lat="42.88873" lon="1.29341">
        <ele>711</ele>
        <time>2021-04-04T09:55:35Z</time>
      </trkpt>
      <trkpt lat="42.88869" lon="1.29308">
        <ele>714</ele>
        <time>2021-04-04T09:55:58Z</time>
      </trkpt>
      <trkpt lat="42.88859" lon="1.29284">
        <ele>716</ele>
        <time>2021-04-04T09:56:15Z</time>
      </trkpt>
      <trkpt lat="42.88858" lon="1.29277">
        <ele>716</ele>
        <time>2021-04-04T09:56:19Z</time>
      </trkpt>
      <trkpt lat="42.88858" lon="1.2927">
        <ele>716</ele>
        <time>2021-04-04T09:56:23Z</time>
      </trkpt>
      <trkpt lat="42.88846" lon="1.29229">
        <ele>719</ele>
        <time>2021-04-04T09:56:49Z</time>
      </trkpt>
      <trkpt lat="42.88839" lon="1.29221">
        <ele>720</ele>
        <time>2021-04-04T09:57:11Z</time>
      </trkpt>
      <trkpt lat="42.88834" lon="1.29221">
        <ele>721</ele>
        <time>2021-04-04T09:57:15Z</time>
      </trkpt>
      <trkpt lat="42.8883" lon="1.29224">
        <ele>722</ele>
        <time>2021-04-04T09:57:20Z</time>
      </trkpt>
      <trkpt lat="42.88827" lon="1.2923">
        <ele>723</ele>
        <time>2021-04-04T09:57:24Z</time>
      </trkpt>
      <trkpt lat="42.88808" lon="1.29245">
        <ele>724</ele>
        <time>2021-04-04T09:57:40Z</time>
      </trkpt>
      <trkpt lat="42.88803" lon="1.29245">
        <ele>725</ele>
        <time>2021-04-04T09:57:45Z</time>
      </trkpt>
      <trkpt lat="42.88798" lon="1.29248">
        <ele>725</ele>
        <time>2021-04-04T09:57:49Z</time>
      </trkpt>
      <trkpt lat="42.88798" lon="1.29235">
        <ele>726</ele>
        <time>2021-04-04T09:58:25Z</time>
      </trkpt>
      <trkpt lat="42.88798" lon="1.29222">
        <ele>727</ele>
        <time>2021-04-04T09:58:34Z</time>
      </trkpt>
      <trkpt lat="42.88792" lon="1.29194">
        <ele>729</ele>
        <time>2021-04-04T09:58:51Z</time>
      </trkpt>
      <trkpt lat="42.88789" lon="1.29189">
        <ele>730</ele>
        <time>2021-04-04T09:58:55Z</time>
      </trkpt>
      <trkpt lat="42.88788" lon="1.29175">
        <ele>731</ele>
        <time>2021-04-04T09:59:03Z</time>
      </trkpt>
      <trkpt lat="42.8879" lon="1.29154">
        <ele>733</ele>
        <time>2021-04-04T09:59:15Z</time>
      </trkpt>
      <trkpt lat="42.88791" lon="1.29147">
        <ele>733</ele>
        <time>2021-04-04T09:59:19Z</time>
      </trkpt>
      <trkpt lat="42.88794" lon="1.2914">
        <ele>733</ele>
        <time>2021-04-04T09:59:23Z</time>
      </trkpt>
      <trkpt lat="42.88795" lon="1.29132">
        <ele>734</ele>
        <time>2021-04-04T09:59:27Z</time>
      </trkpt>
      <trkpt lat="42.88795" lon="1.29125">
        <ele>734</ele>
        <time>2021-04-04T09:59:31Z</time>
      </trkpt>
      <trkpt lat="42.88795" lon="1.29111">
        <ele>736</ele>
        <time>2021-04-04T09:59:39Z</time>
      </trkpt>
      <trkpt lat="42.88794" lon="1.29104">
        <ele>736</ele>
        <time>2021-04-04T09:59:43Z</time>
      </trkpt>
      <trkpt lat="42.8879" lon="1.291">
        <ele>737</ele>
        <time>2021-04-04T09:59:47Z</time>
      </trkpt>
      <trkpt lat="42.88786" lon="1.29097">
        <ele>738</ele>
        <time>2021-04-04T09:59:51Z</time>
      </trkpt>
      <trkpt lat="42.88781" lon="1.29096">
        <ele>739</ele>
        <time>2021-04-04T09:59:56Z</time>
      </trkpt>
      <trkpt lat="42.8877" lon="1.29098">
        <ele>741</ele>
        <time>2021-04-04T10:00:09Z</time>
      </trkpt>
      <trkpt lat="42.88763" lon="1.29092">
        <ele>744</ele>
        <time>2021-04-04T10:00:21Z</time>
      </trkpt>
      <trkpt lat="42.88754" lon="1.29074">
        <ele>749</ele>
        <time>2021-04-04T10:00:45Z</time>
      </trkpt>
      <trkpt lat="42.88736" lon="1.29053">
        <ele>754</ele>
        <time>2021-04-04T10:01:21Z</time>
      </trkpt>
      <trkpt lat="42.88714" lon="1.29046">
        <ele>760</ele>
        <time>2021-04-04T10:01:57Z</time>
      </trkpt>
      <trkpt lat="42.88695" lon="1.29045">
        <ele>763</ele>
        <time>2021-04-04T10:02:32Z</time>
      </trkpt>
      <trkpt lat="42.88685" lon="1.29035">
        <ele>766</ele>
        <time>2021-04-04T10:02:48Z</time>
      </trkpt>
      <trkpt lat="42.88679" lon="1.29012">
        <ele>771</ele>
        <time>2021-04-04T10:03:16Z</time>
      </trkpt>
      <trkpt lat="42.88671" lon="1.28999">
        <ele>773</ele>
        <time>2021-04-04T10:03:34Z</time>
      </trkpt>
      <trkpt lat="42.88667" lon="1.28973">
        <ele>780</ele>
        <time>2021-04-04T10:04:10Z</time>
      </trkpt>
      <trkpt lat="42.88663" lon="1.28945">
        <ele>786</ele>
        <time>2021-04-04T10:04:46Z</time>
      </trkpt>
      <trkpt lat="42.88659" lon="1.28926">
        <ele>790</ele>
        <time>2021-04-04T10:05:10Z</time>
      </trkpt>
      <trkpt lat="42.88649" lon="1.28897">
        <ele>794</ele>
        <time>2021-04-04T10:05:37Z</time>
      </trkpt>
      <trkpt lat="42.88635" lon="1.28881">
        <ele>796</ele>
        <time>2021-04-04T10:05:56Z</time>
      </trkpt>
      <trkpt lat="42.88609" lon="1.28866">
        <ele>800</ele>
        <time>2021-04-04T10:06:26Z</time>
      </trkpt>
      <trkpt lat="42.88571" lon="1.28851">
        <ele>804</ele>
        <time>2021-04-04T10:07:00Z</time>
      </trkpt>
      <trkpt lat="42.88545" lon="1.2884">
        <ele>807</ele>
        <time>2021-04-04T10:07:20Z</time>
      </trkpt>
      <trkpt lat="42.88501" lon="1.28839">
        <ele>807</ele>
        <time>2021-04-04T10:07:53Z</time>
      </trkpt>
      <trkpt lat="42.88496" lon="1.28839">
        <ele>808</ele>
        <time>2021-04-04T10:07:57Z</time>
      </trkpt>
      <trkpt lat="42.88488" lon="1.28836">
        <ele>809</ele>
        <time>2021-04-04T10:08:24Z</time>
      </trkpt>
      <trkpt lat="42.8848" lon="1.28832">
        <ele>809</ele>
        <time>2021-04-04T10:08:40Z</time>
      </trkpt>
      <trkpt lat="42.88474" lon="1.28831">
        <ele>810</ele>
        <time>2021-04-04T10:08:59Z</time>
      </trkpt>
      <trkpt lat="42.88471" lon="1.28826">
        <ele>810</ele>
        <time>2021-04-04T10:09:02Z</time>
      </trkpt>
      <trkpt lat="42.88469" lon="1.28819">
        <ele>810</ele>
        <time>2021-04-04T10:09:07Z</time>
      </trkpt>
      <trkpt lat="42.88473" lon="1.28799">
        <ele>813</ele>
        <time>2021-04-04T10:09:22Z</time>
      </trkpt>
      <trkpt lat="42.88472" lon="1.28802">
        <ele>815</ele>
        <time>2021-04-04T10:12:21Z</time>
      </trkpt>
      <trkpt lat="42.88469" lon="1.28809">
        <ele>815</ele>
        <time>2021-04-04T10:12:25Z</time>
      </trkpt>
      <trkpt lat="42.8847" lon="1.28816">
        <ele>814</ele>
        <time>2021-04-04T10:12:29Z</time>
      </trkpt>
      <trkpt lat="42.88472" lon="1.28823">
        <ele>813</ele>
        <time>2021-04-04T10:12:33Z</time>
      </trkpt>
      <trkpt lat="42.88479" lon="1.28832">
        <ele>812</ele>
        <time>2021-04-04T10:12:41Z</time>
      </trkpt>
      <trkpt lat="42.88472" lon="1.28836">
        <ele>812</ele>
        <time>2021-04-04T10:12:59Z</time>
      </trkpt>
      <trkpt lat="42.88463" lon="1.2884">
        <ele>811</ele>
        <time>2021-04-04T10:13:06Z</time>
      </trkpt>
      <trkpt lat="42.8844" lon="1.28838">
        <ele>807</ele>
        <time>2021-04-04T10:13:25Z</time>
      </trkpt>
      <trkpt lat="42.88435" lon="1.28835">
        <ele>805</ele>
        <time>2021-04-04T10:13:30Z</time>
      </trkpt>
      <trkpt lat="42.88431" lon="1.2883">
        <ele>805</ele>
        <time>2021-04-04T10:13:34Z</time>
      </trkpt>
      <trkpt lat="42.88425" lon="1.28826">
        <ele>803</ele>
        <time>2021-04-04T10:13:40Z</time>
      </trkpt>
      <trkpt lat="42.8842" lon="1.28826">
        <ele>803</ele>
        <time>2021-04-04T10:13:43Z</time>
      </trkpt>
      <trkpt lat="42.88414" lon="1.28828">
        <ele>802</ele>
        <time>2021-04-04T10:13:47Z</time>
      </trkpt>
      <trkpt lat="42.88404" lon="1.28835">
        <ele>801</ele>
        <time>2021-04-04T10:13:54Z</time>
      </trkpt>
      <trkpt lat="42.884" lon="1.28836">
        <ele>800</ele>
        <time>2021-04-04T10:13:57Z</time>
      </trkpt>
      <trkpt lat="42.88395" lon="1.28841">
        <ele>800</ele>
        <time>2021-04-04T10:14:01Z</time>
      </trkpt>
      <trkpt lat="42.8839" lon="1.28841">
        <ele>799</ele>
        <time>2021-04-04T10:14:04Z</time>
      </trkpt>
      <trkpt lat="42.88379" lon="1.28838">
        <ele>799</ele>
        <time>2021-04-04T10:14:10Z</time>
      </trkpt>
      <trkpt lat="42.88374" lon="1.2884">
        <ele>799</ele>
        <time>2021-04-04T10:14:13Z</time>
      </trkpt>
      <trkpt lat="42.88366" lon="1.28848">
        <ele>799</ele>
        <time>2021-04-04T10:14:20Z</time>
      </trkpt>
      <trkpt lat="42.88356" lon="1.28847">
        <ele>799</ele>
        <time>2021-04-04T10:14:27Z</time>
      </trkpt>
      <trkpt lat="42.88329" lon="1.28852">
        <ele>801</ele>
        <time>2021-04-04T10:14:46Z</time>
      </trkpt>
      <trkpt lat="42.88305" lon="1.28863">
        <ele>803</ele>
        <time>2021-04-04T10:15:06Z</time>
      </trkpt>
      <trkpt lat="42.88299" lon="1.28864">
        <ele>803</ele>
        <time>2021-04-04T10:15:10Z</time>
      </trkpt>
      <trkpt lat="42.88294" lon="1.28867">
        <ele>804</ele>
        <time>2021-04-04T10:15:14Z</time>
      </trkpt>
      <trkpt lat="42.88291" lon="1.28872">
        <ele>804</ele>
        <time>2021-04-04T10:15:17Z</time>
      </trkpt>
      <trkpt lat="42.88274" lon="1.28885">
        <ele>806</ele>
        <time>2021-04-04T10:15:32Z</time>
      </trkpt>
      <trkpt lat="42.8827" lon="1.28891">
        <ele>807</ele>
        <time>2021-04-04T10:15:36Z</time>
      </trkpt>
      <trkpt lat="42.88265" lon="1.28894">
        <ele>807</ele>
        <time>2021-04-04T10:15:40Z</time>
      </trkpt>
      <trkpt lat="42.88257" lon="1.28899">
        <ele>808</ele>
        <time>2021-04-04T10:15:48Z</time>
      </trkpt>
      <trkpt lat="42.88238" lon="1.28917">
        <ele>810</ele>
        <time>2021-04-04T10:16:12Z</time>
      </trkpt>
      <trkpt lat="42.88236" lon="1.28924">
        <ele>811</ele>
        <time>2021-04-04T10:16:15Z</time>
      </trkpt>
      <trkpt lat="42.88225" lon="1.2895">
        <ele>811</ele>
        <time>2021-04-04T10:16:31Z</time>
      </trkpt>
      <trkpt lat="42.8822" lon="1.28952">
        <ele>811</ele>
        <time>2021-04-04T10:16:34Z</time>
      </trkpt>
      <trkpt lat="42.88215" lon="1.28954">
        <ele>810</ele>
        <time>2021-04-04T10:16:37Z</time>
      </trkpt>
      <trkpt lat="42.88197" lon="1.28977">
        <ele>810</ele>
        <time>2021-04-04T10:16:55Z</time>
      </trkpt>
      <trkpt lat="42.8819" lon="1.28986">
        <ele>808</ele>
        <time>2021-04-04T10:17:03Z</time>
      </trkpt>
      <trkpt lat="42.88188" lon="1.28993">
        <ele>808</ele>
        <time>2021-04-04T10:17:07Z</time>
      </trkpt>
      <trkpt lat="42.8818" lon="1.29003">
        <ele>807</ele>
        <time>2021-04-04T10:17:15Z</time>
      </trkpt>
      <trkpt lat="42.88155" lon="1.29014">
        <ele>805</ele>
        <time>2021-04-04T10:17:33Z</time>
      </trkpt>
      <trkpt lat="42.88142" lon="1.29029">
        <ele>804</ele>
        <time>2021-04-04T10:17:44Z</time>
      </trkpt>
      <trkpt lat="42.88137" lon="1.29032">
        <ele>804</ele>
        <time>2021-04-04T10:17:48Z</time>
      </trkpt>
      <trkpt lat="42.88131" lon="1.29032">
        <ele>803</ele>
        <time>2021-04-04T10:17:52Z</time>
      </trkpt>
      <trkpt lat="42.88126" lon="1.2903">
        <ele>803</ele>
        <time>2021-04-04T10:17:55Z</time>
      </trkpt>
      <trkpt lat="42.88112" lon="1.29032">
        <ele>803</ele>
        <time>2021-04-04T10:18:05Z</time>
      </trkpt>
      <trkpt lat="42.88106" lon="1.29037">
        <ele>802</ele>
        <time>2021-04-04T10:18:15Z</time>
      </trkpt>
      <trkpt lat="42.88099" lon="1.29049">
        <ele>803</ele>
        <time>2021-04-04T10:18:37Z</time>
      </trkpt>
      <trkpt lat="42.88093" lon="1.29054">
        <ele>804</ele>
        <time>2021-04-04T10:18:45Z</time>
      </trkpt>
      <trkpt lat="42.8809" lon="1.29062">
        <ele>805</ele>
        <time>2021-04-04T10:18:52Z</time>
      </trkpt>
      <trkpt lat="42.88086" lon="1.29067">
        <ele>805</ele>
        <time>2021-04-04T10:18:57Z</time>
      </trkpt>
      <trkpt lat="42.88071" lon="1.29098">
        <ele>807</ele>
        <time>2021-04-04T10:19:17Z</time>
      </trkpt>
      <trkpt lat="42.88057" lon="1.29113">
        <ele>811</ele>
        <time>2021-04-04T10:19:36Z</time>
      </trkpt>
      <trkpt lat="42.88043" lon="1.2912">
        <ele>814</ele>
        <time>2021-04-04T10:19:50Z</time>
      </trkpt>
      <trkpt lat="42.88033" lon="1.29118">
        <ele>815</ele>
        <time>2021-04-04T10:19:58Z</time>
      </trkpt>
      <trkpt lat="42.88028" lon="1.29116">
        <ele>816</ele>
        <time>2021-04-04T10:20:02Z</time>
      </trkpt>
      <trkpt lat="42.88024" lon="1.29113">
        <ele>816</ele>
        <time>2021-04-04T10:20:07Z</time>
      </trkpt>
      <trkpt lat="42.88018" lon="1.29115">
        <ele>817</ele>
        <time>2021-04-04T10:20:13Z</time>
      </trkpt>
      <trkpt lat="42.88014" lon="1.29119">
        <ele>817</ele>
        <time>2021-04-04T10:20:16Z</time>
      </trkpt>
      <trkpt lat="42.88009" lon="1.2912">
        <ele>817</ele>
        <time>2021-04-04T10:20:20Z</time>
      </trkpt>
      <trkpt lat="42.88005" lon="1.29122">
        <ele>818</ele>
        <time>2021-04-04T10:20:25Z</time>
      </trkpt>
      <trkpt lat="42.87997" lon="1.29123">
        <ele>818</ele>
        <time>2021-04-04T10:20:32Z</time>
      </trkpt>
      <trkpt lat="42.87993" lon="1.29126">
        <ele>819</ele>
        <time>2021-04-04T10:20:36Z</time>
      </trkpt>
      <trkpt lat="42.87958" lon="1.29123">
        <ele>822</ele>
        <time>2021-04-04T10:21:11Z</time>
      </trkpt>
      <trkpt lat="42.87949" lon="1.29129">
        <ele>823</ele>
        <time>2021-04-04T10:21:18Z</time>
      </trkpt>
      <trkpt lat="42.87939" lon="1.29131">
        <ele>824</ele>
        <time>2021-04-04T10:21:25Z</time>
      </trkpt>
      <trkpt lat="42.8792" lon="1.29132">
        <ele>825</ele>
        <time>2021-04-04T10:21:41Z</time>
      </trkpt>
      <trkpt lat="42.87912" lon="1.29136">
        <ele>825</ele>
        <time>2021-04-04T10:21:47Z</time>
      </trkpt>
      <trkpt lat="42.87883" lon="1.29137">
        <ele>824</ele>
        <time>2021-04-04T10:22:09Z</time>
      </trkpt>
      <trkpt lat="42.87879" lon="1.29142">
        <ele>824</ele>
        <time>2021-04-04T10:22:19Z</time>
      </trkpt>
      <trkpt lat="42.87877" lon="1.29149">
        <ele>826</ele>
        <time>2021-04-04T10:22:30Z</time>
      </trkpt>
      <trkpt lat="42.87879" lon="1.29157">
        <ele>826</ele>
        <time>2021-04-04T10:22:41Z</time>
      </trkpt>
      <trkpt lat="42.87871" lon="1.29164">
        <ele>826</ele>
        <time>2021-04-04T10:22:52Z</time>
      </trkpt>
      <trkpt lat="42.87863" lon="1.29159">
        <ele>825</ele>
        <time>2021-04-04T10:23:05Z</time>
      </trkpt>
      <trkpt lat="42.87853" lon="1.29165">
        <ele>824</ele>
        <time>2021-04-04T10:23:16Z</time>
      </trkpt>
      <trkpt lat="42.87849" lon="1.29162">
        <ele>824</ele>
        <time>2021-04-04T10:23:21Z</time>
      </trkpt>
      <trkpt lat="42.87849" lon="1.29148">
        <ele>822</ele>
        <time>2021-04-04T10:23:31Z</time>
      </trkpt>
      <trkpt lat="42.87846" lon="1.29143">
        <ele>822</ele>
        <time>2021-04-04T10:23:35Z</time>
      </trkpt>
      <trkpt lat="42.87841" lon="1.29145">
        <ele>822</ele>
        <time>2021-04-04T10:23:47Z</time>
      </trkpt>
      <trkpt lat="42.87819" lon="1.29146">
        <ele>821</ele>
        <time>2021-04-04T10:24:18Z</time>
      </trkpt>
      <trkpt lat="42.87813" lon="1.29149">
        <ele>820</ele>
        <time>2021-04-04T10:24:28Z</time>
      </trkpt>
      <trkpt lat="42.87808" lon="1.29157">
        <ele>821</ele>
        <time>2021-04-04T10:24:55Z</time>
      </trkpt>
      <trkpt lat="42.87803" lon="1.29157">
        <ele>821</ele>
        <time>2021-04-04T10:24:59Z</time>
      </trkpt>
      <trkpt lat="42.87797" lon="1.29158">
        <ele>822</ele>
        <time>2021-04-04T10:26:07Z</time>
      </trkpt>
      <trkpt lat="42.87793" lon="1.29163">
        <ele>822</ele>
        <time>2021-04-04T10:26:10Z</time>
      </trkpt>
      <trkpt lat="42.87774" lon="1.29195">
        <ele>826</ele>
        <time>2021-04-04T10:26:32Z</time>
      </trkpt>
      <trkpt lat="42.87772" lon="1.29201">
        <ele>827</ele>
        <time>2021-04-04T10:26:36Z</time>
      </trkpt>
      <trkpt lat="42.87764" lon="1.29211">
        <ele>828</ele>
        <time>2021-04-04T10:26:44Z</time>
      </trkpt>
      <trkpt lat="42.87756" lon="1.29218">
        <ele>829</ele>
        <time>2021-04-04T10:26:52Z</time>
      </trkpt>
      <trkpt lat="42.87728" lon="1.29258">
        <ele>833</ele>
        <time>2021-04-04T10:27:22Z</time>
      </trkpt>
      <trkpt lat="42.87724" lon="1.29259">
        <ele>834</ele>
        <time>2021-04-04T10:27:26Z</time>
      </trkpt>
      <trkpt lat="42.87714" lon="1.2926">
        <ele>834</ele>
        <time>2021-04-04T10:27:35Z</time>
      </trkpt>
      <trkpt lat="42.87709" lon="1.29261">
        <ele>835</ele>
        <time>2021-04-04T10:27:39Z</time>
      </trkpt>
      <trkpt lat="42.877" lon="1.29266">
        <ele>835</ele>
        <time>2021-04-04T10:27:46Z</time>
      </trkpt>
      <trkpt lat="42.87697" lon="1.29272">
        <ele>836</ele>
        <time>2021-04-04T10:27:51Z</time>
      </trkpt>
      <trkpt lat="42.87681" lon="1.29289">
        <ele>837</ele>
        <time>2021-04-04T10:28:09Z</time>
      </trkpt>
      <trkpt lat="42.87678" lon="1.29294">
        <ele>837</ele>
        <time>2021-04-04T10:28:13Z</time>
      </trkpt>
      <trkpt lat="42.87676" lon="1.29308">
        <ele>838</ele>
        <time>2021-04-04T10:28:20Z</time>
      </trkpt>
      <trkpt lat="42.87669" lon="1.2932">
        <ele>839</ele>
        <time>2021-04-04T10:28:28Z</time>
      </trkpt>
      <trkpt lat="42.87665" lon="1.29323">
        <ele>839</ele>
        <time>2021-04-04T10:28:32Z</time>
      </trkpt>
      <trkpt lat="42.87661" lon="1.2932">
        <ele>840</ele>
        <time>2021-04-04T10:28:36Z</time>
      </trkpt>
      <trkpt lat="42.8766" lon="1.29313">
        <ele>840</ele>
        <time>2021-04-04T10:28:41Z</time>
      </trkpt>
      <trkpt lat="42.87669" lon="1.29301">
        <ele>841</ele>
        <time>2021-04-04T10:28:54Z</time>
      </trkpt>
      <trkpt lat="42.87678" lon="1.29283">
        <ele>842</ele>
        <time>2021-04-04T10:29:07Z</time>
      </trkpt>
      <trkpt lat="42.87682" lon="1.29271">
        <ele>843</ele>
        <time>2021-04-04T10:29:15Z</time>
      </trkpt>
      <trkpt lat="42.87689" lon="1.29259">
        <ele>845</ele>
        <time>2021-04-04T10:29:24Z</time>
      </trkpt>
      <trkpt lat="42.87693" lon="1.29239">
        <ele>846</ele>
        <time>2021-04-04T10:29:37Z</time>
      </trkpt>
      <trkpt lat="42.87689" lon="1.29228">
        <ele>847</ele>
        <time>2021-04-04T10:29:44Z</time>
      </trkpt>
      <trkpt lat="42.87687" lon="1.29216">
        <ele>848</ele>
        <time>2021-04-04T10:29:51Z</time>
      </trkpt>
      <trkpt lat="42.87688" lon="1.29201">
        <ele>850</ele>
        <time>2021-04-04T10:29:59Z</time>
      </trkpt>
      <trkpt lat="42.87685" lon="1.29182">
        <ele>851</ele>
        <time>2021-04-04T10:30:10Z</time>
      </trkpt>
      <trkpt lat="42.87678" lon="1.29165">
        <ele>853</ele>
        <time>2021-04-04T10:30:22Z</time>
      </trkpt>
      <trkpt lat="42.87678" lon="1.29146">
        <ele>855</ele>
        <time>2021-04-04T10:30:35Z</time>
      </trkpt>
      <trkpt lat="42.87677" lon="1.29139">
        <ele>856</ele>
        <time>2021-04-04T10:30:39Z</time>
      </trkpt>
      <trkpt lat="42.87673" lon="1.29133">
        <ele>856</ele>
        <time>2021-04-04T10:30:43Z</time>
      </trkpt>
      <trkpt lat="42.87672" lon="1.29126">
        <ele>857</ele>
        <time>2021-04-04T10:30:48Z</time>
      </trkpt>
      <trkpt lat="42.87665" lon="1.29116">
        <ele>858</ele>
        <time>2021-04-04T10:30:57Z</time>
      </trkpt>
      <trkpt lat="42.87646" lon="1.29111">
        <ele>860</ele>
        <time>2021-04-04T10:31:13Z</time>
      </trkpt>
      <trkpt lat="42.87641" lon="1.29112">
        <ele>861</ele>
        <time>2021-04-04T10:31:17Z</time>
      </trkpt>
      <trkpt lat="42.87636" lon="1.29114">
        <ele>861</ele>
        <time>2021-04-04T10:31:21Z</time>
      </trkpt>
      <trkpt lat="42.87626" lon="1.29114">
        <ele>862</ele>
        <time>2021-04-04T10:31:29Z</time>
      </trkpt>
      <trkpt lat="42.87622" lon="1.29116">
        <ele>863</ele>
        <time>2021-04-04T10:31:34Z</time>
      </trkpt>
      <trkpt lat="42.87617" lon="1.29117">
        <ele>863</ele>
        <time>2021-04-04T10:31:38Z</time>
      </trkpt>
      <trkpt lat="42.87612" lon="1.29121">
        <ele>864</ele>
        <time>2021-04-04T10:31:42Z</time>
      </trkpt>
      <trkpt lat="42.87601" lon="1.29124">
        <ele>864</ele>
        <time>2021-04-04T10:31:50Z</time>
      </trkpt>
      <trkpt lat="42.87597" lon="1.29128">
        <ele>865</ele>
        <time>2021-04-04T10:31:54Z</time>
      </trkpt>
      <trkpt lat="42.87591" lon="1.29129">
        <ele>865</ele>
        <time>2021-04-04T10:31:58Z</time>
      </trkpt>
      <trkpt lat="42.87572" lon="1.29125">
        <ele>864</ele>
        <time>2021-04-04T10:32:14Z</time>
      </trkpt>
      <trkpt lat="42.8753" lon="1.29142">
        <ele>863</ele>
        <time>2021-04-04T10:32:46Z</time>
      </trkpt>
      <trkpt lat="42.87487" lon="1.29163">
        <ele>863</ele>
        <time>2021-04-04T10:33:17Z</time>
      </trkpt>
      <trkpt lat="42.87477" lon="1.2917">
        <ele>863</ele>
        <time>2021-04-04T10:33:25Z</time>
      </trkpt>
      <trkpt lat="42.87471" lon="1.29171">
        <ele>863</ele>
        <time>2021-04-04T10:33:29Z</time>
      </trkpt>
      <trkpt lat="42.87451" lon="1.29165">
        <ele>863</ele>
        <time>2021-04-04T10:33:43Z</time>
      </trkpt>
      <trkpt lat="42.87417" lon="1.29152">
        <ele>865</ele>
        <time>2021-04-04T10:34:11Z</time>
      </trkpt>
      <trkpt lat="42.87416" lon="1.29145">
        <ele>866</ele>
        <time>2021-04-04T10:34:16Z</time>
      </trkpt>
      <trkpt lat="42.87421" lon="1.29132">
        <ele>868</ele>
        <time>2021-04-04T10:34:24Z</time>
      </trkpt>
      <trkpt lat="42.87424" lon="1.29128">
        <ele>868</ele>
        <time>2021-04-04T10:34:28Z</time>
      </trkpt>
      <trkpt lat="42.87436" lon="1.29105">
        <ele>870</ele>
        <time>2021-04-04T10:34:44Z</time>
      </trkpt>
      <trkpt lat="42.87439" lon="1.2909">
        <ele>871</ele>
        <time>2021-04-04T10:34:52Z</time>
      </trkpt>
      <trkpt lat="42.8745" lon="1.29057">
        <ele>872</ele>
        <time>2021-04-04T10:35:10Z</time>
      </trkpt>
      <trkpt lat="42.87459" lon="1.29053">
        <ele>873</ele>
        <time>2021-04-04T10:35:19Z</time>
      </trkpt>
      <trkpt lat="42.87464" lon="1.29052">
        <ele>873</ele>
        <time>2021-04-04T10:35:23Z</time>
      </trkpt>
      <trkpt lat="42.87468" lon="1.29048">
        <ele>874</ele>
        <time>2021-04-04T10:35:27Z</time>
      </trkpt>
      <trkpt lat="42.87468" lon="1.29039">
        <ele>874</ele>
        <time>2021-04-04T10:35:31Z</time>
      </trkpt>
      <trkpt lat="42.87464" lon="1.29036">
        <ele>874</ele>
        <time>2021-04-04T10:35:34Z</time>
      </trkpt>
      <trkpt lat="42.87459" lon="1.29035">
        <ele>875</ele>
        <time>2021-04-04T10:35:38Z</time>
      </trkpt>
      <trkpt lat="42.87454" lon="1.29035">
        <ele>875</ele>
        <time>2021-04-04T10:35:42Z</time>
      </trkpt>
      <trkpt lat="42.87427" lon="1.29052">
        <ele>879</ele>
        <time>2021-04-04T10:36:06Z</time>
      </trkpt>
      <trkpt lat="42.87423" lon="1.29056">
        <ele>879</ele>
        <time>2021-04-04T10:36:10Z</time>
      </trkpt>
      <trkpt lat="42.87419" lon="1.29062">
        <ele>880</ele>
        <time>2021-04-04T10:36:14Z</time>
      </trkpt>
      <trkpt lat="42.8741" lon="1.29069">
        <ele>881</ele>
        <time>2021-04-04T10:36:22Z</time>
      </trkpt>
      <trkpt lat="42.87386" lon="1.29074">
        <ele>884</ele>
        <time>2021-04-04T10:36:47Z</time>
      </trkpt>
      <trkpt lat="42.87336" lon="1.2908">
        <ele>890</ele>
        <time>2021-04-04T10:37:29Z</time>
      </trkpt>
      <trkpt lat="42.87322" lon="1.29078">
        <ele>892</ele>
        <time>2021-04-04T10:37:45Z</time>
      </trkpt>
      <trkpt lat="42.87294" lon="1.29042">
        <ele>898</ele>
        <time>2021-04-04T10:38:16Z</time>
      </trkpt>
      <trkpt lat="42.87258" lon="1.29022">
        <ele>902</ele>
        <time>2021-04-04T10:38:49Z</time>
      </trkpt>
      <trkpt lat="42.87233" lon="1.29034">
        <ele>902</ele>
        <time>2021-04-04T10:39:01Z</time>
      </trkpt>
      <trkpt lat="42.87218" lon="1.2905">
        <ele>904</ele>
        <time>2021-04-04T10:39:11Z</time>
      </trkpt>
      <trkpt lat="42.87199" lon="1.29056">
        <ele>905</ele>
        <time>2021-04-04T10:39:22Z</time>
      </trkpt>
      <trkpt lat="42.8717" lon="1.29056">
        <ele>909</ele>
        <time>2021-04-04T10:39:50Z</time>
      </trkpt>
      <trkpt lat="42.8716" lon="1.29061">
        <ele>909</ele>
        <time>2021-04-04T10:39:55Z</time>
      </trkpt>
      <trkpt lat="42.8715" lon="1.2906">
        <ele>910</ele>
        <time>2021-04-04T10:40:01Z</time>
      </trkpt>
      <trkpt lat="42.8714" lon="1.29067">
        <ele>911</ele>
        <time>2021-04-04T10:40:07Z</time>
      </trkpt>
      <trkpt lat="42.87113" lon="1.29102">
        <ele>915</ele>
        <time>2021-04-04T10:40:30Z</time>
      </trkpt>
      <trkpt lat="42.87105" lon="1.29125">
        <ele>917</ele>
        <time>2021-04-04T10:41:03Z</time>
      </trkpt>
      <trkpt lat="42.87087" lon="1.2912">
        <ele>919</ele>
        <time>2021-04-04T10:41:17Z</time>
      </trkpt>
      <trkpt lat="42.87067" lon="1.29124">
        <ele>920</ele>
        <time>2021-04-04T10:41:29Z</time>
      </trkpt>
      <trkpt lat="42.87049" lon="1.29118">
        <ele>923</ele>
        <time>2021-04-04T10:41:43Z</time>
      </trkpt>
      <trkpt lat="42.87038" lon="1.2911">
        <ele>924</ele>
        <time>2021-04-04T10:41:51Z</time>
      </trkpt>
      <trkpt lat="42.86991" lon="1.29116">
        <ele>929</ele>
        <time>2021-04-04T10:42:24Z</time>
      </trkpt>
      <trkpt lat="42.86964" lon="1.29124">
        <ele>932</ele>
        <time>2021-04-04T10:42:53Z</time>
      </trkpt>
      <trkpt lat="42.86936" lon="1.29121">
        <ele>935</ele>
        <time>2021-04-04T10:43:16Z</time>
      </trkpt>
      <trkpt lat="42.86907" lon="1.29119">
        <ele>937</ele>
        <time>2021-04-04T10:43:33Z</time>
      </trkpt>
      <trkpt lat="42.8687" lon="1.29136">
        <ele>942</ele>
        <time>2021-04-04T10:44:02Z</time>
      </trkpt>
      <trkpt lat="42.86863" lon="1.29143">
        <ele>943</ele>
        <time>2021-04-04T10:44:08Z</time>
      </trkpt>
      <trkpt lat="42.8686" lon="1.29155">
        <ele>944</ele>
        <time>2021-04-04T10:44:15Z</time>
      </trkpt>
      <trkpt lat="42.86853" lon="1.29164">
        <ele>945</ele>
        <time>2021-04-04T10:44:22Z</time>
      </trkpt>
      <trkpt lat="42.86844" lon="1.2917">
        <ele>946</ele>
        <time>2021-04-04T10:44:29Z</time>
      </trkpt>
      <trkpt lat="42.86836" lon="1.29173">
        <ele>947</ele>
        <time>2021-04-04T10:44:36Z</time>
      </trkpt>
      <trkpt lat="42.86828" lon="1.29181">
        <ele>948</ele>
        <time>2021-04-04T10:44:44Z</time>
      </trkpt>
      <trkpt lat="42.86818" lon="1.29169">
        <ele>951</ele>
        <time>2021-04-04T10:45:01Z</time>
      </trkpt>
      <trkpt lat="42.86807" lon="1.29164">
        <ele>952</ele>
        <time>2021-04-04T10:45:10Z</time>
      </trkpt>
      <trkpt lat="42.86786" lon="1.29155">
        <ele>955</ele>
        <time>2021-04-04T10:45:31Z</time>
      </trkpt>
      <trkpt lat="42.86776" lon="1.29157">
        <ele>955</ele>
        <time>2021-04-04T10:45:37Z</time>
      </trkpt>
      <trkpt lat="42.86767" lon="1.29163">
        <ele>956</ele>
        <time>2021-04-04T10:45:43Z</time>
      </trkpt>
      <trkpt lat="42.8676" lon="1.29174">
        <ele>957</ele>
        <time>2021-04-04T10:45:51Z</time>
      </trkpt>
      <trkpt lat="42.86751" lon="1.29211">
        <ele>959</ele>
        <time>2021-04-04T10:46:09Z</time>
      </trkpt>
      <trkpt lat="42.86742" lon="1.29218">
        <ele>960</ele>
        <time>2021-04-04T10:46:17Z</time>
      </trkpt>
      <trkpt lat="42.86723" lon="1.2922">
        <ele>963</ele>
        <time>2021-04-04T10:46:32Z</time>
      </trkpt>
      <trkpt lat="42.86714" lon="1.29224">
        <ele>964</ele>
        <time>2021-04-04T10:46:42Z</time>
      </trkpt>
      <trkpt lat="42.86678" lon="1.29215">
        <ele>969</ele>
        <time>2021-04-04T10:47:18Z</time>
      </trkpt>
      <trkpt lat="42.8666" lon="1.29228">
        <ele>971</ele>
        <time>2021-04-04T10:47:55Z</time>
      </trkpt>
      <trkpt lat="42.86652" lon="1.2926">
        <ele>974</ele>
        <time>2021-04-04T10:48:32Z</time>
      </trkpt>
      <trkpt lat="42.86647" lon="1.29273">
        <ele>975</ele>
        <time>2021-04-04T10:48:40Z</time>
      </trkpt>
      <trkpt lat="42.86642" lon="1.29299">
        <ele>977</ele>
        <time>2021-04-04T10:48:52Z</time>
      </trkpt>
      <trkpt lat="42.86641" lon="1.2934">
        <ele>979</ele>
        <time>2021-04-04T10:49:12Z</time>
      </trkpt>
      <trkpt lat="42.8664" lon="1.29353">
        <ele>980</ele>
        <time>2021-04-04T10:49:18Z</time>
      </trkpt>
      <trkpt lat="42.86641" lon="1.29379">
        <ele>982</ele>
        <time>2021-04-04T10:49:32Z</time>
      </trkpt>
      <trkpt lat="42.86636" lon="1.2939">
        <ele>983</ele>
        <time>2021-04-04T10:49:38Z</time>
      </trkpt>
      <trkpt lat="42.86629" lon="1.29438">
        <ele>985</ele>
        <time>2021-04-04T10:50:04Z</time>
      </trkpt>
      <trkpt lat="42.86629" lon="1.29452">
        <ele>986</ele>
        <time>2021-04-04T10:50:13Z</time>
      </trkpt>
      <trkpt lat="42.86626" lon="1.29464">
        <ele>987</ele>
        <time>2021-04-04T10:50:21Z</time>
      </trkpt>
      <trkpt lat="42.86638" lon="1.2948">
        <ele>988</ele>
        <time>2021-04-04T10:51:19Z</time>
      </trkpt>
      <trkpt lat="42.86655" lon="1.29496">
        <ele>990</ele>
        <time>2021-04-04T10:51:31Z</time>
      </trkpt>
      <trkpt lat="42.86662" lon="1.29501">
        <ele>990</ele>
        <time>2021-04-04T10:51:36Z</time>
      </trkpt>
      <trkpt lat="42.86671" lon="1.29506">
        <ele>991</ele>
        <time>2021-04-04T10:51:42Z</time>
      </trkpt>
      <trkpt lat="42.86678" lon="1.29515">
        <ele>991</ele>
        <time>2021-04-04T10:51:49Z</time>
      </trkpt>
      <trkpt lat="42.86681" lon="1.29528">
        <ele>992</ele>
        <time>2021-04-04T10:51:56Z</time>
      </trkpt>
      <trkpt lat="42.86687" lon="1.29554">
        <ele>993</ele>
        <time>2021-04-04T10:52:11Z</time>
      </trkpt>
      <trkpt lat="42.86685" lon="1.29564">
        <ele>993</ele>
        <time>2021-04-04T10:52:16Z</time>
      </trkpt>
      <trkpt lat="42.86684" lon="1.29571">
        <ele>993</ele>
        <time>2021-04-04T10:52:19Z</time>
      </trkpt>
      <trkpt lat="42.86685" lon="1.29579">
        <ele>994</ele>
        <time>2021-04-04T10:52:23Z</time>
      </trkpt>
      <trkpt lat="42.86686" lon="1.29585">
        <ele>994</ele>
        <time>2021-04-04T10:52:26Z</time>
      </trkpt>
      <trkpt lat="42.8669" lon="1.29622">
        <ele>995</ele>
        <time>2021-04-04T10:52:44Z</time>
      </trkpt>
      <trkpt lat="42.86692" lon="1.29629">
        <ele>996</ele>
        <time>2021-04-04T10:52:48Z</time>
      </trkpt>
      <trkpt lat="42.86694" lon="1.29656">
        <ele>997</ele>
        <time>2021-04-04T10:53:01Z</time>
      </trkpt>
      <trkpt lat="42.86694" lon="1.29669">
        <ele>997</ele>
        <time>2021-04-04T10:53:08Z</time>
      </trkpt>
      <trkpt lat="42.86695" lon="1.29681">
        <ele>998</ele>
        <time>2021-04-04T10:53:14Z</time>
      </trkpt>
      <trkpt lat="42.86695" lon="1.29695">
        <ele>998</ele>
        <time>2021-04-04T10:53:20Z</time>
      </trkpt>
      <trkpt lat="42.86693" lon="1.29702">
        <ele>998</ele>
        <time>2021-04-04T10:53:23Z</time>
      </trkpt>
      <trkpt lat="42.86694" lon="1.2974">
        <ele>999</ele>
        <time>2021-04-04T10:53:44Z</time>
      </trkpt>
      <trkpt lat="42.86691" lon="1.29761">
        <ele>1000</ele>
        <time>2021-04-04T10:53:55Z</time>
      </trkpt>
      <trkpt lat="42.86691" lon="1.29768">
        <ele>1000</ele>
        <time>2021-04-04T10:53:58Z</time>
      </trkpt>
      <trkpt lat="42.86681" lon="1.29834">
        <ele>1002</ele>
        <time>2021-04-04T10:54:27Z</time>
      </trkpt>
      <trkpt lat="42.8668" lon="1.29852">
        <ele>1002</ele>
        <time>2021-04-04T10:54:35Z</time>
      </trkpt>
      <trkpt lat="42.86686" lon="1.29863">
        <ele>1003</ele>
        <time>2021-04-04T10:54:41Z</time>
      </trkpt>
      <trkpt lat="42.86687" lon="1.29876">
        <ele>1003</ele>
        <time>2021-04-04T10:54:48Z</time>
      </trkpt>
      <trkpt lat="42.86684" lon="1.29889">
        <ele>1003</ele>
        <time>2021-04-04T10:54:55Z</time>
      </trkpt>
      <trkpt lat="42.86686" lon="1.29901">
        <ele>1004</ele>
        <time>2021-04-04T10:55:02Z</time>
      </trkpt>
      <trkpt lat="42.86682" lon="1.29927">
        <ele>1005</ele>
        <time>2021-04-04T10:55:17Z</time>
      </trkpt>
      <trkpt lat="42.8668" lon="1.29941">
        <ele>1006</ele>
        <time>2021-04-04T10:55:34Z</time>
      </trkpt>
      <trkpt lat="42.86675" lon="1.29996">
        <ele>1008</ele>
        <time>2021-04-04T10:55:59Z</time>
      </trkpt>
      <trkpt lat="42.86674" lon="1.3">
        <ele>1008</ele>
        <time>2021-04-04T10:56:15Z</time>
      </trkpt>
      <trkpt lat="42.86668" lon="1.29998">
        <ele>1009</ele>
        <time>2021-04-04T10:56:36Z</time>
      </trkpt>
      <trkpt lat="42.86666" lon="1.30004">
        <ele>1009</ele>
        <time>2021-04-04T10:56:41Z</time>
      </trkpt>
      <trkpt lat="42.86664" lon="1.30031">
        <ele>1010</ele>
        <time>2021-04-04T10:56:56Z</time>
      </trkpt>
      <trkpt lat="42.86666" lon="1.30038">
        <ele>1010</ele>
        <time>2021-04-04T10:56:59Z</time>
      </trkpt>
      <trkpt lat="42.86663" lon="1.30044">
        <ele>1010</ele>
        <time>2021-04-04T10:57:04Z</time>
      </trkpt>
      <trkpt lat="42.8666" lon="1.30049">
        <ele>1011</ele>
        <time>2021-04-04T10:57:08Z</time>
      </trkpt>
      <trkpt lat="42.86641" lon="1.30063">
        <ele>1017</ele>
        <time>2021-04-04T10:57:32Z</time>
      </trkpt>
      <trkpt lat="42.86636" lon="1.30062">
        <ele>1018</ele>
        <time>2021-04-04T10:57:37Z</time>
      </trkpt>
      <trkpt lat="42.86634" lon="1.30054">
        <ele>1020</ele>
        <time>2021-04-04T10:57:44Z</time>
      </trkpt>
      <trkpt lat="42.86633" lon="1.30046">
        <ele>1022</ele>
        <time>2021-04-04T10:57:52Z</time>
      </trkpt>
      <trkpt lat="42.86634" lon="1.30035">
        <ele>1025</ele>
        <time>2021-04-04T10:58:04Z</time>
      </trkpt>
      <trkpt lat="42.86633" lon="1.30026">
        <ele>1026</ele>
        <time>2021-04-04T10:58:11Z</time>
      </trkpt>
      <trkpt lat="42.86626" lon="1.29992">
        <ele>1032</ele>
        <time>2021-04-04T10:58:38Z</time>
      </trkpt>
      <trkpt lat="42.86625" lon="1.29986">
        <ele>1033</ele>
        <time>2021-04-04T10:58:43Z</time>
      </trkpt>
      <trkpt lat="42.86615" lon="1.2998">
        <ele>1034</ele>
        <time>2021-04-04T10:59:04Z</time>
      </trkpt>
      <trkpt lat="42.86605" lon="1.29986">
        <ele>1040</ele>
        <time>2021-04-04T10:59:28Z</time>
      </trkpt>
      <trkpt lat="42.86597" lon="1.29991">
        <ele>1043</ele>
        <time>2021-04-04T10:59:46Z</time>
      </trkpt>
      <trkpt lat="42.86586" lon="1.29986">
        <ele>1047</ele>
        <time>2021-04-04T11:00:04Z</time>
      </trkpt>
      <trkpt lat="42.86578" lon="1.29991">
        <ele>1055</ele>
        <time>2021-04-04T11:00:57Z</time>
      </trkpt>
      <trkpt lat="42.86571" lon="1.29978">
        <ele>1063</ele>
        <time>2021-04-04T11:01:33Z</time>
      </trkpt>
      <trkpt lat="42.86566" lon="1.29976">
        <ele>1065</ele>
        <time>2021-04-04T11:01:45Z</time>
      </trkpt>
      <trkpt lat="42.86561" lon="1.29978">
        <ele>1068</ele>
        <time>2021-04-04T11:02:03Z</time>
      </trkpt>
      <trkpt lat="42.86558" lon="1.29972">
        <ele>1070</ele>
        <time>2021-04-04T11:02:15Z</time>
      </trkpt>
      <trkpt lat="42.86549" lon="1.2997">
        <ele>1075</ele>
        <time>2021-04-04T11:02:45Z</time>
      </trkpt>
      <trkpt lat="42.86541" lon="1.29962">
        <ele>1080</ele>
        <time>2021-04-04T11:03:09Z</time>
      </trkpt>
      <trkpt lat="42.86529" lon="1.29961">
        <ele>1086</ele>
        <time>2021-04-04T11:03:39Z</time>
      </trkpt>
      <trkpt lat="42.86518" lon="1.29957">
        <ele>1097</ele>
        <time>2021-04-04T11:04:28Z</time>
      </trkpt>
      <trkpt lat="42.86502" lon="1.2994">
        <ele>1109</ele>
        <time>2021-04-04T11:05:34Z</time>
      </trkpt>
      <trkpt lat="42.86499" lon="1.29925">
        <ele>1113</ele>
        <time>2021-04-04T11:05:58Z</time>
      </trkpt>
      <trkpt lat="42.86494" lon="1.29914">
        <ele>1117</ele>
        <time>2021-04-04T11:06:16Z</time>
      </trkpt>
      <trkpt lat="42.86486" lon="1.29919">
        <ele>1119</ele>
        <time>2021-04-04T11:06:27Z</time>
      </trkpt>
      <trkpt lat="42.86482" lon="1.29924">
        <ele>1120</ele>
        <time>2021-04-04T11:06:35Z</time>
      </trkpt>
      <trkpt lat="42.86474" lon="1.29926">
        <ele>1122</ele>
        <time>2021-04-04T11:06:47Z</time>
      </trkpt>
      <trkpt lat="42.86468" lon="1.29918">
        <ele>1124</ele>
        <time>2021-04-04T11:07:01Z</time>
      </trkpt>
      <trkpt lat="42.86472" lon="1.29908">
        <ele>1128</ele>
        <time>2021-04-04T11:07:22Z</time>
      </trkpt>
      <trkpt lat="42.86472" lon="1.29891">
        <ele>1133</ele>
        <time>2021-04-04T11:07:47Z</time>
      </trkpt>
      <trkpt lat="42.8647" lon="1.29884">
        <ele>1135</ele>
        <time>2021-04-04T11:07:59Z</time>
      </trkpt>
      <trkpt lat="42.86469" lon="1.29877">
        <ele>1137</ele>
        <time>2021-04-04T11:08:11Z</time>
      </trkpt>
      <trkpt lat="42.86473" lon="1.29858">
        <ele>1140</ele>
        <time>2021-04-04T11:08:35Z</time>
      </trkpt>
      <trkpt lat="42.86471" lon="1.2985">
        <ele>1142</ele>
        <time>2021-04-04T11:08:47Z</time>
      </trkpt>
      <trkpt lat="42.8647" lon="1.2984">
        <ele>1144</ele>
        <time>2021-04-04T11:09:11Z</time>
      </trkpt>
      <trkpt lat="42.86466" lon="1.29831">
        <ele>1146</ele>
        <time>2021-04-04T11:09:23Z</time>
      </trkpt>
      <trkpt lat="42.86463" lon="1.29819">
        <ele>1148</ele>
        <time>2021-04-04T11:09:35Z</time>
      </trkpt>
      <trkpt lat="42.86463" lon="1.29808">
        <ele>1150</ele>
        <time>2021-04-04T11:09:45Z</time>
      </trkpt>
      <trkpt lat="42.86459" lon="1.29789">
        <ele>1152</ele>
        <time>2021-04-04T11:10:03Z</time>
      </trkpt>
      <trkpt lat="42.86457" lon="1.29783">
        <ele>1153</ele>
        <time>2021-04-04T11:10:08Z</time>
      </trkpt>
      <trkpt lat="42.86455" lon="1.29776">
        <ele>1153</ele>
        <time>2021-04-04T11:10:13Z</time>
      </trkpt>
      <trkpt lat="42.8645" lon="1.2977">
        <ele>1154</ele>
        <time>2021-04-04T11:10:24Z</time>
      </trkpt>
      <trkpt lat="42.86447" lon="1.29762">
        <ele>1155</ele>
        <time>2021-04-04T11:10:36Z</time>
      </trkpt>
      <trkpt lat="42.86442" lon="1.29759">
        <ele>1156</ele>
        <time>2021-04-04T11:10:42Z</time>
      </trkpt>
      <trkpt lat="42.86437" lon="1.29757">
        <ele>1157</ele>
        <time>2021-04-04T11:10:46Z</time>
      </trkpt>
      <trkpt lat="42.86432" lon="1.29756">
        <ele>1159</ele>
        <time>2021-04-04T11:10:57Z</time>
      </trkpt>
      <trkpt lat="42.86432" lon="1.29785">
        <ele>1165</ele>
        <time>2021-04-04T11:11:33Z</time>
      </trkpt>
      <trkpt lat="42.86428" lon="1.29796">
        <ele>1168</ele>
        <time>2021-04-04T11:11:51Z</time>
      </trkpt>
      <trkpt lat="42.86421" lon="1.29812">
        <ele>1170</ele>
        <time>2021-04-04T11:12:10Z</time>
      </trkpt>
      <trkpt lat="42.86411" lon="1.29824">
        <ele>1173</ele>
        <time>2021-04-04T11:12:28Z</time>
      </trkpt>
      <trkpt lat="42.86405" lon="1.29839">
        <ele>1176</ele>
        <time>2021-04-04T11:12:46Z</time>
      </trkpt>
      <trkpt lat="42.86397" lon="1.29846">
        <ele>1177</ele>
        <time>2021-04-04T11:12:56Z</time>
      </trkpt>
      <trkpt lat="42.86394" lon="1.29853">
        <ele>1178</ele>
        <time>2021-04-04T11:13:04Z</time>
      </trkpt>
      <trkpt lat="42.86389" lon="1.2986">
        <ele>1179</ele>
        <time>2021-04-04T11:13:16Z</time>
      </trkpt>
      <trkpt lat="42.86384" lon="1.29862">
        <ele>1181</ele>
        <time>2021-04-04T11:13:28Z</time>
      </trkpt>
      <trkpt lat="42.8638" lon="1.29846">
        <ele>1186</ele>
        <time>2021-04-04T11:13:58Z</time>
      </trkpt>
      <trkpt lat="42.86373" lon="1.29834">
        <ele>1188</ele>
        <time>2021-04-04T11:14:16Z</time>
      </trkpt>
      <trkpt lat="42.86367" lon="1.29825">
        <ele>1191</ele>
        <time>2021-04-04T11:14:36Z</time>
      </trkpt>
      <trkpt lat="42.86352" lon="1.29814">
        <ele>1195</ele>
        <time>2021-04-04T11:15:00Z</time>
      </trkpt>
      <trkpt lat="42.86348" lon="1.298">
        <ele>1196</ele>
        <time>2021-04-04T11:15:15Z</time>
      </trkpt>
      <trkpt lat="42.86322" lon="1.29789">
        <ele>1201</ele>
        <time>2021-04-04T11:15:50Z</time>
      </trkpt>
      <trkpt lat="42.86318" lon="1.29777">
        <ele>1202</ele>
        <time>2021-04-04T11:16:04Z</time>
      </trkpt>
      <trkpt lat="42.8631" lon="1.29766">
        <ele>1206</ele>
        <time>2021-04-04T11:16:35Z</time>
      </trkpt>
      <trkpt lat="42.86297" lon="1.29767">
        <ele>1210</ele>
        <time>2021-04-04T11:16:59Z</time>
      </trkpt>
      <trkpt lat="42.86277" lon="1.29775">
        <ele>1216</ele>
        <time>2021-04-04T11:17:41Z</time>
      </trkpt>
      <trkpt lat="42.86268" lon="1.29771">
        <ele>1218</ele>
        <time>2021-04-04T11:17:59Z</time>
      </trkpt>
      <trkpt lat="42.86259" lon="1.29777">
        <ele>1222</ele>
        <time>2021-04-04T11:21:00Z</time>
      </trkpt>
      <trkpt lat="42.86245" lon="1.29788">
        <ele>1222</ele>
        <time>2021-04-04T11:25:57Z</time>
      </trkpt>
      <trkpt lat="42.86233" lon="1.29797">
        <ele>1217</ele>
        <time>2021-04-04T11:26:12Z</time>
      </trkpt>
      <trkpt lat="42.86228" lon="1.29808">
        <ele>1216</ele>
        <time>2021-04-04T11:26:22Z</time>
      </trkpt>
      <trkpt lat="42.86227" lon="1.2982">
        <ele>1214</ele>
        <time>2021-04-04T11:26:29Z</time>
      </trkpt>
      <trkpt lat="42.86213" lon="1.29836">
        <ele>1210</ele>
        <time>2021-04-04T11:27:05Z</time>
      </trkpt>
      <trkpt lat="42.86194" lon="1.29848">
        <ele>1205</ele>
        <time>2021-04-04T11:27:15Z</time>
      </trkpt>
      <trkpt lat="42.86173" lon="1.29873">
        <ele>1196</ele>
        <time>2021-04-04T11:27:29Z</time>
      </trkpt>
      <trkpt lat="42.86169" lon="1.29885">
        <ele>1194</ele>
        <time>2021-04-04T11:27:33Z</time>
      </trkpt>
      <trkpt lat="42.86162" lon="1.29897">
        <ele>1193</ele>
        <time>2021-04-04T11:27:40Z</time>
      </trkpt>
      <trkpt lat="42.8616" lon="1.29909">
        <ele>1192</ele>
        <time>2021-04-04T11:27:46Z</time>
      </trkpt>
      <trkpt lat="42.86162" lon="1.29922">
        <ele>1192</ele>
        <time>2021-04-04T11:27:52Z</time>
      </trkpt>
      <trkpt lat="42.86158" lon="1.29935">
        <ele>1192</ele>
        <time>2021-04-04T11:28:00Z</time>
      </trkpt>
      <trkpt lat="42.86157" lon="1.29953">
        <ele>1186</ele>
        <time>2021-04-04T11:28:24Z</time>
      </trkpt>
      <trkpt lat="42.86131" lon="1.29974">
        <ele>1172</ele>
        <time>2021-04-04T11:28:46Z</time>
      </trkpt>
      <trkpt lat="42.86102" lon="1.29978">
        <ele>1164</ele>
        <time>2021-04-04T11:29:08Z</time>
      </trkpt>
      <trkpt lat="42.86094" lon="1.29983">
        <ele>1162</ele>
        <time>2021-04-04T11:29:15Z</time>
      </trkpt>
      <trkpt lat="42.86074" lon="1.30011">
        <ele>1158</ele>
        <time>2021-04-04T11:29:38Z</time>
      </trkpt>
      <trkpt lat="42.86062" lon="1.30013">
        <ele>1153</ele>
        <time>2021-04-04T11:29:55Z</time>
      </trkpt>
      <trkpt lat="42.86048" lon="1.30016">
        <ele>1147</ele>
        <time>2021-04-04T11:30:10Z</time>
      </trkpt>
      <trkpt lat="42.86051" lon="1.30023">
        <ele>1146</ele>
        <time>2021-04-04T11:30:14Z</time>
      </trkpt>
      <trkpt lat="42.86053" lon="1.3003">
        <ele>1146</ele>
        <time>2021-04-04T11:30:18Z</time>
      </trkpt>
      <trkpt lat="42.86046" lon="1.30043">
        <ele>1144</ele>
        <time>2021-04-04T11:30:25Z</time>
      </trkpt>
      <trkpt lat="42.86042" lon="1.30057">
        <ele>1142</ele>
        <time>2021-04-04T11:30:29Z</time>
      </trkpt>
      <trkpt lat="42.86043" lon="1.30067">
        <ele>1140</ele>
        <time>2021-04-04T11:30:38Z</time>
      </trkpt>
      <trkpt lat="42.86047" lon="1.30073">
        <ele>1139</ele>
        <time>2021-04-04T11:30:41Z</time>
      </trkpt>
      <trkpt lat="42.86051" lon="1.30082">
        <ele>1137</ele>
        <time>2021-04-04T11:30:45Z</time>
      </trkpt>
      <trkpt lat="42.8605" lon="1.30088">
        <ele>1136</ele>
        <time>2021-04-04T11:30:47Z</time>
      </trkpt>
      <trkpt lat="42.86046" lon="1.30104">
        <ele>1132</ele>
        <time>2021-04-04T11:30:52Z</time>
      </trkpt>
      <trkpt lat="42.86035" lon="1.30116">
        <ele>1129</ele>
        <time>2021-04-04T11:30:59Z</time>
      </trkpt>
      <trkpt lat="42.86031" lon="1.30119">
        <ele>1129</ele>
        <time>2021-04-04T11:31:02Z</time>
      </trkpt>
      <trkpt lat="42.86027" lon="1.30124">
        <ele>1129</ele>
        <time>2021-04-04T11:31:06Z</time>
      </trkpt>
      <trkpt lat="42.86021" lon="1.30124">
        <ele>1130</ele>
        <time>2021-04-04T11:31:11Z</time>
      </trkpt>
      <trkpt lat="42.86007" lon="1.30139">
        <ele>1128</ele>
        <time>2021-04-04T11:31:28Z</time>
      </trkpt>
      <trkpt lat="42.85998" lon="1.30142">
        <ele>1125</ele>
        <time>2021-04-04T11:31:35Z</time>
      </trkpt>
      <trkpt lat="42.8599" lon="1.30149">
        <ele>1124</ele>
        <time>2021-04-04T11:31:43Z</time>
      </trkpt>
      <trkpt lat="42.85983" lon="1.30156">
        <ele>1125</ele>
        <time>2021-04-04T11:31:52Z</time>
      </trkpt>
      <trkpt lat="42.85978" lon="1.30165">
        <ele>1127</ele>
        <time>2021-04-04T11:32:06Z</time>
      </trkpt>
      <trkpt lat="42.85968" lon="1.30175">
        <ele>1126</ele>
        <time>2021-04-04T11:32:21Z</time>
      </trkpt>
      <trkpt lat="42.85967" lon="1.30192">
        <ele>1126</ele>
        <time>2021-04-04T11:32:47Z</time>
      </trkpt>
      <trkpt lat="42.85957" lon="1.30228">
        <ele>1118</ele>
        <time>2021-04-04T11:33:03Z</time>
      </trkpt>
      <trkpt lat="42.85957" lon="1.30242">
        <ele>1117</ele>
        <time>2021-04-04T11:33:10Z</time>
      </trkpt>
      <trkpt lat="42.85961" lon="1.30256">
        <ele>1119</ele>
        <time>2021-04-04T11:33:23Z</time>
      </trkpt>
      <trkpt lat="42.85961" lon="1.30289">
        <ele>1123</ele>
        <time>2021-04-04T11:33:46Z</time>
      </trkpt>
      <trkpt lat="42.85958" lon="1.3031">
        <ele>1125</ele>
        <time>2021-04-04T11:34:03Z</time>
      </trkpt>
      <trkpt lat="42.85958" lon="1.30322">
        <ele>1125</ele>
        <time>2021-04-04T11:34:10Z</time>
      </trkpt>
      <trkpt lat="42.85959" lon="1.30335">
        <ele>1123</ele>
        <time>2021-04-04T11:34:19Z</time>
      </trkpt>
      <trkpt lat="42.8595" lon="1.3035">
        <ele>1121</ele>
        <time>2021-04-04T11:34:37Z</time>
      </trkpt>
      <trkpt lat="42.8594" lon="1.30358">
        <ele>1119</ele>
        <time>2021-04-04T11:34:53Z</time>
      </trkpt>
      <trkpt lat="42.85932" lon="1.30367">
        <ele>1120</ele>
        <time>2021-04-04T11:35:02Z</time>
      </trkpt>
      <trkpt lat="42.85926" lon="1.30378">
        <ele>1121</ele>
        <time>2021-04-04T11:35:10Z</time>
      </trkpt>
      <trkpt lat="42.85922" lon="1.3039">
        <ele>1121</ele>
        <time>2021-04-04T11:35:18Z</time>
      </trkpt>
      <trkpt lat="42.85916" lon="1.304">
        <ele>1121</ele>
        <time>2021-04-04T11:36:05Z</time>
      </trkpt>
      <trkpt lat="42.85913" lon="1.30412">
        <ele>1116</ele>
        <time>2021-04-04T11:36:15Z</time>
      </trkpt>
      <trkpt lat="42.85916" lon="1.30426">
        <ele>1114</ele>
        <time>2021-04-04T11:36:22Z</time>
      </trkpt>
      <trkpt lat="42.8591" lon="1.30437">
        <ele>1110</ele>
        <time>2021-04-04T11:36:29Z</time>
      </trkpt>
      <trkpt lat="42.859" lon="1.30436">
        <ele>1109</ele>
        <time>2021-04-04T11:36:36Z</time>
      </trkpt>
      <trkpt lat="42.85897" lon="1.30452">
        <ele>1110</ele>
        <time>2021-04-04T11:36:47Z</time>
      </trkpt>
      <trkpt lat="42.8589" lon="1.30461">
        <ele>1111</ele>
        <time>2021-04-04T11:36:55Z</time>
      </trkpt>
      <trkpt lat="42.85888" lon="1.30473">
        <ele>1110</ele>
        <time>2021-04-04T11:37:07Z</time>
      </trkpt>
      <trkpt lat="42.85883" lon="1.30475">
        <ele>1111</ele>
        <time>2021-04-04T11:37:11Z</time>
      </trkpt>
      <trkpt lat="42.85878" lon="1.30485">
        <ele>1110</ele>
        <time>2021-04-04T11:37:25Z</time>
      </trkpt>
      <trkpt lat="42.85878" lon="1.30492">
        <ele>1110</ele>
        <time>2021-04-04T11:37:47Z</time>
      </trkpt>
      <trkpt lat="42.85878" lon="1.30501">
        <ele>1110</ele>
        <time>2021-04-04T11:37:54Z</time>
      </trkpt>
      <trkpt lat="42.85875" lon="1.30514">
        <ele>1106</ele>
        <time>2021-04-04T11:38:03Z</time>
      </trkpt>
      <trkpt lat="42.85876" lon="1.30521">
        <ele>1105</ele>
        <time>2021-04-04T11:38:07Z</time>
      </trkpt>
      <trkpt lat="42.85871" lon="1.30523">
        <ele>1102</ele>
        <time>2021-04-04T11:38:15Z</time>
      </trkpt>
      <trkpt lat="42.8587" lon="1.3053">
        <ele>1099</ele>
        <time>2021-04-04T11:38:20Z</time>
      </trkpt>
      <trkpt lat="42.85871" lon="1.3055">
        <ele>1097</ele>
        <time>2021-04-04T11:38:33Z</time>
      </trkpt>
      <trkpt lat="42.85869" lon="1.30564">
        <ele>1094</ele>
        <time>2021-04-04T11:38:40Z</time>
      </trkpt>
      <trkpt lat="42.85859" lon="1.30572">
        <ele>1092</ele>
        <time>2021-04-04T11:38:46Z</time>
      </trkpt>
      <trkpt lat="42.85852" lon="1.30587">
        <ele>1091</ele>
        <time>2021-04-04T11:38:51Z</time>
      </trkpt>
      <trkpt lat="42.85843" lon="1.30598">
        <ele>1089</ele>
        <time>2021-04-04T11:38:55Z</time>
      </trkpt>
      <trkpt lat="42.85839" lon="1.30609">
        <ele>1089</ele>
        <time>2021-04-04T11:38:58Z</time>
      </trkpt>
      <trkpt lat="42.8584" lon="1.30626">
        <ele>1090</ele>
        <time>2021-04-04T11:39:05Z</time>
      </trkpt>
      <trkpt lat="42.85838" lon="1.30632">
        <ele>1091</ele>
        <time>2021-04-04T11:39:09Z</time>
      </trkpt>
      <trkpt lat="42.85835" lon="1.30637">
        <ele>1092</ele>
        <time>2021-04-04T11:39:13Z</time>
      </trkpt>
      <trkpt lat="42.85831" lon="1.30641">
        <ele>1093</ele>
        <time>2021-04-04T11:39:18Z</time>
      </trkpt>
      <trkpt lat="42.85828" lon="1.30647">
        <ele>1094</ele>
        <time>2021-04-04T11:39:23Z</time>
      </trkpt>
      <trkpt lat="42.85825" lon="1.30653">
        <ele>1094</ele>
        <time>2021-04-04T11:39:27Z</time>
      </trkpt>
      <trkpt lat="42.85812" lon="1.30665">
        <ele>1093</ele>
        <time>2021-04-04T11:39:40Z</time>
      </trkpt>
      <trkpt lat="42.85808" lon="1.30668">
        <ele>1093</ele>
        <time>2021-04-04T11:39:44Z</time>
      </trkpt>
      <trkpt lat="42.85803" lon="1.30671">
        <ele>1094</ele>
        <time>2021-04-04T11:39:49Z</time>
      </trkpt>
      <trkpt lat="42.85798" lon="1.30672">
        <ele>1095</ele>
        <time>2021-04-04T11:39:54Z</time>
      </trkpt>
      <trkpt lat="42.85792" lon="1.30672">
        <ele>1094</ele>
        <time>2021-04-04T11:40:00Z</time>
      </trkpt>
      <trkpt lat="42.85787" lon="1.30676">
        <ele>1092</ele>
        <time>2021-04-04T11:40:05Z</time>
      </trkpt>
      <trkpt lat="42.85777" lon="1.30678">
        <ele>1091</ele>
        <time>2021-04-04T11:40:14Z</time>
      </trkpt>
      <trkpt lat="42.85778" lon="1.30685">
        <ele>1090</ele>
        <time>2021-04-04T11:40:28Z</time>
      </trkpt>
      <trkpt lat="42.85783" lon="1.30687">
        <ele>1091</ele>
        <time>2021-04-04T11:40:52Z</time>
      </trkpt>
      <trkpt lat="42.85773" lon="1.3069">
        <ele>1092</ele>
        <time>2021-04-04T11:41:31Z</time>
      </trkpt>
      <trkpt lat="42.85756" lon="1.30691">
        <ele>1095</ele>
        <time>2021-04-04T11:41:43Z</time>
      </trkpt>
      <trkpt lat="42.85753" lon="1.30694">
        <ele>1096</ele>
        <time>2021-04-04T11:41:48Z</time>
      </trkpt>
      <trkpt lat="42.85741" lon="1.30698">
        <ele>1098</ele>
        <time>2021-04-04T11:41:58Z</time>
      </trkpt>
      <trkpt lat="42.85731" lon="1.30698">
        <ele>1100</ele>
        <time>2021-04-04T11:42:06Z</time>
      </trkpt>
      <trkpt lat="42.85725" lon="1.307">
        <ele>1100</ele>
        <time>2021-04-04T11:42:10Z</time>
      </trkpt>
      <trkpt lat="42.85721" lon="1.30705">
        <ele>1099</ele>
        <time>2021-04-04T11:42:14Z</time>
      </trkpt>
      <trkpt lat="42.85711" lon="1.30713">
        <ele>1099</ele>
        <time>2021-04-04T11:42:22Z</time>
      </trkpt>
      <trkpt lat="42.85708" lon="1.30718">
        <ele>1098</ele>
        <time>2021-04-04T11:42:27Z</time>
      </trkpt>
      <trkpt lat="42.85703" lon="1.30721">
        <ele>1098</ele>
        <time>2021-04-04T11:42:31Z</time>
      </trkpt>
      <trkpt lat="42.85695" lon="1.30729">
        <ele>1096</ele>
        <time>2021-04-04T11:42:40Z</time>
      </trkpt>
      <trkpt lat="42.8568" lon="1.30735">
        <ele>1092</ele>
        <time>2021-04-04T11:42:54Z</time>
      </trkpt>
      <trkpt lat="42.85675" lon="1.30736">
        <ele>1090</ele>
        <time>2021-04-04T11:42:58Z</time>
      </trkpt>
      <trkpt lat="42.85665" lon="1.30741">
        <ele>1087</ele>
        <time>2021-04-04T11:43:07Z</time>
      </trkpt>
      <trkpt lat="42.8566" lon="1.30742">
        <ele>1086</ele>
        <time>2021-04-04T11:43:11Z</time>
      </trkpt>
      <trkpt lat="42.85648" lon="1.30751">
        <ele>1082</ele>
        <time>2021-04-04T11:43:24Z</time>
      </trkpt>
      <trkpt lat="42.85639" lon="1.30754">
        <ele>1080</ele>
        <time>2021-04-04T11:43:32Z</time>
      </trkpt>
      <trkpt lat="42.85635" lon="1.30757">
        <ele>1079</ele>
        <time>2021-04-04T11:43:36Z</time>
      </trkpt>
      <trkpt lat="42.8563" lon="1.30759">
        <ele>1077</ele>
        <time>2021-04-04T11:43:41Z</time>
      </trkpt>
      <trkpt lat="42.85621" lon="1.30768">
        <ele>1074</ele>
        <time>2021-04-04T11:43:52Z</time>
      </trkpt>
      <trkpt lat="42.85615" lon="1.3078">
        <ele>1071</ele>
        <time>2021-04-04T11:43:59Z</time>
      </trkpt>
      <trkpt lat="42.85599" lon="1.30793">
        <ele>1065</ele>
        <time>2021-04-04T11:44:14Z</time>
      </trkpt>
      <trkpt lat="42.85589" lon="1.30794">
        <ele>1062</ele>
        <time>2021-04-04T11:44:23Z</time>
      </trkpt>
      <trkpt lat="42.85581" lon="1.308">
        <ele>1059</ele>
        <time>2021-04-04T11:44:32Z</time>
      </trkpt>
      <trkpt lat="42.85571" lon="1.30802">
        <ele>1058</ele>
        <time>2021-04-04T11:44:41Z</time>
      </trkpt>
      <trkpt lat="42.85537" lon="1.30793">
        <ele>1054</ele>
        <time>2021-04-04T11:45:12Z</time>
      </trkpt>
      <trkpt lat="42.85509" lon="1.30793">
        <ele>1045</ele>
        <time>2021-04-04T11:45:42Z</time>
      </trkpt>
      <trkpt lat="42.855" lon="1.30797">
        <ele>1042</ele>
        <time>2021-04-04T11:45:51Z</time>
      </trkpt>
      <trkpt lat="42.85491" lon="1.30807">
        <ele>1037</ele>
        <time>2021-04-04T11:46:02Z</time>
      </trkpt>
      <trkpt lat="42.8548" lon="1.30808">
        <ele>1032</ele>
        <time>2021-04-04T11:46:21Z</time>
      </trkpt>
      <trkpt lat="42.85472" lon="1.30817">
        <ele>1027</ele>
        <time>2021-04-04T11:46:37Z</time>
      </trkpt>
      <trkpt lat="42.85462" lon="1.30821">
        <ele>1024</ele>
        <time>2021-04-04T11:46:50Z</time>
      </trkpt>
      <trkpt lat="42.85445" lon="1.30832">
        <ele>1017</ele>
        <time>2021-04-04T11:47:14Z</time>
      </trkpt>
      <trkpt lat="42.85439" lon="1.30841">
        <ele>1016</ele>
        <time>2021-04-04T11:47:22Z</time>
      </trkpt>
      <trkpt lat="42.85428" lon="1.30842">
        <ele>1014</ele>
        <time>2021-04-04T11:47:32Z</time>
      </trkpt>
      <trkpt lat="42.85425" lon="1.30853">
        <ele>1012</ele>
        <time>2021-04-04T11:47:48Z</time>
      </trkpt>
      <trkpt lat="42.8542" lon="1.30849">
        <ele>1012</ele>
        <time>2021-04-04T11:48:00Z</time>
      </trkpt>
      <trkpt lat="42.85414" lon="1.30849">
        <ele>1012</ele>
        <time>2021-04-04T11:48:33Z</time>
      </trkpt>
      <trkpt lat="42.85409" lon="1.30853">
        <ele>1012</ele>
        <time>2021-04-04T11:48:39Z</time>
      </trkpt>
      <trkpt lat="42.85403" lon="1.30851">
        <ele>1012</ele>
        <time>2021-04-04T11:48:45Z</time>
      </trkpt>
      <trkpt lat="42.85401" lon="1.30844">
        <ele>1013</ele>
        <time>2021-04-04T11:48:55Z</time>
      </trkpt>
      <trkpt lat="42.85401" lon="1.30837">
        <ele>1013</ele>
        <time>2021-04-04T11:48:59Z</time>
      </trkpt>
      <trkpt lat="42.854" lon="1.30829">
        <ele>1011</ele>
        <time>2021-04-04T11:49:07Z</time>
      </trkpt>
      <trkpt lat="42.85399" lon="1.30832">
        <ele>1012</ele>
        <time>2021-04-04T11:51:16Z</time>
      </trkpt>
      <trkpt lat="42.854" lon="1.30839">
        <ele>1013</ele>
        <time>2021-04-04T11:51:20Z</time>
      </trkpt>
      <trkpt lat="42.85399" lon="1.30846">
        <ele>1014</ele>
        <time>2021-04-04T11:51:25Z</time>
      </trkpt>
      <trkpt lat="42.85389" lon="1.3085">
        <ele>1015</ele>
        <time>2021-04-04T11:51:37Z</time>
      </trkpt>
      <trkpt lat="42.85384" lon="1.30855">
        <ele>1015</ele>
        <time>2021-04-04T11:51:42Z</time>
      </trkpt>
      <trkpt lat="42.8536" lon="1.30867">
        <ele>1018</ele>
        <time>2021-04-04T11:52:02Z</time>
      </trkpt>
      <trkpt lat="42.8535" lon="1.30875">
        <ele>1019</ele>
        <time>2021-04-04T11:52:10Z</time>
      </trkpt>
      <trkpt lat="42.85339" lon="1.30876">
        <ele>1020</ele>
        <time>2021-04-04T11:52:18Z</time>
      </trkpt>
      <trkpt lat="42.85324" lon="1.30883">
        <ele>1022</ele>
        <time>2021-04-04T11:52:30Z</time>
      </trkpt>
      <trkpt lat="42.85304" lon="1.30885">
        <ele>1024</ele>
        <time>2021-04-04T11:52:46Z</time>
      </trkpt>
      <trkpt lat="42.85294" lon="1.3089">
        <ele>1025</ele>
        <time>2021-04-04T11:52:54Z</time>
      </trkpt>
      <trkpt lat="42.85275" lon="1.30891">
        <ele>1027</ele>
        <time>2021-04-04T11:53:08Z</time>
      </trkpt>
      <trkpt lat="42.85256" lon="1.30903">
        <ele>1029</ele>
        <time>2021-04-04T11:53:24Z</time>
      </trkpt>
      <trkpt lat="42.85251" lon="1.30904">
        <ele>1030</ele>
        <time>2021-04-04T11:53:28Z</time>
      </trkpt>
      <trkpt lat="42.85242" lon="1.3091">
        <ele>1031</ele>
        <time>2021-04-04T11:53:37Z</time>
      </trkpt>
      <trkpt lat="42.85237" lon="1.30913">
        <ele>1032</ele>
        <time>2021-04-04T11:53:41Z</time>
      </trkpt>
      <trkpt lat="42.85233" lon="1.30916">
        <ele>1033</ele>
        <time>2021-04-04T11:53:46Z</time>
      </trkpt>
      <trkpt lat="42.85227" lon="1.30927">
        <ele>1034</ele>
        <time>2021-04-04T11:53:54Z</time>
      </trkpt>
      <trkpt lat="42.85223" lon="1.30931">
        <ele>1034</ele>
        <time>2021-04-04T11:53:58Z</time>
      </trkpt>
      <trkpt lat="42.85218" lon="1.30932">
        <ele>1034</ele>
        <time>2021-04-04T11:54:02Z</time>
      </trkpt>
      <trkpt lat="42.85215" lon="1.30936">
        <ele>1034</ele>
        <time>2021-04-04T11:54:06Z</time>
      </trkpt>
      <trkpt lat="42.85205" lon="1.30941">
        <ele>1035</ele>
        <time>2021-04-04T11:54:14Z</time>
      </trkpt>
      <trkpt lat="42.85199" lon="1.30941">
        <ele>1036</ele>
        <time>2021-04-04T11:54:19Z</time>
      </trkpt>
      <trkpt lat="42.85195" lon="1.30944">
        <ele>1037</ele>
        <time>2021-04-04T11:54:24Z</time>
      </trkpt>
      <trkpt lat="42.8519" lon="1.30946">
        <ele>1037</ele>
        <time>2021-04-04T11:54:28Z</time>
      </trkpt>
      <trkpt lat="42.85181" lon="1.30954">
        <ele>1038</ele>
        <time>2021-04-04T11:54:37Z</time>
      </trkpt>
      <trkpt lat="42.85168" lon="1.30983">
        <ele>1040</ele>
        <time>2021-04-04T11:54:55Z</time>
      </trkpt>
      <trkpt lat="42.85152" lon="1.31005">
        <ele>1041</ele>
        <time>2021-04-04T11:55:10Z</time>
      </trkpt>
      <trkpt lat="42.8515" lon="1.31013">
        <ele>1042</ele>
        <time>2021-04-04T11:55:14Z</time>
      </trkpt>
      <trkpt lat="42.85141" lon="1.3104">
        <ele>1042</ele>
        <time>2021-04-04T11:55:29Z</time>
      </trkpt>
      <trkpt lat="42.85141" lon="1.31048">
        <ele>1042</ele>
        <time>2021-04-04T11:55:33Z</time>
      </trkpt>
      <trkpt lat="42.85142" lon="1.31054">
        <ele>1043</ele>
        <time>2021-04-04T11:55:36Z</time>
      </trkpt>
      <trkpt lat="42.85144" lon="1.31059">
        <ele>1043</ele>
        <time>2021-04-04T11:55:39Z</time>
      </trkpt>
      <trkpt lat="42.85149" lon="1.31073">
        <ele>1043</ele>
        <time>2021-04-04T11:55:47Z</time>
      </trkpt>
      <trkpt lat="42.85154" lon="1.31076">
        <ele>1043</ele>
        <time>2021-04-04T11:55:51Z</time>
      </trkpt>
      <trkpt lat="42.85159" lon="1.31078">
        <ele>1043</ele>
        <time>2021-04-04T11:55:54Z</time>
      </trkpt>
      <trkpt lat="42.85167" lon="1.31087">
        <ele>1044</ele>
        <time>2021-04-04T11:56:02Z</time>
      </trkpt>
      <trkpt lat="42.8517" lon="1.31093">
        <ele>1044</ele>
        <time>2021-04-04T11:56:06Z</time>
      </trkpt>
      <trkpt lat="42.85171" lon="1.31101">
        <ele>1044</ele>
        <time>2021-04-04T11:56:11Z</time>
      </trkpt>
      <trkpt lat="42.8516" lon="1.31139">
        <ele>1045</ele>
        <time>2021-04-04T11:56:34Z</time>
      </trkpt>
      <trkpt lat="42.85157" lon="1.31144">
        <ele>1045</ele>
        <time>2021-04-04T11:56:38Z</time>
      </trkpt>
      <trkpt lat="42.85146" lon="1.31146">
        <ele>1046</ele>
        <time>2021-04-04T11:56:46Z</time>
      </trkpt>
      <trkpt lat="42.85126" lon="1.31145">
        <ele>1046</ele>
        <time>2021-04-04T11:57:01Z</time>
      </trkpt>
      <trkpt lat="42.85109" lon="1.31159">
        <ele>1046</ele>
        <time>2021-04-04T11:57:23Z</time>
      </trkpt>
      <trkpt lat="42.85099" lon="1.31165">
        <ele>1047</ele>
        <time>2021-04-04T11:57:30Z</time>
      </trkpt>
      <trkpt lat="42.85095" lon="1.3117">
        <ele>1047</ele>
        <time>2021-04-04T11:57:34Z</time>
      </trkpt>
      <trkpt lat="42.85094" lon="1.31176">
        <ele>1047</ele>
        <time>2021-04-04T11:57:37Z</time>
      </trkpt>
      <trkpt lat="42.85094" lon="1.31184">
        <ele>1047</ele>
        <time>2021-04-04T11:57:40Z</time>
      </trkpt>
      <trkpt lat="42.85099" lon="1.31211">
        <ele>1047</ele>
        <time>2021-04-04T11:57:55Z</time>
      </trkpt>
      <trkpt lat="42.85106" lon="1.31221">
        <ele>1048</ele>
        <time>2021-04-04T11:58:03Z</time>
      </trkpt>
      <trkpt lat="42.85113" lon="1.31233">
        <ele>1048</ele>
        <time>2021-04-04T11:58:11Z</time>
      </trkpt>
      <trkpt lat="42.85117" lon="1.31245">
        <ele>1048</ele>
        <time>2021-04-04T11:58:18Z</time>
      </trkpt>
      <trkpt lat="42.85118" lon="1.31251">
        <ele>1048</ele>
        <time>2021-04-04T11:58:21Z</time>
      </trkpt>
      <trkpt lat="42.85118" lon="1.31257">
        <ele>1048</ele>
        <time>2021-04-04T11:58:24Z</time>
      </trkpt>
      <trkpt lat="42.85119" lon="1.31271">
        <ele>1049</ele>
        <time>2021-04-04T11:58:33Z</time>
      </trkpt>
      <trkpt lat="42.85115" lon="1.31277">
        <ele>1050</ele>
        <time>2021-04-04T11:58:38Z</time>
      </trkpt>
      <trkpt lat="42.8511" lon="1.31281">
        <ele>1050</ele>
        <time>2021-04-04T11:58:43Z</time>
      </trkpt>
      <trkpt lat="42.85101" lon="1.31279">
        <ele>1051</ele>
        <time>2021-04-04T11:58:51Z</time>
      </trkpt>
      <trkpt lat="42.85098" lon="1.31274">
        <ele>1051</ele>
        <time>2021-04-04T11:58:55Z</time>
      </trkpt>
      <trkpt lat="42.85092" lon="1.31273">
        <ele>1051</ele>
        <time>2021-04-04T11:59:00Z</time>
      </trkpt>
      <trkpt lat="42.85087" lon="1.31273">
        <ele>1052</ele>
        <time>2021-04-04T11:59:04Z</time>
      </trkpt>
      <trkpt lat="42.85077" lon="1.31267">
        <ele>1053</ele>
        <time>2021-04-04T11:59:12Z</time>
      </trkpt>
      <trkpt lat="42.8507" lon="1.31258">
        <ele>1053</ele>
        <time>2021-04-04T11:59:21Z</time>
      </trkpt>
      <trkpt lat="42.85065" lon="1.31256">
        <ele>1054</ele>
        <time>2021-04-04T11:59:25Z</time>
      </trkpt>
      <trkpt lat="42.85056" lon="1.31253">
        <ele>1055</ele>
        <time>2021-04-04T11:59:32Z</time>
      </trkpt>
      <trkpt lat="42.85041" lon="1.31248">
        <ele>1057</ele>
        <time>2021-04-04T11:59:43Z</time>
      </trkpt>
      <trkpt lat="42.85019" lon="1.3125">
        <ele>1059</ele>
        <time>2021-04-04T12:00:01Z</time>
      </trkpt>
      <trkpt lat="42.85007" lon="1.31248">
        <ele>1061</ele>
        <time>2021-04-04T12:00:10Z</time>
      </trkpt>
      <trkpt lat="42.85002" lon="1.31249">
        <ele>1061</ele>
        <time>2021-04-04T12:00:15Z</time>
      </trkpt>
      <trkpt lat="42.84997" lon="1.31247">
        <ele>1062</ele>
        <time>2021-04-04T12:00:19Z</time>
      </trkpt>
      <trkpt lat="42.84978" lon="1.31257">
        <ele>1065</ele>
        <time>2021-04-04T12:00:35Z</time>
      </trkpt>
      <trkpt lat="42.84961" lon="1.31289">
        <ele>1068</ele>
        <time>2021-04-04T12:00:59Z</time>
      </trkpt>
      <trkpt lat="42.84959" lon="1.31296">
        <ele>1069</ele>
        <time>2021-04-04T12:01:04Z</time>
      </trkpt>
      <trkpt lat="42.84959" lon="1.31303">
        <ele>1069</ele>
        <time>2021-04-04T12:01:09Z</time>
      </trkpt>
      <trkpt lat="42.84957" lon="1.31309">
        <ele>1070</ele>
        <time>2021-04-04T12:01:13Z</time>
      </trkpt>
      <trkpt lat="42.84954" lon="1.31315">
        <ele>1071</ele>
        <time>2021-04-04T12:01:18Z</time>
      </trkpt>
      <trkpt lat="42.84953" lon="1.31322">
        <ele>1072</ele>
        <time>2021-04-04T12:01:27Z</time>
      </trkpt>
      <trkpt lat="42.84952" lon="1.31334">
        <ele>1073</ele>
        <time>2021-04-04T12:01:44Z</time>
      </trkpt>
      <trkpt lat="42.8496" lon="1.31354">
        <ele>1077</ele>
        <time>2021-04-04T12:02:04Z</time>
      </trkpt>
      <trkpt lat="42.84966" lon="1.31374">
        <ele>1083</ele>
        <time>2021-04-04T12:02:36Z</time>
      </trkpt>
      <trkpt lat="42.84964" lon="1.31399">
        <ele>1089</ele>
        <time>2021-04-04T12:03:06Z</time>
      </trkpt>
      <trkpt lat="42.84963" lon="1.3141">
        <ele>1091</ele>
        <time>2021-04-04T12:03:18Z</time>
      </trkpt>
      <trkpt lat="42.84959" lon="1.31443">
        <ele>1095</ele>
        <time>2021-04-04T12:03:53Z</time>
      </trkpt>
      <trkpt lat="42.84956" lon="1.31479">
        <ele>1101</ele>
        <time>2021-04-04T12:04:19Z</time>
      </trkpt>
      <trkpt lat="42.84944" lon="1.31517">
        <ele>1105</ele>
        <time>2021-04-04T12:04:46Z</time>
      </trkpt>
      <trkpt lat="42.84941" lon="1.31531">
        <ele>1107</ele>
        <time>2021-04-04T12:04:56Z</time>
      </trkpt>
      <trkpt lat="42.84937" lon="1.31543">
        <ele>1109</ele>
        <time>2021-04-04T12:05:05Z</time>
      </trkpt>
      <trkpt lat="42.84934" lon="1.31547">
        <ele>1110</ele>
        <time>2021-04-04T12:05:09Z</time>
      </trkpt>
      <trkpt lat="42.8493" lon="1.3155">
        <ele>1111</ele>
        <time>2021-04-04T12:05:13Z</time>
      </trkpt>
      <trkpt lat="42.84912" lon="1.31575">
        <ele>1117</ele>
        <time>2021-04-04T12:05:41Z</time>
      </trkpt>
      <trkpt lat="42.849" lon="1.31579">
        <ele>1120</ele>
        <time>2021-04-04T12:05:56Z</time>
      </trkpt>
      <trkpt lat="42.84886" lon="1.31589">
        <ele>1123</ele>
        <time>2021-04-04T12:06:16Z</time>
      </trkpt>
      <trkpt lat="42.84882" lon="1.31594">
        <ele>1124</ele>
        <time>2021-04-04T12:06:22Z</time>
      </trkpt>
      <trkpt lat="42.84879" lon="1.31606">
        <ele>1126</ele>
        <time>2021-04-04T12:06:34Z</time>
      </trkpt>
      <trkpt lat="42.8488" lon="1.31617">
        <ele>1128</ele>
        <time>2021-04-04T12:06:43Z</time>
      </trkpt>
      <trkpt lat="42.84882" lon="1.31637">
        <ele>1131</ele>
        <time>2021-04-04T12:07:03Z</time>
      </trkpt>
      <trkpt lat="42.84881" lon="1.31643">
        <ele>1132</ele>
        <time>2021-04-04T12:07:08Z</time>
      </trkpt>
      <trkpt lat="42.84882" lon="1.31652">
        <ele>1133</ele>
        <time>2021-04-04T12:07:15Z</time>
      </trkpt>
      <trkpt lat="42.84882" lon="1.31665">
        <ele>1135</ele>
        <time>2021-04-04T12:07:26Z</time>
      </trkpt>
      <trkpt lat="42.84884" lon="1.31675">
        <ele>1136</ele>
        <time>2021-04-04T12:07:34Z</time>
      </trkpt>
      <trkpt lat="42.84883" lon="1.31684">
        <ele>1138</ele>
        <time>2021-04-04T12:07:42Z</time>
      </trkpt>
      <trkpt lat="42.84885" lon="1.31697">
        <ele>1140</ele>
        <time>2021-04-04T12:07:55Z</time>
      </trkpt>
      <trkpt lat="42.84887" lon="1.31712">
        <ele>1143</ele>
        <time>2021-04-04T12:08:13Z</time>
      </trkpt>
      <trkpt lat="42.8489" lon="1.31724">
        <ele>1145</ele>
        <time>2021-04-04T12:08:25Z</time>
      </trkpt>
      <trkpt lat="42.84891" lon="1.31744">
        <ele>1147</ele>
        <time>2021-04-04T12:08:41Z</time>
      </trkpt>
      <trkpt lat="42.84886" lon="1.31755">
        <ele>1149</ele>
        <time>2021-04-04T12:08:55Z</time>
      </trkpt>
      <trkpt lat="42.84881" lon="1.31768">
        <ele>1150</ele>
        <time>2021-04-04T12:09:04Z</time>
      </trkpt>
      <trkpt lat="42.84876" lon="1.31778">
        <ele>1150</ele>
        <time>2021-04-04T12:09:12Z</time>
      </trkpt>
      <trkpt lat="42.84856" lon="1.31821">
        <ele>1153</ele>
        <time>2021-04-04T12:09:42Z</time>
      </trkpt>
      <trkpt lat="42.84855" lon="1.31828">
        <ele>1154</ele>
        <time>2021-04-04T12:09:50Z</time>
      </trkpt>
      <trkpt lat="42.84852" lon="1.31839">
        <ele>1156</ele>
        <time>2021-04-04T12:10:02Z</time>
      </trkpt>
      <trkpt lat="42.84852" lon="1.31859">
        <ele>1160</ele>
        <time>2021-04-04T12:10:26Z</time>
      </trkpt>
      <trkpt lat="42.84854" lon="1.31875">
        <ele>1164</ele>
        <time>2021-04-04T12:10:50Z</time>
      </trkpt>
      <trkpt lat="42.8486" lon="1.31876">
        <ele>1165</ele>
        <time>2021-04-04T12:11:38Z</time>
      </trkpt>
      <trkpt lat="42.84865" lon="1.31877">
        <ele>1166</ele>
        <time>2021-04-04T12:11:44Z</time>
      </trkpt>
      <trkpt lat="42.8487" lon="1.31881">
        <ele>1167</ele>
        <time>2021-04-04T12:11:48Z</time>
      </trkpt>
      <trkpt lat="42.84897" lon="1.31893">
        <ele>1176</ele>
        <time>2021-04-04T12:12:42Z</time>
      </trkpt>
      <trkpt lat="42.84926" lon="1.31912">
        <ele>1182</ele>
        <time>2021-04-04T12:13:28Z</time>
      </trkpt>
      <trkpt lat="42.84935" lon="1.31922">
        <ele>1185</ele>
        <time>2021-04-04T12:13:46Z</time>
      </trkpt>
      <trkpt lat="42.8494" lon="1.31938">
        <ele>1187</ele>
        <time>2021-04-04T12:14:02Z</time>
      </trkpt>
      <trkpt lat="42.84948" lon="1.31948">
        <ele>1190</ele>
        <time>2021-04-04T12:14:20Z</time>
      </trkpt>
      <trkpt lat="42.84952" lon="1.31961">
        <ele>1193</ele>
        <time>2021-04-04T12:14:38Z</time>
      </trkpt>
      <trkpt lat="42.84958" lon="1.31971">
        <ele>1196</ele>
        <time>2021-04-04T12:14:56Z</time>
      </trkpt>
      <trkpt lat="42.84964" lon="1.3198">
        <ele>1199</ele>
        <time>2021-04-04T12:15:14Z</time>
      </trkpt>
      <trkpt lat="42.84962" lon="1.31992">
        <ele>1203</ele>
        <time>2021-04-04T12:15:38Z</time>
      </trkpt>
      <trkpt lat="42.84959" lon="1.32001">
        <ele>1205</ele>
        <time>2021-04-04T12:15:50Z</time>
      </trkpt>
      <trkpt lat="42.84955" lon="1.32009">
        <ele>1207</ele>
        <time>2021-04-04T12:16:02Z</time>
      </trkpt>
      <trkpt lat="42.84949" lon="1.32013">
        <ele>1209</ele>
        <time>2021-04-04T12:16:14Z</time>
      </trkpt>
      <trkpt lat="42.84945" lon="1.32021">
        <ele>1211</ele>
        <time>2021-04-04T12:16:26Z</time>
      </trkpt>
      <trkpt lat="42.84941" lon="1.3203">
        <ele>1213</ele>
        <time>2021-04-04T12:16:38Z</time>
      </trkpt>
      <trkpt lat="42.84927" lon="1.32045">
        <ele>1218</ele>
        <time>2021-04-04T12:17:14Z</time>
      </trkpt>
      <trkpt lat="42.84921" lon="1.32051">
        <ele>1220</ele>
        <time>2021-04-04T12:17:26Z</time>
      </trkpt>
      <trkpt lat="42.84919" lon="1.32058">
        <ele>1223</ele>
        <time>2021-04-04T12:17:44Z</time>
      </trkpt>
      <trkpt lat="42.84914" lon="1.32066">
        <ele>1225</ele>
        <time>2021-04-04T12:17:56Z</time>
      </trkpt>
      <trkpt lat="42.84913" lon="1.32076">
        <ele>1226</ele>
        <time>2021-04-04T12:18:08Z</time>
      </trkpt>
      <trkpt lat="42.84915" lon="1.32096">
        <ele>1228</ele>
        <time>2021-04-04T12:18:26Z</time>
      </trkpt>
      <trkpt lat="42.84914" lon="1.32113">
        <ele>1231</ele>
        <time>2021-04-04T12:18:52Z</time>
      </trkpt>
      <trkpt lat="42.84914" lon="1.32119">
        <ele>1232</ele>
        <time>2021-04-04T12:19:04Z</time>
      </trkpt>
      <trkpt lat="42.84909" lon="1.32135">
        <ele>1234</ele>
        <time>2021-04-04T12:19:26Z</time>
      </trkpt>
      <trkpt lat="42.84909" lon="1.32142">
        <ele>1235</ele>
        <time>2021-04-04T12:19:36Z</time>
      </trkpt>
      <trkpt lat="42.84907" lon="1.32155">
        <ele>1238</ele>
        <time>2021-04-04T12:19:57Z</time>
      </trkpt>
      <trkpt lat="42.84911" lon="1.32172">
        <ele>1241</ele>
        <time>2021-04-04T12:20:16Z</time>
      </trkpt>
      <trkpt lat="42.84916" lon="1.32192">
        <ele>1246</ele>
        <time>2021-04-04T12:20:48Z</time>
      </trkpt>
      <trkpt lat="42.84918" lon="1.32202">
        <ele>1248</ele>
        <time>2021-04-04T12:21:00Z</time>
      </trkpt>
      <trkpt lat="42.84922" lon="1.32211">
        <ele>1249</ele>
        <time>2021-04-04T12:21:12Z</time>
      </trkpt>
      <trkpt lat="42.84922" lon="1.3222">
        <ele>1250</ele>
        <time>2021-04-04T12:21:24Z</time>
      </trkpt>
      <trkpt lat="42.84914" lon="1.32228">
        <ele>1254</ele>
        <time>2021-04-04T12:21:48Z</time>
      </trkpt>
      <trkpt lat="42.84908" lon="1.32229">
        <ele>1255</ele>
        <time>2021-04-04T12:22:00Z</time>
      </trkpt>
      <trkpt lat="42.84901" lon="1.32228">
        <ele>1256</ele>
        <time>2021-04-04T12:22:12Z</time>
      </trkpt>
      <trkpt lat="42.84893" lon="1.32237">
        <ele>1257</ele>
        <time>2021-04-04T12:22:25Z</time>
      </trkpt>
      <trkpt lat="42.84886" lon="1.32238">
        <ele>1258</ele>
        <time>2021-04-04T12:22:32Z</time>
      </trkpt>
      <trkpt lat="42.84867" lon="1.32253">
        <ele>1259</ele>
        <time>2021-04-04T12:22:52Z</time>
      </trkpt>
      <trkpt lat="42.84854" lon="1.3227">
        <ele>1261</ele>
        <time>2021-04-04T12:23:10Z</time>
      </trkpt>
      <trkpt lat="42.84844" lon="1.32276">
        <ele>1261</ele>
        <time>2021-04-04T12:23:19Z</time>
      </trkpt>
      <trkpt lat="42.84838" lon="1.32279">
        <ele>1262</ele>
        <time>2021-04-04T12:23:33Z</time>
      </trkpt>
      <trkpt lat="42.84835" lon="1.32287">
        <ele>1264</ele>
        <time>2021-04-04T12:23:45Z</time>
      </trkpt>
      <trkpt lat="42.8483" lon="1.32296">
        <ele>1266</ele>
        <time>2021-04-04T12:23:57Z</time>
      </trkpt>
      <trkpt lat="42.84814" lon="1.32309">
        <ele>1272</ele>
        <time>2021-04-04T12:24:33Z</time>
      </trkpt>
      <trkpt lat="42.8481" lon="1.32315">
        <ele>1274</ele>
        <time>2021-04-04T12:24:45Z</time>
      </trkpt>
      <trkpt lat="42.84806" lon="1.32319">
        <ele>1274</ele>
        <time>2021-04-04T12:24:51Z</time>
      </trkpt>
      <trkpt lat="42.84801" lon="1.32324">
        <ele>1276</ele>
        <time>2021-04-04T12:25:03Z</time>
      </trkpt>
      <trkpt lat="42.84801" lon="1.3233">
        <ele>1277</ele>
        <time>2021-04-04T12:25:15Z</time>
      </trkpt>
      <trkpt lat="42.84798" lon="1.32346">
        <ele>1281</ele>
        <time>2021-04-04T12:25:41Z</time>
      </trkpt>
      <trkpt lat="42.84795" lon="1.32353">
        <ele>1283</ele>
        <time>2021-04-04T12:25:53Z</time>
      </trkpt>
      <trkpt lat="42.84784" lon="1.32362">
        <ele>1286</ele>
        <time>2021-04-04T12:26:17Z</time>
      </trkpt>
      <trkpt lat="42.84774" lon="1.32367">
        <ele>1288</ele>
        <time>2021-04-04T12:26:38Z</time>
      </trkpt>
      <trkpt lat="42.84769" lon="1.32373">
        <ele>1291</ele>
        <time>2021-04-04T12:26:53Z</time>
      </trkpt>
      <trkpt lat="42.84766" lon="1.32376">
        <ele>1292</ele>
        <time>2021-04-04T12:27:03Z</time>
      </trkpt>
      <trkpt lat="42.8476" lon="1.32376">
        <ele>1294</ele>
        <time>2021-04-04T12:27:14Z</time>
      </trkpt>
      <trkpt lat="42.84756" lon="1.3238">
        <ele>1294</ele>
        <time>2021-04-04T12:27:20Z</time>
      </trkpt>
      <trkpt lat="42.8475" lon="1.32381">
        <ele>1296</ele>
        <time>2021-04-04T12:27:32Z</time>
      </trkpt>
      <trkpt lat="42.84735" lon="1.32384">
        <ele>1301</ele>
        <time>2021-04-04T12:28:08Z</time>
      </trkpt>
      <trkpt lat="42.84731" lon="1.3239">
        <ele>1303</ele>
        <time>2021-04-04T12:28:20Z</time>
      </trkpt>
      <trkpt lat="42.84724" lon="1.32392">
        <ele>1305</ele>
        <time>2021-04-04T12:28:38Z</time>
      </trkpt>
      <trkpt lat="42.84719" lon="1.32396">
        <ele>1307</ele>
        <time>2021-04-04T12:28:50Z</time>
      </trkpt>
      <trkpt lat="42.84713" lon="1.32396">
        <ele>1310</ele>
        <time>2021-04-04T12:29:08Z</time>
      </trkpt>
      <trkpt lat="42.8471" lon="1.32401">
        <ele>1311</ele>
        <time>2021-04-04T12:29:20Z</time>
      </trkpt>
      <trkpt lat="42.84705" lon="1.32402">
        <ele>1314</ele>
        <time>2021-04-04T12:29:38Z</time>
      </trkpt>
      <trkpt lat="42.84698" lon="1.32407">
        <ele>1316</ele>
        <time>2021-04-04T12:29:56Z</time>
      </trkpt>
      <trkpt lat="42.84693" lon="1.32409">
        <ele>1318</ele>
        <time>2021-04-04T12:30:08Z</time>
      </trkpt>
      <trkpt lat="42.84685" lon="1.32412">
        <ele>1320</ele>
        <time>2021-04-04T12:30:20Z</time>
      </trkpt>
      <trkpt lat="42.84678" lon="1.32413">
        <ele>1322</ele>
        <time>2021-04-04T12:30:32Z</time>
      </trkpt>
      <trkpt lat="42.84665" lon="1.32411">
        <ele>1325</ele>
        <time>2021-04-04T12:30:56Z</time>
      </trkpt>
      <trkpt lat="42.84645" lon="1.32422">
        <ele>1329</ele>
        <time>2021-04-04T12:31:32Z</time>
      </trkpt>
      <trkpt lat="42.84639" lon="1.32427">
        <ele>1330</ele>
        <time>2021-04-04T12:32:06Z</time>
      </trkpt>
      <trkpt lat="42.84628" lon="1.32442">
        <ele>1332</ele>
        <time>2021-04-04T12:32:21Z</time>
      </trkpt>
      <trkpt lat="42.84624" lon="1.32447">
        <ele>1332</ele>
        <time>2021-04-04T12:32:25Z</time>
      </trkpt>
      <trkpt lat="42.84621" lon="1.3246">
        <ele>1333</ele>
        <time>2021-04-04T12:32:33Z</time>
      </trkpt>
      <trkpt lat="42.8462" lon="1.32468">
        <ele>1333</ele>
        <time>2021-04-04T12:32:37Z</time>
      </trkpt>
      <trkpt lat="42.8461" lon="1.32485">
        <ele>1333</ele>
        <time>2021-04-04T12:32:49Z</time>
      </trkpt>
      <trkpt lat="42.84606" lon="1.32489">
        <ele>1334</ele>
        <time>2021-04-04T12:32:53Z</time>
      </trkpt>
      <trkpt lat="42.8459" lon="1.32497">
        <ele>1334</ele>
        <time>2021-04-04T12:33:05Z</time>
      </trkpt>
      <trkpt lat="42.84585" lon="1.32501">
        <ele>1334</ele>
        <time>2021-04-04T12:33:09Z</time>
      </trkpt>
      <trkpt lat="42.84575" lon="1.32506">
        <ele>1335</ele>
        <time>2021-04-04T12:33:17Z</time>
      </trkpt>
      <trkpt lat="42.84567" lon="1.32516">
        <ele>1335</ele>
        <time>2021-04-04T12:33:25Z</time>
      </trkpt>
      <trkpt lat="42.84562" lon="1.32529">
        <ele>1335</ele>
        <time>2021-04-04T12:33:33Z</time>
      </trkpt>
      <trkpt lat="42.84561" lon="1.32536">
        <ele>1335</ele>
        <time>2021-04-04T12:33:36Z</time>
      </trkpt>
      <trkpt lat="42.84555" lon="1.32549">
        <ele>1335</ele>
        <time>2021-04-04T12:33:44Z</time>
      </trkpt>
      <trkpt lat="42.84551" lon="1.32562">
        <ele>1336</ele>
        <time>2021-04-04T12:33:52Z</time>
      </trkpt>
      <trkpt lat="42.84547" lon="1.32567">
        <ele>1336</ele>
        <time>2021-04-04T12:33:56Z</time>
      </trkpt>
      <trkpt lat="42.84526" lon="1.32592">
        <ele>1337</ele>
        <time>2021-04-04T12:34:16Z</time>
      </trkpt>
      <trkpt lat="42.8452" lon="1.32604">
        <ele>1337</ele>
        <time>2021-04-04T12:34:24Z</time>
      </trkpt>
      <trkpt lat="42.845" lon="1.32625">
        <ele>1338</ele>
        <time>2021-04-04T12:34:41Z</time>
      </trkpt>
      <trkpt lat="42.84497" lon="1.32631">
        <ele>1338</ele>
        <time>2021-04-04T12:34:45Z</time>
      </trkpt>
      <trkpt lat="42.84495" lon="1.32645">
        <ele>1338</ele>
        <time>2021-04-04T12:34:53Z</time>
      </trkpt>
      <trkpt lat="42.84492" lon="1.32658">
        <ele>1339</ele>
        <time>2021-04-04T12:35:02Z</time>
      </trkpt>
      <trkpt lat="42.84489" lon="1.32665">
        <ele>1339</ele>
        <time>2021-04-04T12:35:06Z</time>
      </trkpt>
      <trkpt lat="42.84488" lon="1.3267">
        <ele>1340</ele>
        <time>2021-04-04T12:35:20Z</time>
      </trkpt>
      <trkpt lat="42.84485" lon="1.32679">
        <ele>1340</ele>
        <time>2021-04-04T12:35:32Z</time>
      </trkpt>
      <trkpt lat="42.84482" lon="1.32682">
        <ele>1348</ele>
        <time>2021-04-04T12:49:14Z</time>
      </trkpt>
      <trkpt lat="42.84477" lon="1.32675">
        <ele>1351</ele>
        <time>2021-04-04T12:49:32Z</time>
      </trkpt>
      <trkpt lat="42.84471" lon="1.32674">
        <ele>1352</ele>
        <time>2021-04-04T12:49:39Z</time>
      </trkpt>
      <trkpt lat="42.84458" lon="1.3268">
        <ele>1357</ele>
        <time>2021-04-04T12:49:59Z</time>
      </trkpt>
      <trkpt lat="42.84452" lon="1.32685">
        <ele>1359</ele>
        <time>2021-04-04T12:50:11Z</time>
      </trkpt>
      <trkpt lat="42.84446" lon="1.3269">
        <ele>1361</ele>
        <time>2021-04-04T12:50:23Z</time>
      </trkpt>
      <trkpt lat="42.84436" lon="1.32701">
        <ele>1364</ele>
        <time>2021-04-04T12:50:40Z</time>
      </trkpt>
      <trkpt lat="42.84402" lon="1.32726">
        <ele>1367</ele>
        <time>2021-04-04T12:51:15Z</time>
      </trkpt>
      <trkpt lat="42.84397" lon="1.32728">
        <ele>1367</ele>
        <time>2021-04-04T12:51:19Z</time>
      </trkpt>
      <trkpt lat="42.84388" lon="1.32735">
        <ele>1368</ele>
        <time>2021-04-04T12:51:27Z</time>
      </trkpt>
      <trkpt lat="42.84383" lon="1.32737">
        <ele>1368</ele>
        <time>2021-04-04T12:51:31Z</time>
      </trkpt>
      <trkpt lat="42.8438" lon="1.32741">
        <ele>1368</ele>
        <time>2021-04-04T12:51:35Z</time>
      </trkpt>
      <trkpt lat="42.84359" lon="1.32756">
        <ele>1370</ele>
        <time>2021-04-04T12:51:55Z</time>
      </trkpt>
      <trkpt lat="42.84355" lon="1.32761">
        <ele>1370</ele>
        <time>2021-04-04T12:51:59Z</time>
      </trkpt>
      <trkpt lat="42.84345" lon="1.32767">
        <ele>1371</ele>
        <time>2021-04-04T12:52:07Z</time>
      </trkpt>
      <trkpt lat="42.84335" lon="1.32771">
        <ele>1371</ele>
        <time>2021-04-04T12:52:15Z</time>
      </trkpt>
      <trkpt lat="42.84318" lon="1.32787">
        <ele>1372</ele>
        <time>2021-04-04T12:52:30Z</time>
      </trkpt>
      <trkpt lat="42.84313" lon="1.32789">
        <ele>1372</ele>
        <time>2021-04-04T12:52:34Z</time>
      </trkpt>
      <trkpt lat="42.84279" lon="1.32822">
        <ele>1374</ele>
        <time>2021-04-04T12:53:08Z</time>
      </trkpt>
      <trkpt lat="42.84257" lon="1.32839">
        <ele>1376</ele>
        <time>2021-04-04T12:53:26Z</time>
      </trkpt>
      <trkpt lat="42.84247" lon="1.32854">
        <ele>1376</ele>
        <time>2021-04-04T12:53:37Z</time>
      </trkpt>
      <trkpt lat="42.84244" lon="1.32859">
        <ele>1377</ele>
        <time>2021-04-04T12:53:41Z</time>
      </trkpt>
      <trkpt lat="42.84221" lon="1.32895">
        <ele>1380</ele>
        <time>2021-04-04T12:54:12Z</time>
      </trkpt>
      <trkpt lat="42.84216" lon="1.32897">
        <ele>1380</ele>
        <time>2021-04-04T12:54:16Z</time>
      </trkpt>
      <trkpt lat="42.84212" lon="1.32896">
        <ele>1380</ele>
        <time>2021-04-04T12:54:21Z</time>
      </trkpt>
      <trkpt lat="42.84206" lon="1.32896">
        <ele>1378</ele>
        <time>2021-04-04T12:54:29Z</time>
      </trkpt>
      <trkpt lat="42.84201" lon="1.32898">
        <ele>1377</ele>
        <time>2021-04-04T12:54:34Z</time>
      </trkpt>
      <trkpt lat="42.84196" lon="1.32903">
        <ele>1377</ele>
        <time>2021-04-04T12:54:48Z</time>
      </trkpt>
      <trkpt lat="42.84191" lon="1.32893">
        <ele>1377</ele>
        <time>2021-04-04T12:55:30Z</time>
      </trkpt>
      <trkpt lat="42.84194" lon="1.32873">
        <ele>1378</ele>
        <time>2021-04-04T12:55:42Z</time>
      </trkpt>
      <trkpt lat="42.84191" lon="1.3286">
        <ele>1378</ele>
        <time>2021-04-04T12:55:49Z</time>
      </trkpt>
      <trkpt lat="42.84188" lon="1.32855">
        <ele>1377</ele>
        <time>2021-04-04T12:55:53Z</time>
      </trkpt>
      <trkpt lat="42.84184" lon="1.3285">
        <ele>1377</ele>
        <time>2021-04-04T12:55:57Z</time>
      </trkpt>
      <trkpt lat="42.84179" lon="1.32837">
        <ele>1377</ele>
        <time>2021-04-04T12:56:05Z</time>
      </trkpt>
      <trkpt lat="42.84176" lon="1.32818">
        <ele>1376</ele>
        <time>2021-04-04T12:56:17Z</time>
      </trkpt>
      <trkpt lat="42.84179" lon="1.32805">
        <ele>1376</ele>
        <time>2021-04-04T12:56:25Z</time>
      </trkpt>
      <trkpt lat="42.84176" lon="1.32797">
        <ele>1376</ele>
        <time>2021-04-04T12:56:32Z</time>
      </trkpt>
      <trkpt lat="42.84174" lon="1.32784">
        <ele>1375</ele>
        <time>2021-04-04T12:56:40Z</time>
      </trkpt>
      <trkpt lat="42.84176" lon="1.32776">
        <ele>1375</ele>
        <time>2021-04-04T12:56:44Z</time>
      </trkpt>
      <trkpt lat="42.84174" lon="1.3277">
        <ele>1375</ele>
        <time>2021-04-04T12:56:49Z</time>
      </trkpt>
      <trkpt lat="42.84167" lon="1.32738">
        <ele>1379</ele>
        <time>2021-04-04T12:57:16Z</time>
      </trkpt>
      <trkpt lat="42.84162" lon="1.32725">
        <ele>1382</ele>
        <time>2021-04-04T12:57:31Z</time>
      </trkpt>
      <trkpt lat="42.84154" lon="1.32714">
        <ele>1386</ele>
        <time>2021-04-04T12:57:49Z</time>
      </trkpt>
      <trkpt lat="42.84153" lon="1.327">
        <ele>1390</ele>
        <time>2021-04-04T12:58:13Z</time>
      </trkpt>
      <trkpt lat="42.84138" lon="1.32674">
        <ele>1401</ele>
        <time>2021-04-04T12:59:13Z</time>
      </trkpt>
      <trkpt lat="42.84138" lon="1.3266">
        <ele>1406</ele>
        <time>2021-04-04T12:59:43Z</time>
      </trkpt>
      <trkpt lat="42.84138" lon="1.32645">
        <ele>1408</ele>
        <time>2021-04-04T13:00:01Z</time>
      </trkpt>
      <trkpt lat="42.84117" lon="1.32633">
        <ele>1413</ele>
        <time>2021-04-04T13:00:31Z</time>
      </trkpt>
      <trkpt lat="42.8411" lon="1.3263">
        <ele>1414</ele>
        <time>2021-04-04T13:00:43Z</time>
      </trkpt>
      <trkpt lat="42.84107" lon="1.32625">
        <ele>1414</ele>
        <time>2021-04-04T13:01:01Z</time>
      </trkpt>
      <trkpt lat="42.84103" lon="1.32629">
        <ele>1414</ele>
        <time>2021-04-04T13:01:07Z</time>
      </trkpt>
      <trkpt lat="42.84097" lon="1.32638">
        <ele>1416</ele>
        <time>2021-04-04T13:01:20Z</time>
      </trkpt>
      <trkpt lat="42.84095" lon="1.32645">
        <ele>1417</ele>
        <time>2021-04-04T13:01:25Z</time>
      </trkpt>
      <trkpt lat="42.84092" lon="1.32649">
        <ele>1419</ele>
        <time>2021-04-04T13:01:33Z</time>
      </trkpt>
      <trkpt lat="42.84087" lon="1.32656">
        <ele>1420</ele>
        <time>2021-04-04T13:02:04Z</time>
      </trkpt>
      <trkpt lat="42.84082" lon="1.32666">
        <ele>1420</ele>
        <time>2021-04-04T13:02:13Z</time>
      </trkpt>
      <trkpt lat="42.84078" lon="1.32671">
        <ele>1420</ele>
        <time>2021-04-04T13:02:26Z</time>
      </trkpt>
      <trkpt lat="42.84075" lon="1.32681">
        <ele>1421</ele>
        <time>2021-04-04T13:02:37Z</time>
      </trkpt>
      <trkpt lat="42.8407" lon="1.32687">
        <ele>1423</ele>
        <time>2021-04-04T13:02:47Z</time>
      </trkpt>
      <trkpt lat="42.84084" lon="1.32689">
        <ele>1427</ele>
        <time>2021-04-04T13:03:07Z</time>
      </trkpt>
      <trkpt lat="42.84079" lon="1.32712">
        <ele>1433</ele>
        <time>2021-04-04T13:03:41Z</time>
      </trkpt>
      <trkpt lat="42.84066" lon="1.32735">
        <ele>1440</ele>
        <time>2021-04-04T13:04:29Z</time>
      </trkpt>
      <trkpt lat="42.84065" lon="1.32742">
        <ele>1441</ele>
        <time>2021-04-04T13:04:35Z</time>
      </trkpt>
      <trkpt lat="42.84062" lon="1.32749">
        <ele>1443</ele>
        <time>2021-04-04T13:04:47Z</time>
      </trkpt>
      <trkpt lat="42.8406" lon="1.32755">
        <ele>1444</ele>
        <time>2021-04-04T13:04:59Z</time>
      </trkpt>
      <trkpt lat="42.84055" lon="1.32759">
        <ele>1447</ele>
        <time>2021-04-04T13:05:17Z</time>
      </trkpt>
      <trkpt lat="42.84054" lon="1.32765">
        <ele>1448</ele>
        <time>2021-04-04T13:05:23Z</time>
      </trkpt>
      <trkpt lat="42.8405" lon="1.32769">
        <ele>1450</ele>
        <time>2021-04-04T13:05:41Z</time>
      </trkpt>
      <trkpt lat="42.84048" lon="1.32775">
        <ele>1452</ele>
        <time>2021-04-04T13:05:53Z</time>
      </trkpt>
      <trkpt lat="42.84037" lon="1.32793">
        <ele>1458</ele>
        <time>2021-04-04T13:06:32Z</time>
      </trkpt>
      <trkpt lat="42.84032" lon="1.32803">
        <ele>1460</ele>
        <time>2021-04-04T13:06:50Z</time>
      </trkpt>
      <trkpt lat="42.84027" lon="1.32815">
        <ele>1464</ele>
        <time>2021-04-04T13:07:14Z</time>
      </trkpt>
      <trkpt lat="42.84021" lon="1.32818">
        <ele>1467</ele>
        <time>2021-04-04T13:07:32Z</time>
      </trkpt>
      <trkpt lat="42.84018" lon="1.32828">
        <ele>1469</ele>
        <time>2021-04-04T13:07:44Z</time>
      </trkpt>
      <trkpt lat="42.84001" lon="1.3284">
        <ele>1473</ele>
        <time>2021-04-04T13:08:20Z</time>
      </trkpt>
      <trkpt lat="42.84" lon="1.32847">
        <ele>1474</ele>
        <time>2021-04-04T13:08:32Z</time>
      </trkpt>
      <trkpt lat="42.84004" lon="1.32873">
        <ele>1480</ele>
        <time>2021-04-04T13:09:08Z</time>
      </trkpt>
      <trkpt lat="42.84001" lon="1.32881">
        <ele>1483</ele>
        <time>2021-04-04T13:09:26Z</time>
      </trkpt>
      <trkpt lat="42.83999" lon="1.32887">
        <ele>1484</ele>
        <time>2021-04-04T13:09:38Z</time>
      </trkpt>
      <trkpt lat="42.84" lon="1.32893">
        <ele>1486</ele>
        <time>2021-04-04T13:09:49Z</time>
      </trkpt>
      <trkpt lat="42.83999" lon="1.329">
        <ele>1488</ele>
        <time>2021-04-04T13:10:04Z</time>
      </trkpt>
      <trkpt lat="42.84" lon="1.32907">
        <ele>1489</ele>
        <time>2021-04-04T13:10:14Z</time>
      </trkpt>
      <trkpt lat="42.83998" lon="1.32913">
        <ele>1491</ele>
        <time>2021-04-04T13:10:24Z</time>
      </trkpt>
      <trkpt lat="42.83996" lon="1.3292">
        <ele>1493</ele>
        <time>2021-04-04T13:10:35Z</time>
      </trkpt>
      <trkpt lat="42.83994" lon="1.32928">
        <ele>1495</ele>
        <time>2021-04-04T13:10:47Z</time>
      </trkpt>
      <trkpt lat="42.8399" lon="1.32935">
        <ele>1498</ele>
        <time>2021-04-04T13:11:05Z</time>
      </trkpt>
      <trkpt lat="42.83988" lon="1.32943">
        <ele>1501</ele>
        <time>2021-04-04T13:11:23Z</time>
      </trkpt>
      <trkpt lat="42.83985" lon="1.32948">
        <ele>1502</ele>
        <time>2021-04-04T13:11:35Z</time>
      </trkpt>
      <trkpt lat="42.8398" lon="1.32951">
        <ele>1504</ele>
        <time>2021-04-04T13:11:47Z</time>
      </trkpt>
      <trkpt lat="42.83979" lon="1.32957">
        <ele>1506</ele>
        <time>2021-04-04T13:11:59Z</time>
      </trkpt>
      <trkpt lat="42.83972" lon="1.32971">
        <ele>1510</ele>
        <time>2021-04-04T13:12:29Z</time>
      </trkpt>
      <trkpt lat="42.8397" lon="1.32977">
        <ele>1512</ele>
        <time>2021-04-04T13:12:41Z</time>
      </trkpt>
      <trkpt lat="42.8397" lon="1.32984">
        <ele>1514</ele>
        <time>2021-04-04T13:12:53Z</time>
      </trkpt>
      <trkpt lat="42.83966" lon="1.32997">
        <ele>1518</ele>
        <time>2021-04-04T13:13:17Z</time>
      </trkpt>
      <trkpt lat="42.83961" lon="1.33002">
        <ele>1520</ele>
        <time>2021-04-04T13:13:29Z</time>
      </trkpt>
      <trkpt lat="42.83959" lon="1.33018">
        <ele>1523</ele>
        <time>2021-04-04T13:13:53Z</time>
      </trkpt>
      <trkpt lat="42.83953" lon="1.33041">
        <ele>1528</ele>
        <time>2021-04-04T13:14:29Z</time>
      </trkpt>
      <trkpt lat="42.8395" lon="1.33046">
        <ele>1529</ele>
        <time>2021-04-04T13:14:41Z</time>
      </trkpt>
      <trkpt lat="42.83948" lon="1.33064">
        <ele>1533</ele>
        <time>2021-04-04T13:15:05Z</time>
      </trkpt>
      <trkpt lat="42.83943" lon="1.33075">
        <ele>1533</ele>
        <time>2021-04-04T13:15:17Z</time>
      </trkpt>
      <trkpt lat="42.83942" lon="1.33086">
        <ele>1534</ele>
        <time>2021-04-04T13:15:29Z</time>
      </trkpt>
      <trkpt lat="42.8394" lon="1.33113">
        <ele>1538</ele>
        <time>2021-04-04T13:16:05Z</time>
      </trkpt>
      <trkpt lat="42.83937" lon="1.33124">
        <ele>1540</ele>
        <time>2021-04-04T13:16:17Z</time>
      </trkpt>
      <trkpt lat="42.83935" lon="1.33134">
        <ele>1542</ele>
        <time>2021-04-04T13:16:29Z</time>
      </trkpt>
      <trkpt lat="42.83937" lon="1.33141">
        <ele>1544</ele>
        <time>2021-04-04T13:16:41Z</time>
      </trkpt>
      <trkpt lat="42.83941" lon="1.33147">
        <ele>1545</ele>
        <time>2021-04-04T13:16:53Z</time>
      </trkpt>
      <trkpt lat="42.83941" lon="1.33154">
        <ele>1547</ele>
        <time>2021-04-04T13:17:03Z</time>
      </trkpt>
      <trkpt lat="42.83944" lon="1.33177">
        <ele>1553</ele>
        <time>2021-04-04T13:17:44Z</time>
      </trkpt>
      <trkpt lat="42.83949" lon="1.33198">
        <ele>1559</ele>
        <time>2021-04-04T13:18:26Z</time>
      </trkpt>
      <trkpt lat="42.83951" lon="1.33204">
        <ele>1561</ele>
        <time>2021-04-04T13:18:38Z</time>
      </trkpt>
      <trkpt lat="42.83958" lon="1.33225">
        <ele>1569</ele>
        <time>2021-04-04T13:19:26Z</time>
      </trkpt>
      <trkpt lat="42.83961" lon="1.3323">
        <ele>1571</ele>
        <time>2021-04-04T13:19:38Z</time>
      </trkpt>
      <trkpt lat="42.83963" lon="1.33235">
        <ele>1573</ele>
        <time>2021-04-04T13:19:50Z</time>
      </trkpt>
      <trkpt lat="42.83965" lon="1.33244">
        <ele>1575</ele>
        <time>2021-04-04T13:20:08Z</time>
      </trkpt>
      <trkpt lat="42.83967" lon="1.33259">
        <ele>1580</ele>
        <time>2021-04-04T13:21:20Z</time>
      </trkpt>
      <trkpt lat="42.8397" lon="1.33266">
        <ele>1583</ele>
        <time>2021-04-04T13:21:38Z</time>
      </trkpt>
      <trkpt lat="42.83971" lon="1.33273">
        <ele>1585</ele>
        <time>2021-04-04T13:21:50Z</time>
      </trkpt>
      <trkpt lat="42.83974" lon="1.33279">
        <ele>1587</ele>
        <time>2021-04-04T13:22:02Z</time>
      </trkpt>
      <trkpt lat="42.83976" lon="1.33292">
        <ele>1590</ele>
        <time>2021-04-04T13:22:26Z</time>
      </trkpt>
      <trkpt lat="42.83978" lon="1.33298">
        <ele>1593</ele>
        <time>2021-04-04T13:22:38Z</time>
      </trkpt>
      <trkpt lat="42.83973" lon="1.33314">
        <ele>1599</ele>
        <time>2021-04-04T13:23:14Z</time>
      </trkpt>
      <trkpt lat="42.83969" lon="1.33319">
        <ele>1602</ele>
        <time>2021-04-04T13:23:32Z</time>
      </trkpt>
      <trkpt lat="42.83958" lon="1.33327">
        <ele>1607</ele>
        <time>2021-04-04T13:24:02Z</time>
      </trkpt>
      <trkpt lat="42.83955" lon="1.33332">
        <ele>1610</ele>
        <time>2021-04-04T13:24:18Z</time>
      </trkpt>
      <trkpt lat="42.83954" lon="1.33338">
        <ele>1612</ele>
        <time>2021-04-04T13:24:28Z</time>
      </trkpt>
      <trkpt lat="42.83947" lon="1.33357">
        <ele>1618</ele>
        <time>2021-04-04T13:25:06Z</time>
      </trkpt>
      <trkpt lat="42.83946" lon="1.33363">
        <ele>1619</ele>
        <time>2021-04-04T13:25:18Z</time>
      </trkpt>
      <trkpt lat="42.83947" lon="1.33371">
        <ele>1621</ele>
        <time>2021-04-04T13:26:18Z</time>
      </trkpt>
      <trkpt lat="42.8395" lon="1.33378">
        <ele>1622</ele>
        <time>2021-04-04T13:26:30Z</time>
      </trkpt>
      <trkpt lat="42.83953" lon="1.33382">
        <ele>1623</ele>
        <time>2021-04-04T13:26:36Z</time>
      </trkpt>
      <trkpt lat="42.83956" lon="1.33399">
        <ele>1627</ele>
        <time>2021-04-04T13:27:00Z</time>
      </trkpt>
      <trkpt lat="42.83952" lon="1.33425">
        <ele>1634</ele>
        <time>2021-04-04T13:27:36Z</time>
      </trkpt>
      <trkpt lat="42.83959" lon="1.3345">
        <ele>1639</ele>
        <time>2021-04-04T13:28:12Z</time>
      </trkpt>
      <trkpt lat="42.83964" lon="1.33454">
        <ele>1640</ele>
        <time>2021-04-04T13:28:18Z</time>
      </trkpt>
      <trkpt lat="42.83969" lon="1.33456">
        <ele>1640</ele>
        <time>2021-04-04T13:28:24Z</time>
      </trkpt>
      <trkpt lat="42.83974" lon="1.33461">
        <ele>1640</ele>
        <time>2021-04-04T13:28:32Z</time>
      </trkpt>
      <trkpt lat="42.8399" lon="1.33486">
        <ele>1644</ele>
        <time>2021-04-04T13:29:08Z</time>
      </trkpt>
      <trkpt lat="42.83996" lon="1.33491">
        <ele>1646</ele>
        <time>2021-04-04T13:29:20Z</time>
      </trkpt>
      <trkpt lat="42.83999" lon="1.33498">
        <ele>1647</ele>
        <time>2021-04-04T13:29:32Z</time>
      </trkpt>
      <trkpt lat="42.84014" lon="1.33519">
        <ele>1653</ele>
        <time>2021-04-04T13:30:08Z</time>
      </trkpt>
      <trkpt lat="42.84019" lon="1.33524">
        <ele>1655</ele>
        <time>2021-04-04T13:30:20Z</time>
      </trkpt>
      <trkpt lat="42.84026" lon="1.33525">
        <ele>1657</ele>
        <time>2021-04-04T13:30:32Z</time>
      </trkpt>
      <trkpt lat="42.84033" lon="1.33527">
        <ele>1658</ele>
        <time>2021-04-04T13:30:44Z</time>
      </trkpt>
      <trkpt lat="42.84042" lon="1.33528">
        <ele>1659</ele>
        <time>2021-04-04T13:30:56Z</time>
      </trkpt>
      <trkpt lat="42.84048" lon="1.33532">
        <ele>1660</ele>
        <time>2021-04-04T13:31:04Z</time>
      </trkpt>
      <trkpt lat="42.84053" lon="1.33534">
        <ele>1660</ele>
        <time>2021-04-04T13:31:08Z</time>
      </trkpt>
      <trkpt lat="42.84062" lon="1.33538">
        <ele>1660</ele>
        <time>2021-04-04T13:31:16Z</time>
      </trkpt>
      <trkpt lat="42.84082" lon="1.33555">
        <ele>1661</ele>
        <time>2021-04-04T13:31:37Z</time>
      </trkpt>
      <trkpt lat="42.84094" lon="1.33567">
        <ele>1663</ele>
        <time>2021-04-04T13:31:54Z</time>
      </trkpt>
      <trkpt lat="42.841" lon="1.33575">
        <ele>1665</ele>
        <time>2021-04-04T13:32:04Z</time>
      </trkpt>
      <trkpt lat="42.84123" lon="1.33598">
        <ele>1668</ele>
        <time>2021-04-04T13:32:37Z</time>
      </trkpt>
      <trkpt lat="42.84127" lon="1.33601">
        <ele>1668</ele>
        <time>2021-04-04T13:32:42Z</time>
      </trkpt>
      <trkpt lat="42.84132" lon="1.33603">
        <ele>1669</ele>
        <time>2021-04-04T13:32:47Z</time>
      </trkpt>
      <trkpt lat="42.84136" lon="1.33606">
        <ele>1669</ele>
        <time>2021-04-04T13:32:52Z</time>
      </trkpt>
      <trkpt lat="42.84141" lon="1.33608">
        <ele>1669</ele>
        <time>2021-04-04T13:32:57Z</time>
      </trkpt>
      <trkpt lat="42.84143" lon="1.33614">
        <ele>1670</ele>
        <time>2021-04-04T13:33:25Z</time>
      </trkpt>
      <trkpt lat="42.84146" lon="1.33622">
        <ele>1673</ele>
        <time>2021-04-04T13:33:37Z</time>
      </trkpt>
      <trkpt lat="42.84153" lon="1.33627">
        <ele>1676</ele>
        <time>2021-04-04T13:33:48Z</time>
      </trkpt>
      <trkpt lat="42.84158" lon="1.33629">
        <ele>1676</ele>
        <time>2021-04-04T13:33:53Z</time>
      </trkpt>
      <trkpt lat="42.84163" lon="1.33636">
        <ele>1677</ele>
        <time>2021-04-04T13:34:04Z</time>
      </trkpt>
      <trkpt lat="42.8417" lon="1.33643">
        <ele>1679</ele>
        <time>2021-04-04T13:34:16Z</time>
      </trkpt>
      <trkpt lat="42.84183" lon="1.33665">
        <ele>1684</ele>
        <time>2021-04-04T13:34:52Z</time>
      </trkpt>
      <trkpt lat="42.84188" lon="1.3367">
        <ele>1686</ele>
        <time>2021-04-04T13:35:04Z</time>
      </trkpt>
      <trkpt lat="42.84191" lon="1.33677">
        <ele>1688</ele>
        <time>2021-04-04T13:35:16Z</time>
      </trkpt>
      <trkpt lat="42.84193" lon="1.33686">
        <ele>1690</ele>
        <time>2021-04-04T13:35:28Z</time>
      </trkpt>
      <trkpt lat="42.84197" lon="1.33698">
        <ele>1694</ele>
        <time>2021-04-04T13:35:52Z</time>
      </trkpt>
      <trkpt lat="42.84197" lon="1.33706">
        <ele>1695</ele>
        <time>2021-04-04T13:36:04Z</time>
      </trkpt>
      <trkpt lat="42.84201" lon="1.3371">
        <ele>1697</ele>
        <time>2021-04-04T13:36:16Z</time>
      </trkpt>
      <trkpt lat="42.84214" lon="1.33731">
        <ele>1703</ele>
        <time>2021-04-04T13:36:58Z</time>
      </trkpt>
      <trkpt lat="42.84218" lon="1.33735">
        <ele>1705</ele>
        <time>2021-04-04T13:37:46Z</time>
      </trkpt>
      <trkpt lat="42.84225" lon="1.33738">
        <ele>1706</ele>
        <time>2021-04-04T13:37:58Z</time>
      </trkpt>
      <trkpt lat="42.8423" lon="1.33737">
        <ele>1709</ele>
        <time>2021-04-04T13:38:10Z</time>
      </trkpt>
      <trkpt lat="42.84235" lon="1.33739">
        <ele>1711</ele>
        <time>2021-04-04T13:38:22Z</time>
      </trkpt>
      <trkpt lat="42.8424" lon="1.33741">
        <ele>1713</ele>
        <time>2021-04-04T13:38:34Z</time>
      </trkpt>
      <trkpt lat="42.84242" lon="1.33747">
        <ele>1714</ele>
        <time>2021-04-04T13:38:46Z</time>
      </trkpt>
      <trkpt lat="42.84249" lon="1.33745">
        <ele>1716</ele>
        <time>2021-04-04T13:39:04Z</time>
      </trkpt>
      <trkpt lat="42.84253" lon="1.33742">
        <ele>1717</ele>
        <time>2021-04-04T13:39:08Z</time>
      </trkpt>
      <trkpt lat="42.8426" lon="1.33741">
        <ele>1718</ele>
        <time>2021-04-04T13:39:27Z</time>
      </trkpt>
      <trkpt lat="42.84261" lon="1.33734">
        <ele>1722</ele>
        <time>2021-04-04T13:45:58Z</time>
      </trkpt>
      <trkpt lat="42.84267" lon="1.33731">
        <ele>1724</ele>
        <time>2021-04-04T13:47:22Z</time>
      </trkpt>
      <trkpt lat="42.84271" lon="1.33726">
        <ele>1724</ele>
        <time>2021-04-04T13:47:26Z</time>
      </trkpt>
      <trkpt lat="42.84279" lon="1.3372">
        <ele>1723</ele>
        <time>2021-04-04T13:47:35Z</time>
      </trkpt>
      <trkpt lat="42.84285" lon="1.33715">
        <ele>1722</ele>
        <time>2021-04-04T13:47:38Z</time>
      </trkpt>
      <trkpt lat="42.84296" lon="1.33699">
        <ele>1718</ele>
        <time>2021-04-04T13:48:29Z</time>
      </trkpt>
      <trkpt lat="42.84298" lon="1.33693">
        <ele>1716</ele>
        <time>2021-04-04T13:48:33Z</time>
      </trkpt>
      <trkpt lat="42.84302" lon="1.33688">
        <ele>1715</ele>
        <time>2021-04-04T13:48:37Z</time>
      </trkpt>
      <trkpt lat="42.84307" lon="1.33685">
        <ele>1713</ele>
        <time>2021-04-04T13:48:41Z</time>
      </trkpt>
      <trkpt lat="42.84312" lon="1.33677">
        <ele>1712</ele>
        <time>2021-04-04T13:48:54Z</time>
      </trkpt>
      <trkpt lat="42.84317" lon="1.33674">
        <ele>1711</ele>
        <time>2021-04-04T13:48:58Z</time>
      </trkpt>
      <trkpt lat="42.84319" lon="1.33668">
        <ele>1710</ele>
        <time>2021-04-04T13:49:01Z</time>
      </trkpt>
      <trkpt lat="42.84326" lon="1.33659">
        <ele>1705</ele>
        <time>2021-04-04T13:49:10Z</time>
      </trkpt>
      <trkpt lat="42.84327" lon="1.33651">
        <ele>1705</ele>
        <time>2021-04-04T13:49:14Z</time>
      </trkpt>
      <trkpt lat="42.84332" lon="1.33647">
        <ele>1704</ele>
        <time>2021-04-04T13:49:18Z</time>
      </trkpt>
      <trkpt lat="42.84337" lon="1.33645">
        <ele>1704</ele>
        <time>2021-04-04T13:49:22Z</time>
      </trkpt>
      <trkpt lat="42.84341" lon="1.33639">
        <ele>1704</ele>
        <time>2021-04-04T13:49:25Z</time>
      </trkpt>
      <trkpt lat="42.84347" lon="1.33635">
        <ele>1703</ele>
        <time>2021-04-04T13:49:30Z</time>
      </trkpt>
      <trkpt lat="42.84353" lon="1.33634">
        <ele>1704</ele>
        <time>2021-04-04T13:49:35Z</time>
      </trkpt>
      <trkpt lat="42.84356" lon="1.33628">
        <ele>1705</ele>
        <time>2021-04-04T13:49:40Z</time>
      </trkpt>
      <trkpt lat="42.8436" lon="1.33625">
        <ele>1706</ele>
        <time>2021-04-04T13:49:45Z</time>
      </trkpt>
      <trkpt lat="42.84371" lon="1.33622">
        <ele>1707</ele>
        <time>2021-04-04T13:49:53Z</time>
      </trkpt>
      <trkpt lat="42.84375" lon="1.33616">
        <ele>1708</ele>
        <time>2021-04-04T13:49:57Z</time>
      </trkpt>
      <trkpt lat="42.84378" lon="1.33612">
        <ele>1708</ele>
        <time>2021-04-04T13:50:01Z</time>
      </trkpt>
      <trkpt lat="42.84383" lon="1.33609">
        <ele>1708</ele>
        <time>2021-04-04T13:50:05Z</time>
      </trkpt>
      <trkpt lat="42.84387" lon="1.33604">
        <ele>1710</ele>
        <time>2021-04-04T13:50:10Z</time>
      </trkpt>
      <trkpt lat="42.84392" lon="1.33601">
        <ele>1711</ele>
        <time>2021-04-04T13:50:14Z</time>
      </trkpt>
      <trkpt lat="42.84396" lon="1.33597">
        <ele>1710</ele>
        <time>2021-04-04T13:50:18Z</time>
      </trkpt>
      <trkpt lat="42.84405" lon="1.33585">
        <ele>1711</ele>
        <time>2021-04-04T13:50:30Z</time>
      </trkpt>
      <trkpt lat="42.84406" lon="1.33578">
        <ele>1710</ele>
        <time>2021-04-04T13:50:41Z</time>
      </trkpt>
      <trkpt lat="42.84411" lon="1.33581">
        <ele>1711</ele>
        <time>2021-04-04T13:52:41Z</time>
      </trkpt>
      <trkpt lat="42.84417" lon="1.3357">
        <ele>1719</ele>
        <time>2021-04-04T14:06:28Z</time>
      </trkpt>
      <trkpt lat="42.84426" lon="1.3356">
        <ele>1717</ele>
        <time>2021-04-04T14:06:33Z</time>
      </trkpt>
      <trkpt lat="42.84439" lon="1.33543">
        <ele>1712</ele>
        <time>2021-04-04T14:06:44Z</time>
      </trkpt>
      <trkpt lat="42.84444" lon="1.33538">
        <ele>1711</ele>
        <time>2021-04-04T14:06:46Z</time>
      </trkpt>
      <trkpt lat="42.8445" lon="1.33535">
        <ele>1710</ele>
        <time>2021-04-04T14:06:51Z</time>
      </trkpt>
      <trkpt lat="42.84455" lon="1.33534">
        <ele>1711</ele>
        <time>2021-04-04T14:06:56Z</time>
      </trkpt>
      <trkpt lat="42.84463" lon="1.33523">
        <ele>1710</ele>
        <time>2021-04-04T14:07:00Z</time>
      </trkpt>
      <trkpt lat="42.84467" lon="1.33518">
        <ele>1710</ele>
        <time>2021-04-04T14:07:02Z</time>
      </trkpt>
      <trkpt lat="42.84471" lon="1.33515">
        <ele>1711</ele>
        <time>2021-04-04T14:07:07Z</time>
      </trkpt>
      <trkpt lat="42.84481" lon="1.3351">
        <ele>1711</ele>
        <time>2021-04-04T14:07:15Z</time>
      </trkpt>
      <trkpt lat="42.84495" lon="1.33496">
        <ele>1710</ele>
        <time>2021-04-04T14:07:22Z</time>
      </trkpt>
      <trkpt lat="42.84506" lon="1.3349">
        <ele>1709</ele>
        <time>2021-04-04T14:07:29Z</time>
      </trkpt>
      <trkpt lat="42.84513" lon="1.33478">
        <ele>1707</ele>
        <time>2021-04-04T14:07:35Z</time>
      </trkpt>
      <trkpt lat="42.84516" lon="1.33474">
        <ele>1706</ele>
        <time>2021-04-04T14:07:37Z</time>
      </trkpt>
      <trkpt lat="42.84519" lon="1.33469">
        <ele>1704</ele>
        <time>2021-04-04T14:07:39Z</time>
      </trkpt>
      <trkpt lat="42.84526" lon="1.3346">
        <ele>1701</ele>
        <time>2021-04-04T14:07:43Z</time>
      </trkpt>
      <trkpt lat="42.8454" lon="1.33448">
        <ele>1697</ele>
        <time>2021-04-04T14:07:50Z</time>
      </trkpt>
      <trkpt lat="42.84546" lon="1.33442">
        <ele>1695</ele>
        <time>2021-04-04T14:07:53Z</time>
      </trkpt>
      <trkpt lat="42.8455" lon="1.33438">
        <ele>1694</ele>
        <time>2021-04-04T14:07:55Z</time>
      </trkpt>
      <trkpt lat="42.84569" lon="1.33432">
        <ele>1690</ele>
        <time>2021-04-04T14:08:03Z</time>
      </trkpt>
      <trkpt lat="42.84588" lon="1.33432">
        <ele>1686</ele>
        <time>2021-04-04T14:08:11Z</time>
      </trkpt>
      <trkpt lat="42.84598" lon="1.33426">
        <ele>1684</ele>
        <time>2021-04-04T14:08:15Z</time>
      </trkpt>
      <trkpt lat="42.84614" lon="1.33426">
        <ele>1682</ele>
        <time>2021-04-04T14:08:21Z</time>
      </trkpt>
      <trkpt lat="42.84633" lon="1.33431">
        <ele>1678</ele>
        <time>2021-04-04T14:08:31Z</time>
      </trkpt>
      <trkpt lat="42.84638" lon="1.33432">
        <ele>1678</ele>
        <time>2021-04-04T14:08:34Z</time>
      </trkpt>
      <trkpt lat="42.84643" lon="1.3343">
        <ele>1676</ele>
        <time>2021-04-04T14:08:37Z</time>
      </trkpt>
      <trkpt lat="42.84657" lon="1.33431">
        <ele>1672</ele>
        <time>2021-04-04T14:08:45Z</time>
      </trkpt>
      <trkpt lat="42.84666" lon="1.33428">
        <ele>1670</ele>
        <time>2021-04-04T14:08:50Z</time>
      </trkpt>
      <trkpt lat="42.84671" lon="1.33429">
        <ele>1668</ele>
        <time>2021-04-04T14:08:53Z</time>
      </trkpt>
      <trkpt lat="42.84687" lon="1.33435">
        <ele>1664</ele>
        <time>2021-04-04T14:09:02Z</time>
      </trkpt>
      <trkpt lat="42.84693" lon="1.33435">
        <ele>1663</ele>
        <time>2021-04-04T14:09:05Z</time>
      </trkpt>
      <trkpt lat="42.84699" lon="1.33435">
        <ele>1661</ele>
        <time>2021-04-04T14:09:08Z</time>
      </trkpt>
      <trkpt lat="42.84705" lon="1.33434">
        <ele>1660</ele>
        <time>2021-04-04T14:09:11Z</time>
      </trkpt>
      <trkpt lat="42.84711" lon="1.33431">
        <ele>1657</ele>
        <time>2021-04-04T14:09:14Z</time>
      </trkpt>
      <trkpt lat="42.84726" lon="1.33439">
        <ele>1651</ele>
        <time>2021-04-04T14:09:23Z</time>
      </trkpt>
      <trkpt lat="42.84751" lon="1.33454">
        <ele>1647</ele>
        <time>2021-04-04T14:09:39Z</time>
      </trkpt>
      <trkpt lat="42.84756" lon="1.33456">
        <ele>1646</ele>
        <time>2021-04-04T14:09:42Z</time>
      </trkpt>
      <trkpt lat="42.84768" lon="1.33455">
        <ele>1644</ele>
        <time>2021-04-04T14:09:47Z</time>
      </trkpt>
      <trkpt lat="42.84821" lon="1.33482">
        <ele>1637</ele>
        <time>2021-04-04T14:10:06Z</time>
      </trkpt>
      <trkpt lat="42.84831" lon="1.33483">
        <ele>1634</ele>
        <time>2021-04-04T14:10:10Z</time>
      </trkpt>
      <trkpt lat="42.8485" lon="1.33492">
        <ele>1630</ele>
        <time>2021-04-04T14:10:21Z</time>
      </trkpt>
      <trkpt lat="42.84885" lon="1.33501">
        <ele>1625</ele>
        <time>2021-04-04T14:10:36Z</time>
      </trkpt>
      <trkpt lat="42.84894" lon="1.33506">
        <ele>1622</ele>
        <time>2021-04-04T14:10:40Z</time>
      </trkpt>
      <trkpt lat="42.84908" lon="1.33506">
        <ele>1620</ele>
        <time>2021-04-04T14:10:46Z</time>
      </trkpt>
      <trkpt lat="42.84929" lon="1.33517">
        <ele>1618</ele>
        <time>2021-04-04T14:10:56Z</time>
      </trkpt>
      <trkpt lat="42.8494" lon="1.33522">
        <ele>1618</ele>
        <time>2021-04-04T14:11:04Z</time>
      </trkpt>
      <trkpt lat="42.84969" lon="1.33526">
        <ele>1617</ele>
        <time>2021-04-04T14:11:25Z</time>
      </trkpt>
      <trkpt lat="42.84975" lon="1.33529">
        <ele>1617</ele>
        <time>2021-04-04T14:11:29Z</time>
      </trkpt>
      <trkpt lat="42.84985" lon="1.33529">
        <ele>1616</ele>
        <time>2021-04-04T14:11:37Z</time>
      </trkpt>
      <trkpt lat="42.85005" lon="1.33539">
        <ele>1615</ele>
        <time>2021-04-04T14:11:53Z</time>
      </trkpt>
      <trkpt lat="42.8501" lon="1.33539">
        <ele>1615</ele>
        <time>2021-04-04T14:11:57Z</time>
      </trkpt>
      <trkpt lat="42.85016" lon="1.33542">
        <ele>1614</ele>
        <time>2021-04-04T14:12:01Z</time>
      </trkpt>
      <trkpt lat="42.85026" lon="1.33543">
        <ele>1612</ele>
        <time>2021-04-04T14:12:06Z</time>
      </trkpt>
      <trkpt lat="42.85043" lon="1.33554">
        <ele>1608</ele>
        <time>2021-04-04T14:12:16Z</time>
      </trkpt>
      <trkpt lat="42.85071" lon="1.33561">
        <ele>1602</ele>
        <time>2021-04-04T14:12:30Z</time>
      </trkpt>
      <trkpt lat="42.85087" lon="1.33576">
        <ele>1597</ele>
        <time>2021-04-04T14:12:43Z</time>
      </trkpt>
      <trkpt lat="42.85091" lon="1.33578">
        <ele>1596</ele>
        <time>2021-04-04T14:12:47Z</time>
      </trkpt>
      <trkpt lat="42.85102" lon="1.33576">
        <ele>1595</ele>
        <time>2021-04-04T14:12:54Z</time>
      </trkpt>
      <trkpt lat="42.8511" lon="1.33582">
        <ele>1592</ele>
        <time>2021-04-04T14:13:02Z</time>
      </trkpt>
      <trkpt lat="42.85115" lon="1.33582">
        <ele>1591</ele>
        <time>2021-04-04T14:13:06Z</time>
      </trkpt>
      <trkpt lat="42.8512" lon="1.33585">
        <ele>1589</ele>
        <time>2021-04-04T14:13:10Z</time>
      </trkpt>
      <trkpt lat="42.85128" lon="1.33595">
        <ele>1586</ele>
        <time>2021-04-04T14:13:17Z</time>
      </trkpt>
      <trkpt lat="42.85153" lon="1.33609">
        <ele>1580</ele>
        <time>2021-04-04T14:13:29Z</time>
      </trkpt>
      <trkpt lat="42.85157" lon="1.33613">
        <ele>1579</ele>
        <time>2021-04-04T14:13:33Z</time>
      </trkpt>
      <trkpt lat="42.85163" lon="1.33614">
        <ele>1578</ele>
        <time>2021-04-04T14:13:37Z</time>
      </trkpt>
      <trkpt lat="42.85171" lon="1.33606">
        <ele>1578</ele>
        <time>2021-04-04T14:13:43Z</time>
      </trkpt>
      <trkpt lat="42.85174" lon="1.33599">
        <ele>1577</ele>
        <time>2021-04-04T14:13:46Z</time>
      </trkpt>
      <trkpt lat="42.85179" lon="1.33588">
        <ele>1575</ele>
        <time>2021-04-04T14:13:50Z</time>
      </trkpt>
      <trkpt lat="42.85183" lon="1.33584">
        <ele>1574</ele>
        <time>2021-04-04T14:13:52Z</time>
      </trkpt>
      <trkpt lat="42.85202" lon="1.33581">
        <ele>1570</ele>
        <time>2021-04-04T14:13:58Z</time>
      </trkpt>
      <trkpt lat="42.85265" lon="1.33578">
        <ele>1562</ele>
        <time>2021-04-04T14:14:19Z</time>
      </trkpt>
      <trkpt lat="42.85284" lon="1.33574">
        <ele>1558</ele>
        <time>2021-04-04T14:14:32Z</time>
      </trkpt>
      <trkpt lat="42.85312" lon="1.33574">
        <ele>1554</ele>
        <time>2021-04-04T14:14:51Z</time>
      </trkpt>
      <trkpt lat="42.85365" lon="1.33559">
        <ele>1543</ele>
        <time>2021-04-04T14:15:26Z</time>
      </trkpt>
      <trkpt lat="42.85404" lon="1.33551">
        <ele>1536</ele>
        <time>2021-04-04T14:15:45Z</time>
      </trkpt>
      <trkpt lat="42.85415" lon="1.33552">
        <ele>1535</ele>
        <time>2021-04-04T14:15:53Z</time>
      </trkpt>
      <trkpt lat="42.8542" lon="1.33551">
        <ele>1534</ele>
        <time>2021-04-04T14:15:56Z</time>
      </trkpt>
      <trkpt lat="42.8543" lon="1.33548">
        <ele>1533</ele>
        <time>2021-04-04T14:16:03Z</time>
      </trkpt>
      <trkpt lat="42.85445" lon="1.33547">
        <ele>1530</ele>
        <time>2021-04-04T14:16:12Z</time>
      </trkpt>
      <trkpt lat="42.85464" lon="1.33541">
        <ele>1527</ele>
        <time>2021-04-04T14:16:24Z</time>
      </trkpt>
      <trkpt lat="42.85474" lon="1.33541">
        <ele>1525</ele>
        <time>2021-04-04T14:16:31Z</time>
      </trkpt>
      <trkpt lat="42.85494" lon="1.33532">
        <ele>1521</ele>
        <time>2021-04-04T14:16:41Z</time>
      </trkpt>
      <trkpt lat="42.85514" lon="1.3353">
        <ele>1518</ele>
        <time>2021-04-04T14:16:50Z</time>
      </trkpt>
      <trkpt lat="42.85523" lon="1.33526">
        <ele>1517</ele>
        <time>2021-04-04T14:16:54Z</time>
      </trkpt>
      <trkpt lat="42.85533" lon="1.33521">
        <ele>1515</ele>
        <time>2021-04-04T14:16:58Z</time>
      </trkpt>
      <trkpt lat="42.85541" lon="1.33518">
        <ele>1512</ele>
        <time>2021-04-04T14:17:03Z</time>
      </trkpt>
      <trkpt lat="42.8556" lon="1.33513">
        <ele>1506</ele>
        <time>2021-04-04T14:17:13Z</time>
      </trkpt>
      <trkpt lat="42.8558" lon="1.33501">
        <ele>1501</ele>
        <time>2021-04-04T14:17:26Z</time>
      </trkpt>
      <trkpt lat="42.8559" lon="1.33499">
        <ele>1499</ele>
        <time>2021-04-04T14:17:33Z</time>
      </trkpt>
      <trkpt lat="42.85596" lon="1.33496">
        <ele>1497</ele>
        <time>2021-04-04T14:17:37Z</time>
      </trkpt>
      <trkpt lat="42.856" lon="1.33496">
        <ele>1496</ele>
        <time>2021-04-04T14:17:40Z</time>
      </trkpt>
      <trkpt lat="42.85604" lon="1.33492">
        <ele>1496</ele>
        <time>2021-04-04T14:17:43Z</time>
      </trkpt>
      <trkpt lat="42.85607" lon="1.33487">
        <ele>1495</ele>
        <time>2021-04-04T14:17:46Z</time>
      </trkpt>
      <trkpt lat="42.8562" lon="1.33474">
        <ele>1490</ele>
        <time>2021-04-04T14:17:56Z</time>
      </trkpt>
      <trkpt lat="42.85658" lon="1.33444">
        <ele>1481</ele>
        <time>2021-04-04T14:18:22Z</time>
      </trkpt>
      <trkpt lat="42.85668" lon="1.33441">
        <ele>1480</ele>
        <time>2021-04-04T14:18:30Z</time>
      </trkpt>
      <trkpt lat="42.85677" lon="1.33434">
        <ele>1479</ele>
        <time>2021-04-04T14:18:38Z</time>
      </trkpt>
      <trkpt lat="42.85682" lon="1.33433">
        <ele>1478</ele>
        <time>2021-04-04T14:18:42Z</time>
      </trkpt>
      <trkpt lat="42.85687" lon="1.33431">
        <ele>1478</ele>
        <time>2021-04-04T14:18:47Z</time>
      </trkpt>
      <trkpt lat="42.85683" lon="1.33425">
        <ele>1478</ele>
        <time>2021-04-04T14:18:50Z</time>
      </trkpt>
      <trkpt lat="42.85683" lon="1.33418">
        <ele>1477</ele>
        <time>2021-04-04T14:18:54Z</time>
      </trkpt>
      <trkpt lat="42.8569" lon="1.33412">
        <ele>1474</ele>
        <time>2021-04-04T14:18:59Z</time>
      </trkpt>
      <trkpt lat="42.85694" lon="1.33407">
        <ele>1472</ele>
        <time>2021-04-04T14:19:02Z</time>
      </trkpt>
      <trkpt lat="42.85701" lon="1.33388">
        <ele>1468</ele>
        <time>2021-04-04T14:19:11Z</time>
      </trkpt>
      <trkpt lat="42.85705" lon="1.33382">
        <ele>1466</ele>
        <time>2021-04-04T14:19:14Z</time>
      </trkpt>
      <trkpt lat="42.85715" lon="1.33365">
        <ele>1461</ele>
        <time>2021-04-04T14:19:23Z</time>
      </trkpt>
      <trkpt lat="42.85723" lon="1.33377">
        <ele>1461</ele>
        <time>2021-04-04T14:21:11Z</time>
      </trkpt>
      <trkpt lat="42.85727" lon="1.3338">
        <ele>1461</ele>
        <time>2021-04-04T14:21:13Z</time>
      </trkpt>
      <trkpt lat="42.85737" lon="1.33396">
        <ele>1462</ele>
        <time>2021-04-04T14:21:20Z</time>
      </trkpt>
      <trkpt lat="42.85746" lon="1.33403">
        <ele>1462</ele>
        <time>2021-04-04T14:21:24Z</time>
      </trkpt>
      <trkpt lat="42.85752" lon="1.33402">
        <ele>1462</ele>
        <time>2021-04-04T14:21:28Z</time>
      </trkpt>
      <trkpt lat="42.85757" lon="1.33396">
        <ele>1461</ele>
        <time>2021-04-04T14:21:30Z</time>
      </trkpt>
      <trkpt lat="42.85763" lon="1.33386">
        <ele>1459</ele>
        <time>2021-04-04T14:21:35Z</time>
      </trkpt>
      <trkpt lat="42.85766" lon="1.33382">
        <ele>1457</ele>
        <time>2021-04-04T14:21:39Z</time>
      </trkpt>
      <trkpt lat="42.85769" lon="1.33389">
        <ele>1457</ele>
        <time>2021-04-04T14:21:42Z</time>
      </trkpt>
      <trkpt lat="42.8577" lon="1.33395">
        <ele>1457</ele>
        <time>2021-04-04T14:21:46Z</time>
      </trkpt>
      <trkpt lat="42.85776" lon="1.33398">
        <ele>1456</ele>
        <time>2021-04-04T14:21:51Z</time>
      </trkpt>
      <trkpt lat="42.85788" lon="1.33402">
        <ele>1454</ele>
        <time>2021-04-04T14:21:59Z</time>
      </trkpt>
      <trkpt lat="42.85803" lon="1.33399">
        <ele>1450</ele>
        <time>2021-04-04T14:22:12Z</time>
      </trkpt>
      <trkpt lat="42.85809" lon="1.334">
        <ele>1448</ele>
        <time>2021-04-04T14:22:16Z</time>
      </trkpt>
      <trkpt lat="42.85818" lon="1.33391">
        <ele>1443</ele>
        <time>2021-04-04T14:22:26Z</time>
      </trkpt>
      <trkpt lat="42.85827" lon="1.33379">
        <ele>1438</ele>
        <time>2021-04-04T14:22:35Z</time>
      </trkpt>
      <trkpt lat="42.85832" lon="1.33377">
        <ele>1436</ele>
        <time>2021-04-04T14:22:40Z</time>
      </trkpt>
      <trkpt lat="42.85844" lon="1.33375">
        <ele>1434</ele>
        <time>2021-04-04T14:22:44Z</time>
      </trkpt>
      <trkpt lat="42.85851" lon="1.33368">
        <ele>1432</ele>
        <time>2021-04-04T14:22:48Z</time>
      </trkpt>
      <trkpt lat="42.85862" lon="1.33366">
        <ele>1428</ele>
        <time>2021-04-04T14:22:53Z</time>
      </trkpt>
      <trkpt lat="42.85872" lon="1.33362">
        <ele>1425</ele>
        <time>2021-04-04T14:22:58Z</time>
      </trkpt>
      <trkpt lat="42.85883" lon="1.33367">
        <ele>1423</ele>
        <time>2021-04-04T14:23:02Z</time>
      </trkpt>
      <trkpt lat="42.85887" lon="1.33375">
        <ele>1422</ele>
        <time>2021-04-04T14:23:05Z</time>
      </trkpt>
      <trkpt lat="42.85891" lon="1.33379">
        <ele>1421</ele>
        <time>2021-04-04T14:23:07Z</time>
      </trkpt>
      <trkpt lat="42.85901" lon="1.3338">
        <ele>1420</ele>
        <time>2021-04-04T14:23:11Z</time>
      </trkpt>
      <trkpt lat="42.85911" lon="1.33374">
        <ele>1419</ele>
        <time>2021-04-04T14:23:15Z</time>
      </trkpt>
      <trkpt lat="42.85917" lon="1.33373">
        <ele>1418</ele>
        <time>2021-04-04T14:23:17Z</time>
      </trkpt>
      <trkpt lat="42.85923" lon="1.33375">
        <ele>1417</ele>
        <time>2021-04-04T14:23:19Z</time>
      </trkpt>
      <trkpt lat="42.85928" lon="1.33375">
        <ele>1416</ele>
        <time>2021-04-04T14:23:21Z</time>
      </trkpt>
      <trkpt lat="42.85937" lon="1.33366">
        <ele>1415</ele>
        <time>2021-04-04T14:23:25Z</time>
      </trkpt>
      <trkpt lat="42.85942" lon="1.33365">
        <ele>1414</ele>
        <time>2021-04-04T14:23:27Z</time>
      </trkpt>
      <trkpt lat="42.85948" lon="1.33367">
        <ele>1413</ele>
        <time>2021-04-04T14:23:29Z</time>
      </trkpt>
      <trkpt lat="42.85959" lon="1.33368">
        <ele>1412</ele>
        <time>2021-04-04T14:23:33Z</time>
      </trkpt>
      <trkpt lat="42.85974" lon="1.3336">
        <ele>1410</ele>
        <time>2021-04-04T14:23:39Z</time>
      </trkpt>
      <trkpt lat="42.85979" lon="1.33358">
        <ele>1409</ele>
        <time>2021-04-04T14:23:41Z</time>
      </trkpt>
      <trkpt lat="42.85984" lon="1.33359">
        <ele>1408</ele>
        <time>2021-04-04T14:23:43Z</time>
      </trkpt>
      <trkpt lat="42.85989" lon="1.33361">
        <ele>1408</ele>
        <time>2021-04-04T14:23:45Z</time>
      </trkpt>
      <trkpt lat="42.85994" lon="1.33361">
        <ele>1408</ele>
        <time>2021-04-04T14:23:47Z</time>
      </trkpt>
      <trkpt lat="42.86012" lon="1.33354">
        <ele>1404</ele>
        <time>2021-04-04T14:23:57Z</time>
      </trkpt>
      <trkpt lat="42.86016" lon="1.33354">
        <ele>1404</ele>
        <time>2021-04-04T14:24:02Z</time>
      </trkpt>
      <trkpt lat="42.86042" lon="1.33343">
        <ele>1402</ele>
        <time>2021-04-04T14:24:18Z</time>
      </trkpt>
      <trkpt lat="42.8605" lon="1.33339">
        <ele>1403</ele>
        <time>2021-04-04T14:24:33Z</time>
      </trkpt>
      <trkpt lat="42.86055" lon="1.33337">
        <ele>1403</ele>
        <time>2021-04-04T14:24:36Z</time>
      </trkpt>
      <trkpt lat="42.86065" lon="1.33332">
        <ele>1403</ele>
        <time>2021-04-04T14:24:42Z</time>
      </trkpt>
      <trkpt lat="42.86074" lon="1.33327">
        <ele>1402</ele>
        <time>2021-04-04T14:24:48Z</time>
      </trkpt>
      <trkpt lat="42.86078" lon="1.33323">
        <ele>1402</ele>
        <time>2021-04-04T14:24:51Z</time>
      </trkpt>
      <trkpt lat="42.86101" lon="1.33311">
        <ele>1402</ele>
        <time>2021-04-04T14:25:07Z</time>
      </trkpt>
      <trkpt lat="42.86106" lon="1.3331">
        <ele>1402</ele>
        <time>2021-04-04T14:25:10Z</time>
      </trkpt>
      <trkpt lat="42.8611" lon="1.33308">
        <ele>1403</ele>
        <time>2021-04-04T14:25:13Z</time>
      </trkpt>
      <trkpt lat="42.8612" lon="1.33299">
        <ele>1403</ele>
        <time>2021-04-04T14:25:21Z</time>
      </trkpt>
      <trkpt lat="42.86122" lon="1.33293">
        <ele>1404</ele>
        <time>2021-04-04T14:25:24Z</time>
      </trkpt>
      <trkpt lat="42.86127" lon="1.33285">
        <ele>1403</ele>
        <time>2021-04-04T14:25:40Z</time>
      </trkpt>
      <trkpt lat="42.86146" lon="1.33277">
        <ele>1404</ele>
        <time>2021-04-04T14:25:52Z</time>
      </trkpt>
      <trkpt lat="42.86155" lon="1.33271">
        <ele>1403</ele>
        <time>2021-04-04T14:25:58Z</time>
      </trkpt>
      <trkpt lat="42.86159" lon="1.3327">
        <ele>1403</ele>
        <time>2021-04-04T14:26:01Z</time>
      </trkpt>
      <trkpt lat="42.86186" lon="1.33253">
        <ele>1404</ele>
        <time>2021-04-04T14:26:21Z</time>
      </trkpt>
      <trkpt lat="42.86203" lon="1.33235">
        <ele>1404</ele>
        <time>2021-04-04T14:26:35Z</time>
      </trkpt>
      <trkpt lat="42.86207" lon="1.33232">
        <ele>1404</ele>
        <time>2021-04-04T14:26:38Z</time>
      </trkpt>
      <trkpt lat="42.86227" lon="1.3323">
        <ele>1403</ele>
        <time>2021-04-04T14:26:53Z</time>
      </trkpt>
      <trkpt lat="42.86232" lon="1.33226">
        <ele>1403</ele>
        <time>2021-04-04T14:26:58Z</time>
      </trkpt>
      <trkpt lat="42.86236" lon="1.33223">
        <ele>1403</ele>
        <time>2021-04-04T14:27:01Z</time>
      </trkpt>
      <trkpt lat="42.86242" lon="1.33222">
        <ele>1402</ele>
        <time>2021-04-04T14:27:04Z</time>
      </trkpt>
      <trkpt lat="42.86257" lon="1.33222">
        <ele>1400</ele>
        <time>2021-04-04T14:27:11Z</time>
      </trkpt>
      <trkpt lat="42.86264" lon="1.3322">
        <ele>1399</ele>
        <time>2021-04-04T14:27:13Z</time>
      </trkpt>
      <trkpt lat="42.86269" lon="1.33216">
        <ele>1399</ele>
        <time>2021-04-04T14:27:15Z</time>
      </trkpt>
      <trkpt lat="42.86274" lon="1.3321">
        <ele>1399</ele>
        <time>2021-04-04T14:27:17Z</time>
      </trkpt>
      <trkpt lat="42.8628" lon="1.33208">
        <ele>1399</ele>
        <time>2021-04-04T14:27:20Z</time>
      </trkpt>
      <trkpt lat="42.86292" lon="1.33203">
        <ele>1398</ele>
        <time>2021-04-04T14:27:24Z</time>
      </trkpt>
      <trkpt lat="42.86313" lon="1.33183">
        <ele>1396</ele>
        <time>2021-04-04T14:27:32Z</time>
      </trkpt>
      <trkpt lat="42.86326" lon="1.33183">
        <ele>1394</ele>
        <time>2021-04-04T14:27:37Z</time>
      </trkpt>
      <trkpt lat="42.86347" lon="1.33171">
        <ele>1390</ele>
        <time>2021-04-04T14:27:50Z</time>
      </trkpt>
      <trkpt lat="42.86365" lon="1.33166">
        <ele>1387</ele>
        <time>2021-04-04T14:28:01Z</time>
      </trkpt>
      <trkpt lat="42.86371" lon="1.33165">
        <ele>1387</ele>
        <time>2021-04-04T14:28:05Z</time>
      </trkpt>
      <trkpt lat="42.86375" lon="1.33163">
        <ele>1386</ele>
        <time>2021-04-04T14:28:09Z</time>
      </trkpt>
      <trkpt lat="42.86379" lon="1.33158">
        <ele>1386</ele>
        <time>2021-04-04T14:28:12Z</time>
      </trkpt>
      <trkpt lat="42.86384" lon="1.33156">
        <ele>1387</ele>
        <time>2021-04-04T14:28:15Z</time>
      </trkpt>
      <trkpt lat="42.86389" lon="1.33156">
        <ele>1387</ele>
        <time>2021-04-04T14:28:19Z</time>
      </trkpt>
      <trkpt lat="42.86394" lon="1.33158">
        <ele>1387</ele>
        <time>2021-04-04T14:28:21Z</time>
      </trkpt>
      <trkpt lat="42.86401" lon="1.33159">
        <ele>1386</ele>
        <time>2021-04-04T14:28:23Z</time>
      </trkpt>
      <trkpt lat="42.86408" lon="1.33156">
        <ele>1386</ele>
        <time>2021-04-04T14:28:25Z</time>
      </trkpt>
      <trkpt lat="42.86413" lon="1.3315">
        <ele>1386</ele>
        <time>2021-04-04T14:28:27Z</time>
      </trkpt>
      <trkpt lat="42.86418" lon="1.33142">
        <ele>1386</ele>
        <time>2021-04-04T14:28:30Z</time>
      </trkpt>
      <trkpt lat="42.86422" lon="1.33137">
        <ele>1386</ele>
        <time>2021-04-04T14:28:33Z</time>
      </trkpt>
      <trkpt lat="42.86427" lon="1.33136">
        <ele>1387</ele>
        <time>2021-04-04T14:28:36Z</time>
      </trkpt>
      <trkpt lat="42.86432" lon="1.33137">
        <ele>1387</ele>
        <time>2021-04-04T14:28:40Z</time>
      </trkpt>
      <trkpt lat="42.86436" lon="1.33139">
        <ele>1388</ele>
        <time>2021-04-04T14:28:44Z</time>
      </trkpt>
      <trkpt lat="42.86442" lon="1.3314">
        <ele>1387</ele>
        <time>2021-04-04T14:28:48Z</time>
      </trkpt>
      <trkpt lat="42.86447" lon="1.33139">
        <ele>1387</ele>
        <time>2021-04-04T14:28:52Z</time>
      </trkpt>
      <trkpt lat="42.86452" lon="1.33136">
        <ele>1387</ele>
        <time>2021-04-04T14:28:55Z</time>
      </trkpt>
      <trkpt lat="42.86457" lon="1.33136">
        <ele>1387</ele>
        <time>2021-04-04T14:28:58Z</time>
      </trkpt>
      <trkpt lat="42.86472" lon="1.33135">
        <ele>1386</ele>
        <time>2021-04-04T14:29:07Z</time>
      </trkpt>
      <trkpt lat="42.86481" lon="1.3313">
        <ele>1385</ele>
        <time>2021-04-04T14:29:14Z</time>
      </trkpt>
      <trkpt lat="42.86486" lon="1.33129">
        <ele>1385</ele>
        <time>2021-04-04T14:29:17Z</time>
      </trkpt>
      <trkpt lat="42.86491" lon="1.33126">
        <ele>1384</ele>
        <time>2021-04-04T14:29:20Z</time>
      </trkpt>
      <trkpt lat="42.86495" lon="1.3312">
        <ele>1384</ele>
        <time>2021-04-04T14:29:24Z</time>
      </trkpt>
      <trkpt lat="42.865" lon="1.33116">
        <ele>1383</ele>
        <time>2021-04-04T14:29:28Z</time>
      </trkpt>
      <trkpt lat="42.8651" lon="1.33118">
        <ele>1381</ele>
        <time>2021-04-04T14:29:34Z</time>
      </trkpt>
      <trkpt lat="42.86522" lon="1.33119">
        <ele>1378</ele>
        <time>2021-04-04T14:29:40Z</time>
      </trkpt>
      <trkpt lat="42.86532" lon="1.33121">
        <ele>1376</ele>
        <time>2021-04-04T14:29:44Z</time>
      </trkpt>
      <trkpt lat="42.86537" lon="1.3312">
        <ele>1373</ele>
        <time>2021-04-04T14:29:48Z</time>
      </trkpt>
      <trkpt lat="42.86542" lon="1.33122">
        <ele>1372</ele>
        <time>2021-04-04T14:29:51Z</time>
      </trkpt>
      <trkpt lat="42.86546" lon="1.33122">
        <ele>1372</ele>
        <time>2021-04-04T14:29:53Z</time>
      </trkpt>
      <trkpt lat="42.86553" lon="1.3312">
        <ele>1371</ele>
        <time>2021-04-04T14:29:56Z</time>
      </trkpt>
      <trkpt lat="42.86571" lon="1.33123">
        <ele>1366</ele>
        <time>2021-04-04T14:30:05Z</time>
      </trkpt>
      <trkpt lat="42.86587" lon="1.33136">
        <ele>1361</ele>
        <time>2021-04-04T14:30:15Z</time>
      </trkpt>
      <trkpt lat="42.86594" lon="1.33134">
        <ele>1359</ele>
        <time>2021-04-04T14:30:19Z</time>
      </trkpt>
      <trkpt lat="42.86614" lon="1.33134">
        <ele>1355</ele>
        <time>2021-04-04T14:30:32Z</time>
      </trkpt>
      <trkpt lat="42.86619" lon="1.33131">
        <ele>1354</ele>
        <time>2021-04-04T14:30:35Z</time>
      </trkpt>
      <trkpt lat="42.86624" lon="1.33125">
        <ele>1354</ele>
        <time>2021-04-04T14:30:38Z</time>
      </trkpt>
      <trkpt lat="42.86629" lon="1.33121">
        <ele>1353</ele>
        <time>2021-04-04T14:30:41Z</time>
      </trkpt>
      <trkpt lat="42.86635" lon="1.33118">
        <ele>1351</ele>
        <time>2021-04-04T14:30:44Z</time>
      </trkpt>
      <trkpt lat="42.86639" lon="1.33118">
        <ele>1351</ele>
        <time>2021-04-04T14:30:46Z</time>
      </trkpt>
      <trkpt lat="42.86646" lon="1.33122">
        <ele>1350</ele>
        <time>2021-04-04T14:30:51Z</time>
      </trkpt>
      <trkpt lat="42.86653" lon="1.33123">
        <ele>1350</ele>
        <time>2021-04-04T14:31:06Z</time>
      </trkpt>
      <trkpt lat="42.86669" lon="1.33116">
        <ele>1348</ele>
        <time>2021-04-04T14:31:14Z</time>
      </trkpt>
      <trkpt lat="42.86679" lon="1.33113">
        <ele>1347</ele>
        <time>2021-04-04T14:31:18Z</time>
      </trkpt>
      <trkpt lat="42.86685" lon="1.33109">
        <ele>1345</ele>
        <time>2021-04-04T14:31:23Z</time>
      </trkpt>
      <trkpt lat="42.86691" lon="1.33108">
        <ele>1345</ele>
        <time>2021-04-04T14:31:27Z</time>
      </trkpt>
      <trkpt lat="42.86695" lon="1.33105">
        <ele>1344</ele>
        <time>2021-04-04T14:31:30Z</time>
      </trkpt>
      <trkpt lat="42.867" lon="1.331">
        <ele>1344</ele>
        <time>2021-04-04T14:31:34Z</time>
      </trkpt>
      <trkpt lat="42.86701" lon="1.33093">
        <ele>1343</ele>
        <time>2021-04-04T14:31:38Z</time>
      </trkpt>
      <trkpt lat="42.86699" lon="1.33086">
        <ele>1343</ele>
        <time>2021-04-04T14:31:41Z</time>
      </trkpt>
      <trkpt lat="42.86704" lon="1.33081">
        <ele>1342</ele>
        <time>2021-04-04T14:31:45Z</time>
      </trkpt>
      <trkpt lat="42.86709" lon="1.33082">
        <ele>1342</ele>
        <time>2021-04-04T14:31:48Z</time>
      </trkpt>
      <trkpt lat="42.8672" lon="1.33081">
        <ele>1341</ele>
        <time>2021-04-04T14:31:54Z</time>
      </trkpt>
      <trkpt lat="42.86724" lon="1.33082">
        <ele>1340</ele>
        <time>2021-04-04T14:31:57Z</time>
      </trkpt>
      <trkpt lat="42.86739" lon="1.33088">
        <ele>1338</ele>
        <time>2021-04-04T14:32:06Z</time>
      </trkpt>
      <trkpt lat="42.86781" lon="1.3307">
        <ele>1335</ele>
        <time>2021-04-04T14:32:38Z</time>
      </trkpt>
      <trkpt lat="42.86786" lon="1.33067">
        <ele>1335</ele>
        <time>2021-04-04T14:32:46Z</time>
      </trkpt>
      <trkpt lat="42.8679" lon="1.33069">
        <ele>1336</ele>
        <time>2021-04-04T14:32:48Z</time>
      </trkpt>
      <trkpt lat="42.86798" lon="1.33066">
        <ele>1338</ele>
        <time>2021-04-04T14:32:53Z</time>
      </trkpt>
      <trkpt lat="42.86803" lon="1.33063">
        <ele>1337</ele>
        <time>2021-04-04T14:32:56Z</time>
      </trkpt>
      <trkpt lat="42.86809" lon="1.33062">
        <ele>1337</ele>
        <time>2021-04-04T14:33:00Z</time>
      </trkpt>
      <trkpt lat="42.86833" lon="1.33064">
        <ele>1336</ele>
        <time>2021-04-04T14:33:15Z</time>
      </trkpt>
      <trkpt lat="42.86838" lon="1.33061">
        <ele>1336</ele>
        <time>2021-04-04T14:33:19Z</time>
      </trkpt>
      <trkpt lat="42.86843" lon="1.33059">
        <ele>1335</ele>
        <time>2021-04-04T14:33:23Z</time>
      </trkpt>
      <trkpt lat="42.86848" lon="1.33055">
        <ele>1335</ele>
        <time>2021-04-04T14:33:26Z</time>
      </trkpt>
      <trkpt lat="42.86863" lon="1.3305">
        <ele>1334</ele>
        <time>2021-04-04T14:33:36Z</time>
      </trkpt>
      <trkpt lat="42.86865" lon="1.33057">
        <ele>1333</ele>
        <time>2021-04-04T14:33:40Z</time>
      </trkpt>
      <trkpt lat="42.8687" lon="1.33055">
        <ele>1333</ele>
        <time>2021-04-04T14:33:44Z</time>
      </trkpt>
      <trkpt lat="42.86873" lon="1.3305">
        <ele>1333</ele>
        <time>2021-04-04T14:33:47Z</time>
      </trkpt>
      <trkpt lat="42.86879" lon="1.33047">
        <ele>1332</ele>
        <time>2021-04-04T14:33:51Z</time>
      </trkpt>
      <trkpt lat="42.86903" lon="1.33047">
        <ele>1330</ele>
        <time>2021-04-04T14:34:07Z</time>
      </trkpt>
      <trkpt lat="42.86909" lon="1.33047">
        <ele>1330</ele>
        <time>2021-04-04T14:34:11Z</time>
      </trkpt>
      <trkpt lat="42.86919" lon="1.33047">
        <ele>1330</ele>
        <time>2021-04-04T14:34:19Z</time>
      </trkpt>
      <trkpt lat="42.86925" lon="1.33043">
        <ele>1330</ele>
        <time>2021-04-04T14:34:23Z</time>
      </trkpt>
      <trkpt lat="42.86932" lon="1.33042">
        <ele>1329</ele>
        <time>2021-04-04T14:34:27Z</time>
      </trkpt>
      <trkpt lat="42.8695" lon="1.33045">
        <ele>1326</ele>
        <time>2021-04-04T14:34:39Z</time>
      </trkpt>
      <trkpt lat="42.86955" lon="1.33045">
        <ele>1326</ele>
        <time>2021-04-04T14:34:42Z</time>
      </trkpt>
      <trkpt lat="42.86978" lon="1.33032">
        <ele>1323</ele>
        <time>2021-04-04T14:34:57Z</time>
      </trkpt>
      <trkpt lat="42.86984" lon="1.33036">
        <ele>1323</ele>
        <time>2021-04-04T14:35:03Z</time>
      </trkpt>
      <trkpt lat="42.8699" lon="1.33035">
        <ele>1323</ele>
        <time>2021-04-04T14:35:07Z</time>
      </trkpt>
      <trkpt lat="42.86994" lon="1.33035">
        <ele>1323</ele>
        <time>2021-04-04T14:35:10Z</time>
      </trkpt>
      <trkpt lat="42.8701" lon="1.33031">
        <ele>1323</ele>
        <time>2021-04-04T14:35:20Z</time>
      </trkpt>
      <trkpt lat="42.87014" lon="1.33028">
        <ele>1323</ele>
        <time>2021-04-04T14:35:24Z</time>
      </trkpt>
      <trkpt lat="42.87017" lon="1.33023">
        <ele>1323</ele>
        <time>2021-04-04T14:35:27Z</time>
      </trkpt>
      <trkpt lat="42.87016" lon="1.33016">
        <ele>1322</ele>
        <time>2021-04-04T14:35:30Z</time>
      </trkpt>
      <trkpt lat="42.8702" lon="1.33011">
        <ele>1321</ele>
        <time>2021-04-04T14:35:35Z</time>
      </trkpt>
      <trkpt lat="42.87027" lon="1.33011">
        <ele>1320</ele>
        <time>2021-04-04T14:35:39Z</time>
      </trkpt>
      <trkpt lat="42.8703" lon="1.33007">
        <ele>1319</ele>
        <time>2021-04-04T14:35:44Z</time>
      </trkpt>
      <trkpt lat="42.87029" lon="1.33001">
        <ele>1319</ele>
        <time>2021-04-04T14:35:48Z</time>
      </trkpt>
      <trkpt lat="42.87034" lon="1.32999">
        <ele>1319</ele>
        <time>2021-04-04T14:36:01Z</time>
      </trkpt>
      <trkpt lat="42.87044" lon="1.33003">
        <ele>1318</ele>
        <time>2021-04-04T14:36:17Z</time>
      </trkpt>
      <trkpt lat="42.87038" lon="1.33026">
        <ele>1322</ele>
        <time>2021-04-04T14:36:38Z</time>
      </trkpt>
      <trkpt lat="42.87047" lon="1.33042">
        <ele>1318</ele>
        <time>2021-04-04T14:36:52Z</time>
      </trkpt>
      <trkpt lat="42.87046" lon="1.33069">
        <ele>1312</ele>
        <time>2021-04-04T14:37:07Z</time>
      </trkpt>
      <trkpt lat="42.87051" lon="1.33082">
        <ele>1309</ele>
        <time>2021-04-04T14:37:12Z</time>
      </trkpt>
      <trkpt lat="42.87062" lon="1.3309">
        <ele>1305</ele>
        <time>2021-04-04T14:37:19Z</time>
      </trkpt>
      <trkpt lat="42.87072" lon="1.33094">
        <ele>1303</ele>
        <time>2021-04-04T14:37:25Z</time>
      </trkpt>
      <trkpt lat="42.87092" lon="1.33108">
        <ele>1297</ele>
        <time>2021-04-04T14:37:40Z</time>
      </trkpt>
      <trkpt lat="42.87107" lon="1.33127">
        <ele>1292</ele>
        <time>2021-04-04T14:37:53Z</time>
      </trkpt>
      <trkpt lat="42.87117" lon="1.33145">
        <ele>1289</ele>
        <time>2021-04-04T14:38:04Z</time>
      </trkpt>
      <trkpt lat="42.87122" lon="1.33146">
        <ele>1288</ele>
        <time>2021-04-04T14:38:09Z</time>
      </trkpt>
      <trkpt lat="42.87123" lon="1.33153">
        <ele>1288</ele>
        <time>2021-04-04T14:38:15Z</time>
      </trkpt>
      <trkpt lat="42.87126" lon="1.33163">
        <ele>1286</ele>
        <time>2021-04-04T14:38:20Z</time>
      </trkpt>
      <trkpt lat="42.87133" lon="1.33173">
        <ele>1284</ele>
        <time>2021-04-04T14:38:28Z</time>
      </trkpt>
      <trkpt lat="42.87137" lon="1.33177">
        <ele>1284</ele>
        <time>2021-04-04T14:38:32Z</time>
      </trkpt>
      <trkpt lat="42.8715" lon="1.33198">
        <ele>1281</ele>
        <time>2021-04-04T14:38:45Z</time>
      </trkpt>
      <trkpt lat="42.87152" lon="1.33205">
        <ele>1280</ele>
        <time>2021-04-04T14:38:48Z</time>
      </trkpt>
      <trkpt lat="42.87152" lon="1.33214">
        <ele>1278</ele>
        <time>2021-04-04T14:38:52Z</time>
      </trkpt>
      <trkpt lat="42.87158" lon="1.33237">
        <ele>1272</ele>
        <time>2021-04-04T14:39:05Z</time>
      </trkpt>
      <trkpt lat="42.87162" lon="1.33242">
        <ele>1271</ele>
        <time>2021-04-04T14:39:08Z</time>
      </trkpt>
      <trkpt lat="42.87162" lon="1.33249">
        <ele>1270</ele>
        <time>2021-04-04T14:39:11Z</time>
      </trkpt>
      <trkpt lat="42.87162" lon="1.33255">
        <ele>1268</ele>
        <time>2021-04-04T14:39:14Z</time>
      </trkpt>
      <trkpt lat="42.87164" lon="1.33267">
        <ele>1267</ele>
        <time>2021-04-04T14:39:20Z</time>
      </trkpt>
      <trkpt lat="42.87167" lon="1.33272">
        <ele>1266</ele>
        <time>2021-04-04T14:39:45Z</time>
      </trkpt>
      <trkpt lat="42.87174" lon="1.33274">
        <ele>1265</ele>
        <time>2021-04-04T14:40:30Z</time>
      </trkpt>
      <trkpt lat="42.8717" lon="1.33271">
        <ele>1264</ele>
        <time>2021-04-04T14:41:24Z</time>
      </trkpt>
      <trkpt lat="42.8717" lon="1.3328">
        <ele>1263</ele>
        <time>2021-04-04T14:43:57Z</time>
      </trkpt>
      <trkpt lat="42.87172" lon="1.33287">
        <ele>1262</ele>
        <time>2021-04-04T14:44:00Z</time>
      </trkpt>
      <trkpt lat="42.87179" lon="1.33286">
        <ele>1261</ele>
        <time>2021-04-04T14:44:06Z</time>
      </trkpt>
      <trkpt lat="42.87184" lon="1.33288">
        <ele>1260</ele>
        <time>2021-04-04T14:44:09Z</time>
      </trkpt>
      <trkpt lat="42.87186" lon="1.33278">
        <ele>1260</ele>
        <time>2021-04-04T14:44:52Z</time>
      </trkpt>
      <trkpt lat="42.87189" lon="1.33272">
        <ele>1259</ele>
        <time>2021-04-04T14:44:56Z</time>
      </trkpt>
      <trkpt lat="42.87193" lon="1.33265">
        <ele>1259</ele>
        <time>2021-04-04T14:45:27Z</time>
      </trkpt>
      <trkpt lat="42.87194" lon="1.33258">
        <ele>1259</ele>
        <time>2021-04-04T14:45:30Z</time>
      </trkpt>
      <trkpt lat="42.87197" lon="1.33251">
        <ele>1259</ele>
        <time>2021-04-04T14:45:33Z</time>
      </trkpt>
      <trkpt lat="42.87202" lon="1.33245">
        <ele>1259</ele>
        <time>2021-04-04T14:45:36Z</time>
      </trkpt>
      <trkpt lat="42.87206" lon="1.33232">
        <ele>1258</ele>
        <time>2021-04-04T14:45:41Z</time>
      </trkpt>
      <trkpt lat="42.87229" lon="1.33154">
        <ele>1253</ele>
        <time>2021-04-04T14:45:59Z</time>
      </trkpt>
      <trkpt lat="42.87231" lon="1.33075">
        <ele>1246</ele>
        <time>2021-04-04T14:46:17Z</time>
      </trkpt>
      <trkpt lat="42.87229" lon="1.33066">
        <ele>1245</ele>
        <time>2021-04-04T14:46:19Z</time>
      </trkpt>
      <trkpt lat="42.87211" lon="1.32993">
        <ele>1239</ele>
        <time>2021-04-04T14:46:37Z</time>
      </trkpt>
      <trkpt lat="42.87207" lon="1.32977">
        <ele>1238</ele>
        <time>2021-04-04T14:46:41Z</time>
      </trkpt>
      <trkpt lat="42.87201" lon="1.32924">
        <ele>1233</ele>
        <time>2021-04-04T14:46:55Z</time>
      </trkpt>
      <trkpt lat="42.87171" lon="1.32869">
        <ele>1228</ele>
        <time>2021-04-04T14:47:11Z</time>
      </trkpt>
      <trkpt lat="42.87089" lon="1.32753">
        <ele>1216</ele>
        <time>2021-04-04T14:47:43Z</time>
      </trkpt>
      <trkpt lat="42.87077" lon="1.32733">
        <ele>1214</ele>
        <time>2021-04-04T14:47:49Z</time>
      </trkpt>
      <trkpt lat="42.8707" lon="1.32729">
        <ele>1214</ele>
        <time>2021-04-04T14:47:51Z</time>
      </trkpt>
      <trkpt lat="42.87063" lon="1.32729">
        <ele>1213</ele>
        <time>2021-04-04T14:47:53Z</time>
      </trkpt>
      <trkpt lat="42.87051" lon="1.3273">
        <ele>1211</ele>
        <time>2021-04-04T14:47:59Z</time>
      </trkpt>
      <trkpt lat="42.87046" lon="1.32727">
        <ele>1210</ele>
        <time>2021-04-04T14:48:02Z</time>
      </trkpt>
      <trkpt lat="42.87037" lon="1.32722">
        <ele>1209</ele>
        <time>2021-04-04T14:48:08Z</time>
      </trkpt>
      <trkpt lat="42.87019" lon="1.32719">
        <ele>1207</ele>
        <time>2021-04-04T14:48:18Z</time>
      </trkpt>
      <trkpt lat="42.87008" lon="1.3272">
        <ele>1205</ele>
        <time>2021-04-04T14:48:24Z</time>
      </trkpt>
      <trkpt lat="42.87003" lon="1.32719">
        <ele>1205</ele>
        <time>2021-04-04T14:48:27Z</time>
      </trkpt>
      <trkpt lat="42.87008" lon="1.32711">
        <ele>1203</ele>
        <time>2021-04-04T14:48:35Z</time>
      </trkpt>
      <trkpt lat="42.87013" lon="1.32714">
        <ele>1203</ele>
        <time>2021-04-04T14:48:38Z</time>
      </trkpt>
      <trkpt lat="42.87018" lon="1.32714">
        <ele>1202</ele>
        <time>2021-04-04T14:48:41Z</time>
      </trkpt>
      <trkpt lat="42.87025" lon="1.32714">
        <ele>1200</ele>
        <time>2021-04-04T14:48:46Z</time>
      </trkpt>
      <trkpt lat="42.87031" lon="1.32712">
        <ele>1199</ele>
        <time>2021-04-04T14:48:50Z</time>
      </trkpt>
      <trkpt lat="42.87058" lon="1.32706">
        <ele>1194</ele>
        <time>2021-04-04T14:49:07Z</time>
      </trkpt>
      <trkpt lat="42.87063" lon="1.32706">
        <ele>1193</ele>
        <time>2021-04-04T14:49:10Z</time>
      </trkpt>
      <trkpt lat="42.87068" lon="1.32704">
        <ele>1192</ele>
        <time>2021-04-04T14:49:13Z</time>
      </trkpt>
      <trkpt lat="42.87079" lon="1.32703">
        <ele>1191</ele>
        <time>2021-04-04T14:49:19Z</time>
      </trkpt>
      <trkpt lat="42.87099" lon="1.32707">
        <ele>1189</ele>
        <time>2021-04-04T14:49:31Z</time>
      </trkpt>
      <trkpt lat="42.87118" lon="1.32705">
        <ele>1187</ele>
        <time>2021-04-04T14:49:43Z</time>
      </trkpt>
      <trkpt lat="42.87123" lon="1.32686">
        <ele>1183</ele>
        <time>2021-04-04T14:49:52Z</time>
      </trkpt>
      <trkpt lat="42.87139" lon="1.32663">
        <ele>1177</ele>
        <time>2021-04-04T14:50:04Z</time>
      </trkpt>
      <trkpt lat="42.87158" lon="1.32646">
        <ele>1173</ele>
        <time>2021-04-04T14:50:11Z</time>
      </trkpt>
      <trkpt lat="42.87164" lon="1.32634">
        <ele>1171</ele>
        <time>2021-04-04T14:50:16Z</time>
      </trkpt>
      <trkpt lat="42.87164" lon="1.3262">
        <ele>1170</ele>
        <time>2021-04-04T14:50:26Z</time>
      </trkpt>
      <trkpt lat="42.87159" lon="1.32608">
        <ele>1170</ele>
        <time>2021-04-04T14:50:32Z</time>
      </trkpt>
      <trkpt lat="42.87157" lon="1.32596">
        <ele>1169</ele>
        <time>2021-04-04T14:50:39Z</time>
      </trkpt>
      <trkpt lat="42.87161" lon="1.32584">
        <ele>1169</ele>
        <time>2021-04-04T14:50:44Z</time>
      </trkpt>
      <trkpt lat="42.87166" lon="1.32573">
        <ele>1169</ele>
        <time>2021-04-04T14:50:49Z</time>
      </trkpt>
      <trkpt lat="42.87175" lon="1.32561">
        <ele>1167</ele>
        <time>2021-04-04T14:50:58Z</time>
      </trkpt>
      <trkpt lat="42.87179" lon="1.32549">
        <ele>1164</ele>
        <time>2021-04-04T14:51:04Z</time>
      </trkpt>
      <trkpt lat="42.87183" lon="1.32539">
        <ele>1162</ele>
        <time>2021-04-04T14:51:09Z</time>
      </trkpt>
      <trkpt lat="42.87191" lon="1.3253">
        <ele>1159</ele>
        <time>2021-04-04T14:51:16Z</time>
      </trkpt>
      <trkpt lat="42.87196" lon="1.3252">
        <ele>1157</ele>
        <time>2021-04-04T14:51:24Z</time>
      </trkpt>
      <trkpt lat="42.87197" lon="1.32508">
        <ele>1153</ele>
        <time>2021-04-04T14:51:32Z</time>
      </trkpt>
      <trkpt lat="42.87205" lon="1.325">
        <ele>1151</ele>
        <time>2021-04-04T14:51:41Z</time>
      </trkpt>
      <trkpt lat="42.87214" lon="1.32479">
        <ele>1144</ele>
        <time>2021-04-04T14:51:57Z</time>
      </trkpt>
      <trkpt lat="42.87241" lon="1.32459">
        <ele>1136</ele>
        <time>2021-04-04T14:52:23Z</time>
      </trkpt>
      <trkpt lat="42.87253" lon="1.32458">
        <ele>1132</ele>
        <time>2021-04-04T14:52:39Z</time>
      </trkpt>
      <trkpt lat="42.87263" lon="1.32458">
        <ele>1130</ele>
        <time>2021-04-04T14:52:49Z</time>
      </trkpt>
      <trkpt lat="42.87273" lon="1.32451">
        <ele>1126</ele>
        <time>2021-04-04T14:53:00Z</time>
      </trkpt>
      <trkpt lat="42.87282" lon="1.32453">
        <ele>1123</ele>
        <time>2021-04-04T14:53:13Z</time>
      </trkpt>
      <trkpt lat="42.87291" lon="1.32446">
        <ele>1120</ele>
        <time>2021-04-04T14:53:22Z</time>
      </trkpt>
      <trkpt lat="42.87287" lon="1.32434">
        <ele>1118</ele>
        <time>2021-04-04T14:53:34Z</time>
      </trkpt>
      <trkpt lat="42.87293" lon="1.32416">
        <ele>1110</ele>
        <time>2021-04-04T14:53:52Z</time>
      </trkpt>
      <trkpt lat="42.87298" lon="1.32405">
        <ele>1105</ele>
        <time>2021-04-04T14:54:05Z</time>
      </trkpt>
      <trkpt lat="42.87312" lon="1.32412">
        <ele>1101</ele>
        <time>2021-04-04T14:54:20Z</time>
      </trkpt>
      <trkpt lat="42.87319" lon="1.32418">
        <ele>1100</ele>
        <time>2021-04-04T14:54:26Z</time>
      </trkpt>
      <trkpt lat="42.87322" lon="1.32423">
        <ele>1100</ele>
        <time>2021-04-04T14:54:29Z</time>
      </trkpt>
      <trkpt lat="42.87328" lon="1.32426">
        <ele>1099</ele>
        <time>2021-04-04T14:54:34Z</time>
      </trkpt>
      <trkpt lat="42.87338" lon="1.32426">
        <ele>1098</ele>
        <time>2021-04-04T14:54:40Z</time>
      </trkpt>
      <trkpt lat="42.87343" lon="1.32428">
        <ele>1098</ele>
        <time>2021-04-04T14:54:44Z</time>
      </trkpt>
      <trkpt lat="42.87348" lon="1.32433">
        <ele>1097</ele>
        <time>2021-04-04T14:54:49Z</time>
      </trkpt>
      <trkpt lat="42.87353" lon="1.32436">
        <ele>1096</ele>
        <time>2021-04-04T14:54:59Z</time>
      </trkpt>
      <trkpt lat="42.87358" lon="1.32434">
        <ele>1097</ele>
        <time>2021-04-04T14:56:16Z</time>
      </trkpt>
      <trkpt lat="42.87361" lon="1.32429">
        <ele>1096</ele>
        <time>2021-04-04T14:56:20Z</time>
      </trkpt>
      <trkpt lat="42.87366" lon="1.32422">
        <ele>1094</ele>
        <time>2021-04-04T14:56:27Z</time>
      </trkpt>
      <trkpt lat="42.87375" lon="1.32424">
        <ele>1092</ele>
        <time>2021-04-04T14:56:33Z</time>
      </trkpt>
      <trkpt lat="42.87385" lon="1.32417">
        <ele>1089</ele>
        <time>2021-04-04T14:56:40Z</time>
      </trkpt>
      <trkpt lat="42.87396" lon="1.32416">
        <ele>1087</ele>
        <time>2021-04-04T14:56:48Z</time>
      </trkpt>
      <trkpt lat="42.87401" lon="1.32413">
        <ele>1086</ele>
        <time>2021-04-04T14:56:52Z</time>
      </trkpt>
      <trkpt lat="42.87409" lon="1.32422">
        <ele>1082</ele>
        <time>2021-04-04T14:57:00Z</time>
      </trkpt>
      <trkpt lat="42.87418" lon="1.32427">
        <ele>1080</ele>
        <time>2021-04-04T14:57:07Z</time>
      </trkpt>
      <trkpt lat="42.87437" lon="1.32418">
        <ele>1073</ele>
        <time>2021-04-04T14:57:22Z</time>
      </trkpt>
      <trkpt lat="42.87442" lon="1.32414">
        <ele>1071</ele>
        <time>2021-04-04T14:57:26Z</time>
      </trkpt>
      <trkpt lat="42.87447" lon="1.32416">
        <ele>1069</ele>
        <time>2021-04-04T14:57:31Z</time>
      </trkpt>
      <trkpt lat="42.87465" lon="1.32427">
        <ele>1063</ele>
        <time>2021-04-04T14:57:46Z</time>
      </trkpt>
      <trkpt lat="42.8748" lon="1.3243">
        <ele>1058</ele>
        <time>2021-04-04T14:57:57Z</time>
      </trkpt>
      <trkpt lat="42.8749" lon="1.32427">
        <ele>1052</ele>
        <time>2021-04-04T14:58:05Z</time>
      </trkpt>
      <trkpt lat="42.87495" lon="1.32424">
        <ele>1048</ele>
        <time>2021-04-04T14:58:12Z</time>
      </trkpt>
      <trkpt lat="42.87507" lon="1.32421">
        <ele>1041</ele>
        <time>2021-04-04T14:58:28Z</time>
      </trkpt>
      <trkpt lat="42.87511" lon="1.32427">
        <ele>1039</ele>
        <time>2021-04-04T14:58:35Z</time>
      </trkpt>
      <trkpt lat="42.87517" lon="1.32429">
        <ele>1037</ele>
        <time>2021-04-04T14:58:40Z</time>
      </trkpt>
      <trkpt lat="42.8752" lon="1.32436">
        <ele>1034</ele>
        <time>2021-04-04T14:58:44Z</time>
      </trkpt>
      <trkpt lat="42.87522" lon="1.32441">
        <ele>1032</ele>
        <time>2021-04-04T14:58:47Z</time>
      </trkpt>
      <trkpt lat="42.87526" lon="1.32445">
        <ele>1030</ele>
        <time>2021-04-04T14:58:51Z</time>
      </trkpt>
      <trkpt lat="42.87529" lon="1.32453">
        <ele>1027</ele>
        <time>2021-04-04T14:58:57Z</time>
      </trkpt>
      <trkpt lat="42.87538" lon="1.32456">
        <ele>1023</ele>
        <time>2021-04-04T14:59:06Z</time>
      </trkpt>
      <trkpt lat="42.87551" lon="1.32458">
        <ele>1018</ele>
        <time>2021-04-04T14:59:21Z</time>
      </trkpt>
      <trkpt lat="42.87555" lon="1.32462">
        <ele>1016</ele>
        <time>2021-04-04T14:59:24Z</time>
      </trkpt>
      <trkpt lat="42.87566" lon="1.32467">
        <ele>1011</ele>
        <time>2021-04-04T14:59:33Z</time>
      </trkpt>
      <trkpt lat="42.87575" lon="1.32478">
        <ele>1005</ele>
        <time>2021-04-04T14:59:46Z</time>
      </trkpt>
      <trkpt lat="42.87592" lon="1.32486">
        <ele>998</ele>
        <time>2021-04-04T15:00:01Z</time>
      </trkpt>
      <trkpt lat="42.87597" lon="1.32486">
        <ele>996</ele>
        <time>2021-04-04T15:00:24Z</time>
      </trkpt>
      <trkpt lat="42.87602" lon="1.32483">
        <ele>993</ele>
        <time>2021-04-04T15:00:36Z</time>
      </trkpt>
      <trkpt lat="42.87621" lon="1.3248">
        <ele>982</ele>
        <time>2021-04-04T15:01:03Z</time>
      </trkpt>
      <trkpt lat="42.87626" lon="1.32478">
        <ele>979</ele>
        <time>2021-04-04T15:01:09Z</time>
      </trkpt>
      <trkpt lat="42.87642" lon="1.32477">
        <ele>971</ele>
        <time>2021-04-04T15:01:25Z</time>
      </trkpt>
      <trkpt lat="42.87661" lon="1.32468">
        <ele>961</ele>
        <time>2021-04-04T15:01:50Z</time>
      </trkpt>
      <trkpt lat="42.87666" lon="1.32461">
        <ele>959</ele>
        <time>2021-04-04T15:01:56Z</time>
      </trkpt>
      <trkpt lat="42.87676" lon="1.32462">
        <ele>954</ele>
        <time>2021-04-04T15:02:05Z</time>
      </trkpt>
      <trkpt lat="42.87683" lon="1.32459">
        <ele>949</ele>
        <time>2021-04-04T15:02:12Z</time>
      </trkpt>
      <trkpt lat="42.87699" lon="1.32459">
        <ele>943</ele>
        <time>2021-04-04T15:02:24Z</time>
      </trkpt>
      <trkpt lat="42.87703" lon="1.32462">
        <ele>941</ele>
        <time>2021-04-04T15:02:27Z</time>
      </trkpt>
      <trkpt lat="42.87708" lon="1.32464">
        <ele>939</ele>
        <time>2021-04-04T15:02:31Z</time>
      </trkpt>
      <trkpt lat="42.87717" lon="1.32469">
        <ele>936</ele>
        <time>2021-04-04T15:02:39Z</time>
      </trkpt>
      <trkpt lat="42.87724" lon="1.32488">
        <ele>934</ele>
        <time>2021-04-04T15:03:00Z</time>
      </trkpt>
      <trkpt lat="42.87735" lon="1.32516">
        <ele>930</ele>
        <time>2021-04-04T15:03:05Z</time>
      </trkpt>
      <trkpt lat="42.87763" lon="1.3253">
        <ele>923</ele>
        <time>2021-04-04T15:03:15Z</time>
      </trkpt>
      <trkpt lat="42.87767" lon="1.32534">
        <ele>920</ele>
        <time>2021-04-04T15:03:19Z</time>
      </trkpt>
      <trkpt lat="42.87784" lon="1.32542">
        <ele>916</ele>
        <time>2021-04-04T15:03:29Z</time>
      </trkpt>
      <trkpt lat="42.87791" lon="1.32552">
        <ele>913</ele>
        <time>2021-04-04T15:03:33Z</time>
      </trkpt>
      <trkpt lat="42.87797" lon="1.32555">
        <ele>912</ele>
        <time>2021-04-04T15:03:35Z</time>
      </trkpt>
      <trkpt lat="42.87803" lon="1.32556">
        <ele>911</ele>
        <time>2021-04-04T15:03:37Z</time>
      </trkpt>
      <trkpt lat="42.8781" lon="1.32552">
        <ele>908</ele>
        <time>2021-04-04T15:03:41Z</time>
      </trkpt>
      <trkpt lat="42.87821" lon="1.32551">
        <ele>905</ele>
        <time>2021-04-04T15:03:48Z</time>
      </trkpt>
      <trkpt lat="42.87827" lon="1.32553">
        <ele>904</ele>
        <time>2021-04-04T15:03:52Z</time>
      </trkpt>
      <trkpt lat="42.87837" lon="1.32553">
        <ele>903</ele>
        <time>2021-04-04T15:03:59Z</time>
      </trkpt>
      <trkpt lat="42.87842" lon="1.32552">
        <ele>902</ele>
        <time>2021-04-04T15:04:02Z</time>
      </trkpt>
      <trkpt lat="42.87857" lon="1.32556">
        <ele>898</ele>
        <time>2021-04-04T15:04:14Z</time>
      </trkpt>
      <trkpt lat="42.87867" lon="1.32549">
        <ele>896</ele>
        <time>2021-04-04T15:04:22Z</time>
      </trkpt>
      <trkpt lat="42.87872" lon="1.32549">
        <ele>895</ele>
        <time>2021-04-04T15:04:25Z</time>
      </trkpt>
      <trkpt lat="42.87881" lon="1.32546">
        <ele>890</ele>
        <time>2021-04-04T15:04:31Z</time>
      </trkpt>
      <trkpt lat="42.87893" lon="1.32546">
        <ele>884</ele>
        <time>2021-04-04T15:04:39Z</time>
      </trkpt>
      <trkpt lat="42.87905" lon="1.32531">
        <ele>880</ele>
        <time>2021-04-04T15:05:13Z</time>
      </trkpt>
      <trkpt lat="42.8791" lon="1.32521">
        <ele>877</ele>
        <time>2021-04-04T15:05:20Z</time>
      </trkpt>
      <trkpt lat="42.8792" lon="1.32524">
        <ele>870</ele>
        <time>2021-04-04T15:05:31Z</time>
      </trkpt>
      <trkpt lat="42.87927" lon="1.32535">
        <ele>867</ele>
        <time>2021-04-04T15:05:36Z</time>
      </trkpt>
      <trkpt lat="42.87935" lon="1.32546">
        <ele>864</ele>
        <time>2021-04-04T15:05:41Z</time>
      </trkpt>
      <trkpt lat="42.87937" lon="1.32551">
        <ele>862</ele>
        <time>2021-04-04T15:05:43Z</time>
      </trkpt>
      <trkpt lat="42.87944" lon="1.32562">
        <ele>856</ele>
        <time>2021-04-04T15:05:56Z</time>
      </trkpt>
      <trkpt lat="42.87951" lon="1.32566">
        <ele>853</ele>
        <time>2021-04-04T15:06:07Z</time>
      </trkpt>
      <trkpt lat="42.87955" lon="1.32563">
        <ele>852</ele>
        <time>2021-04-04T15:06:11Z</time>
      </trkpt>
      <trkpt lat="42.8796" lon="1.32564">
        <ele>851</ele>
        <time>2021-04-04T15:06:15Z</time>
      </trkpt>
      <trkpt lat="42.87965" lon="1.32568">
        <ele>849</ele>
        <time>2021-04-04T15:06:23Z</time>
      </trkpt>
      <trkpt lat="42.87968" lon="1.32573">
        <ele>847</ele>
        <time>2021-04-04T15:06:28Z</time>
      </trkpt>
      <trkpt lat="42.87974" lon="1.32575">
        <ele>847</ele>
        <time>2021-04-04T15:06:32Z</time>
      </trkpt>
      <trkpt lat="42.87988" lon="1.32579">
        <ele>842</ele>
        <time>2021-04-04T15:06:42Z</time>
      </trkpt>
      <trkpt lat="42.87993" lon="1.3259">
        <ele>840</ele>
        <time>2021-04-04T15:06:48Z</time>
      </trkpt>
      <trkpt lat="42.87999" lon="1.32592">
        <ele>839</ele>
        <time>2021-04-04T15:06:53Z</time>
      </trkpt>
      <trkpt lat="42.88003" lon="1.32594">
        <ele>838</ele>
        <time>2021-04-04T15:06:58Z</time>
      </trkpt>
      <trkpt lat="42.88034" lon="1.32626">
        <ele>831</ele>
        <time>2021-04-04T15:07:33Z</time>
      </trkpt>
      <trkpt lat="42.88044" lon="1.32631">
        <ele>827</ele>
        <time>2021-04-04T15:07:41Z</time>
      </trkpt>
      <trkpt lat="42.88059" lon="1.32638">
        <ele>821</ele>
        <time>2021-04-04T15:07:55Z</time>
      </trkpt>
      <trkpt lat="42.88063" lon="1.32636">
        <ele>820</ele>
        <time>2021-04-04T15:07:58Z</time>
      </trkpt>
      <trkpt lat="42.88072" lon="1.32618">
        <ele>816</ele>
        <time>2021-04-04T15:08:08Z</time>
      </trkpt>
      <trkpt lat="42.88094" lon="1.32611">
        <ele>809</ele>
        <time>2021-04-04T15:08:22Z</time>
      </trkpt>
      <trkpt lat="42.88104" lon="1.32604">
        <ele>806</ele>
        <time>2021-04-04T15:08:28Z</time>
      </trkpt>
      <trkpt lat="42.88108" lon="1.32603">
        <ele>805</ele>
        <time>2021-04-04T15:08:31Z</time>
      </trkpt>
      <trkpt lat="42.88126" lon="1.32607">
        <ele>802</ele>
        <time>2021-04-04T15:08:46Z</time>
      </trkpt>
      <trkpt lat="42.88132" lon="1.32602">
        <ele>801</ele>
        <time>2021-04-04T15:08:54Z</time>
      </trkpt>
      <trkpt lat="42.88133" lon="1.32593">
        <ele>801</ele>
        <time>2021-04-04T15:09:13Z</time>
      </trkpt>
      <trkpt lat="42.88137" lon="1.32587">
        <ele>801</ele>
        <time>2021-04-04T15:09:31Z</time>
      </trkpt>
      <trkpt lat="42.88142" lon="1.32578">
        <ele>801</ele>
        <time>2021-04-04T15:09:42Z</time>
      </trkpt>
      <trkpt lat="42.88149" lon="1.32566">
        <ele>797</ele>
        <time>2021-04-04T15:09:52Z</time>
      </trkpt>
      <trkpt lat="42.88152" lon="1.32554">
        <ele>795</ele>
        <time>2021-04-04T15:10:01Z</time>
      </trkpt>
      <trkpt lat="42.88154" lon="1.32528">
        <ele>790</ele>
        <time>2021-04-04T15:10:16Z</time>
      </trkpt>
      <trkpt lat="42.88159" lon="1.32506">
        <ele>789</ele>
        <time>2021-04-04T15:10:24Z</time>
      </trkpt>
      <trkpt lat="42.88186" lon="1.32463">
        <ele>783</ele>
        <time>2021-04-04T15:10:48Z</time>
      </trkpt>
      <trkpt lat="42.88197" lon="1.3244">
        <ele>782</ele>
        <time>2021-04-04T15:11:02Z</time>
      </trkpt>
      <trkpt lat="42.88204" lon="1.32433">
        <ele>780</ele>
        <time>2021-04-04T15:11:10Z</time>
      </trkpt>
      <trkpt lat="42.88216" lon="1.32445">
        <ele>779</ele>
        <time>2021-04-04T15:11:21Z</time>
      </trkpt>
      <trkpt lat="42.88227" lon="1.32448">
        <ele>779</ele>
        <time>2021-04-04T15:11:28Z</time>
      </trkpt>
      <trkpt lat="42.88242" lon="1.32446">
        <ele>778</ele>
        <time>2021-04-04T15:11:42Z</time>
      </trkpt>
      <trkpt lat="42.88248" lon="1.32446">
        <ele>778</ele>
        <time>2021-04-04T15:11:46Z</time>
      </trkpt>
      <trkpt lat="42.8827" lon="1.32442">
        <ele>778</ele>
        <time>2021-04-04T15:12:00Z</time>
      </trkpt>
      <trkpt lat="42.88279" lon="1.32446">
        <ele>778</ele>
        <time>2021-04-04T15:12:06Z</time>
      </trkpt>
      <trkpt lat="42.88291" lon="1.32446">
        <ele>777</ele>
        <time>2021-04-04T15:12:12Z</time>
      </trkpt>
      <trkpt lat="42.88315" lon="1.32438">
        <ele>776</ele>
        <time>2021-04-04T15:12:28Z</time>
      </trkpt>
      <trkpt lat="42.8832" lon="1.32439">
        <ele>776</ele>
        <time>2021-04-04T15:12:31Z</time>
      </trkpt>
      <trkpt lat="42.88325" lon="1.32438">
        <ele>776</ele>
        <time>2021-04-04T15:12:35Z</time>
      </trkpt>
      <trkpt lat="42.8833" lon="1.32439">
        <ele>776</ele>
        <time>2021-04-04T15:12:39Z</time>
      </trkpt>
      <trkpt lat="42.88351" lon="1.3243">
        <ele>774</ele>
        <time>2021-04-04T15:12:53Z</time>
      </trkpt>
      <trkpt lat="42.88355" lon="1.32427">
        <ele>774</ele>
        <time>2021-04-04T15:12:57Z</time>
      </trkpt>
      <trkpt lat="42.8836" lon="1.32425">
        <ele>774</ele>
        <time>2021-04-04T15:13:03Z</time>
      </trkpt>
      <trkpt lat="42.88365" lon="1.32425">
        <ele>773</ele>
        <time>2021-04-04T15:13:06Z</time>
      </trkpt>
      <trkpt lat="42.88385" lon="1.32429">
        <ele>770</ele>
        <time>2021-04-04T15:13:18Z</time>
      </trkpt>
      <trkpt lat="42.88405" lon="1.32429">
        <ele>768</ele>
        <time>2021-04-04T15:13:32Z</time>
      </trkpt>
      <trkpt lat="42.8841" lon="1.3243">
        <ele>767</ele>
        <time>2021-04-04T15:13:35Z</time>
      </trkpt>
      <trkpt lat="42.88426" lon="1.32431">
        <ele>764</ele>
        <time>2021-04-04T15:13:46Z</time>
      </trkpt>
      <trkpt lat="42.88436" lon="1.32428">
        <ele>763</ele>
        <time>2021-04-04T15:13:53Z</time>
      </trkpt>
      <trkpt lat="42.88441" lon="1.32429">
        <ele>762</ele>
        <time>2021-04-04T15:13:56Z</time>
      </trkpt>
      <trkpt lat="42.88445" lon="1.32428">
        <ele>761</ele>
        <time>2021-04-04T15:13:59Z</time>
      </trkpt>
      <trkpt lat="42.8845" lon="1.32428">
        <ele>761</ele>
        <time>2021-04-04T15:14:02Z</time>
      </trkpt>
      <trkpt lat="42.88455" lon="1.32428">
        <ele>762</ele>
        <time>2021-04-04T15:14:06Z</time>
      </trkpt>
      <trkpt lat="42.8846" lon="1.32425">
        <ele>763</ele>
        <time>2021-04-04T15:14:10Z</time>
      </trkpt>
      <trkpt lat="42.88471" lon="1.32423">
        <ele>765</ele>
        <time>2021-04-04T15:14:18Z</time>
      </trkpt>
      <trkpt lat="42.88476" lon="1.3242">
        <ele>765</ele>
        <time>2021-04-04T15:14:21Z</time>
      </trkpt>
      <trkpt lat="42.88484" lon="1.32413">
        <ele>765</ele>
        <time>2021-04-04T15:14:27Z</time>
      </trkpt>
      <trkpt lat="42.88505" lon="1.3241">
        <ele>764</ele>
        <time>2021-04-04T15:14:41Z</time>
      </trkpt>
      <trkpt lat="42.88508" lon="1.32406">
        <ele>764</ele>
        <time>2021-04-04T15:14:46Z</time>
      </trkpt>
      <trkpt lat="42.88514" lon="1.32403">
        <ele>763</ele>
        <time>2021-04-04T15:18:28Z</time>
      </trkpt>
      <trkpt lat="42.88519" lon="1.32406">
        <ele>762</ele>
        <time>2021-04-04T15:18:31Z</time>
      </trkpt>
      <trkpt lat="42.88531" lon="1.3242">
        <ele>761</ele>
        <time>2021-04-04T15:18:40Z</time>
      </trkpt>
      <trkpt lat="42.88534" lon="1.32425">
        <ele>761</ele>
        <time>2021-04-04T15:18:43Z</time>
      </trkpt>
      <trkpt lat="42.88536" lon="1.32433">
        <ele>760</ele>
        <time>2021-04-04T15:18:49Z</time>
      </trkpt>
      <trkpt lat="42.88551" lon="1.32453">
        <ele>760</ele>
        <time>2021-04-04T15:19:01Z</time>
      </trkpt>
      <trkpt lat="42.88563" lon="1.32466">
        <ele>760</ele>
        <time>2021-04-04T15:19:09Z</time>
      </trkpt>
      <trkpt lat="42.88585" lon="1.32483">
        <ele>759</ele>
        <time>2021-04-04T15:19:24Z</time>
      </trkpt>
      <trkpt lat="42.8859" lon="1.32483">
        <ele>759</ele>
        <time>2021-04-04T15:19:27Z</time>
      </trkpt>
      <trkpt lat="42.88595" lon="1.32482">
        <ele>760</ele>
        <time>2021-04-04T15:19:30Z</time>
      </trkpt>
      <trkpt lat="42.88599" lon="1.3248">
        <ele>760</ele>
        <time>2021-04-04T15:19:33Z</time>
      </trkpt>
      <trkpt lat="42.88611" lon="1.32466">
        <ele>760</ele>
        <time>2021-04-04T15:19:42Z</time>
      </trkpt>
      <trkpt lat="42.88616" lon="1.32463">
        <ele>760</ele>
        <time>2021-04-04T15:19:45Z</time>
      </trkpt>
      <trkpt lat="42.88619" lon="1.32459">
        <ele>760</ele>
        <time>2021-04-04T15:19:48Z</time>
      </trkpt>
      <trkpt lat="42.88625" lon="1.32456">
        <ele>760</ele>
        <time>2021-04-04T15:19:52Z</time>
      </trkpt>
      <trkpt lat="42.88644" lon="1.32455">
        <ele>760</ele>
        <time>2021-04-04T15:20:04Z</time>
      </trkpt>
      <trkpt lat="42.88658" lon="1.32456">
        <ele>761</ele>
        <time>2021-04-04T15:20:13Z</time>
      </trkpt>
      <trkpt lat="42.88664" lon="1.32455">
        <ele>761</ele>
        <time>2021-04-04T15:20:16Z</time>
      </trkpt>
      <trkpt lat="42.88668" lon="1.32452">
        <ele>761</ele>
        <time>2021-04-04T15:20:19Z</time>
      </trkpt>
      <trkpt lat="42.88673" lon="1.32447">
        <ele>762</ele>
        <time>2021-04-04T15:20:23Z</time>
      </trkpt>
      <trkpt lat="42.88678" lon="1.32445">
        <ele>762</ele>
        <time>2021-04-04T15:20:26Z</time>
      </trkpt>
      <trkpt lat="42.88688" lon="1.32443">
        <ele>762</ele>
        <time>2021-04-04T15:20:32Z</time>
      </trkpt>
      <trkpt lat="42.88702" lon="1.32446">
        <ele>762</ele>
        <time>2021-04-04T15:20:47Z</time>
      </trkpt>
      <trkpt lat="42.88713" lon="1.32448">
        <ele>763</ele>
        <time>2021-04-04T15:20:53Z</time>
      </trkpt>
      <trkpt lat="42.88723" lon="1.32447">
        <ele>763</ele>
        <time>2021-04-04T15:20:59Z</time>
      </trkpt>
      <trkpt lat="42.88732" lon="1.32442">
        <ele>763</ele>
        <time>2021-04-04T15:21:05Z</time>
      </trkpt>
      <trkpt lat="42.88744" lon="1.32429">
        <ele>763</ele>
        <time>2021-04-04T15:21:15Z</time>
      </trkpt>
      <trkpt lat="42.88776" lon="1.32382">
        <ele>762</ele>
        <time>2021-04-04T15:21:42Z</time>
      </trkpt>
      <trkpt lat="42.88816" lon="1.32352">
        <ele>765</ele>
        <time>2021-04-04T15:22:09Z</time>
      </trkpt>
      <trkpt lat="42.88823" lon="1.32343">
        <ele>765</ele>
        <time>2021-04-04T15:22:15Z</time>
      </trkpt>
      <trkpt lat="42.88841" lon="1.32309">
        <ele>766</ele>
        <time>2021-04-04T15:22:34Z</time>
      </trkpt>
      <trkpt lat="42.88846" lon="1.32303">
        <ele>767</ele>
        <time>2021-04-04T15:22:38Z</time>
      </trkpt>
      <trkpt lat="42.88864" lon="1.32291">
        <ele>767</ele>
        <time>2021-04-04T15:22:50Z</time>
      </trkpt>
      <trkpt lat="42.88897" lon="1.32266">
        <ele>767</ele>
        <time>2021-04-04T15:23:13Z</time>
      </trkpt>
      <trkpt lat="42.8891" lon="1.32257">
        <ele>768</ele>
        <time>2021-04-04T15:23:22Z</time>
      </trkpt>
      <trkpt lat="42.88915" lon="1.32257">
        <ele>768</ele>
        <time>2021-04-04T15:23:26Z</time>
      </trkpt>
      <trkpt lat="42.8892" lon="1.32259">
        <ele>768</ele>
        <time>2021-04-04T15:23:30Z</time>
      </trkpt>
      <trkpt lat="42.88948" lon="1.32273">
        <ele>766</ele>
        <time>2021-04-04T15:23:48Z</time>
      </trkpt>
      <trkpt lat="42.88963" lon="1.32275">
        <ele>765</ele>
        <time>2021-04-04T15:23:57Z</time>
      </trkpt>
      <trkpt lat="42.88973" lon="1.32279">
        <ele>765</ele>
        <time>2021-04-04T15:24:03Z</time>
      </trkpt>
      <trkpt lat="42.88991" lon="1.32285">
        <ele>764</ele>
        <time>2021-04-04T15:24:14Z</time>
      </trkpt>
      <trkpt lat="42.88995" lon="1.32288">
        <ele>764</ele>
        <time>2021-04-04T15:24:17Z</time>
      </trkpt>
      <trkpt lat="42.89005" lon="1.32291">
        <ele>764</ele>
        <time>2021-04-04T15:24:24Z</time>
      </trkpt>
      <trkpt lat="42.89024" lon="1.32284">
        <ele>766</ele>
        <time>2021-04-04T15:24:35Z</time>
      </trkpt>
      <trkpt lat="42.89033" lon="1.32275">
        <ele>766</ele>
        <time>2021-04-04T15:24:41Z</time>
      </trkpt>
      <trkpt lat="42.89036" lon="1.32269">
        <ele>766</ele>
        <time>2021-04-04T15:24:44Z</time>
      </trkpt>
      <trkpt lat="42.8904" lon="1.32256">
        <ele>765</ele>
        <time>2021-04-04T15:24:50Z</time>
      </trkpt>
      <trkpt lat="42.89041" lon="1.32249">
        <ele>765</ele>
        <time>2021-04-04T15:24:53Z</time>
      </trkpt>
      <trkpt lat="42.89047" lon="1.3223">
        <ele>765</ele>
        <time>2021-04-04T15:25:02Z</time>
      </trkpt>
      <trkpt lat="42.8905" lon="1.32224">
        <ele>764</ele>
        <time>2021-04-04T15:25:05Z</time>
      </trkpt>
      <trkpt lat="42.89054" lon="1.32206">
        <ele>763</ele>
        <time>2021-04-04T15:25:13Z</time>
      </trkpt>
      <trkpt lat="42.89063" lon="1.32188">
        <ele>760</ele>
        <time>2021-04-04T15:25:21Z</time>
      </trkpt>
      <trkpt lat="42.89083" lon="1.32139">
        <ele>752</ele>
        <time>2021-04-04T15:25:39Z</time>
      </trkpt>
      <trkpt lat="42.89086" lon="1.32133">
        <ele>751</ele>
        <time>2021-04-04T15:25:41Z</time>
      </trkpt>
      <trkpt lat="42.89091" lon="1.32116">
        <ele>747</ele>
        <time>2021-04-04T15:25:47Z</time>
      </trkpt>
      <trkpt lat="42.89092" lon="1.32102">
        <ele>743</ele>
        <time>2021-04-04T15:25:53Z</time>
      </trkpt>
      <trkpt lat="42.8909" lon="1.32089">
        <ele>738</ele>
        <time>2021-04-04T15:25:59Z</time>
      </trkpt>
      <trkpt lat="42.89093" lon="1.32085">
        <ele>737</ele>
        <time>2021-04-04T15:26:03Z</time>
      </trkpt>
      <trkpt lat="42.89093" lon="1.32077">
        <ele>735</ele>
        <time>2021-04-04T15:26:10Z</time>
      </trkpt>
      <trkpt lat="42.89093" lon="1.3207">
        <ele>733</ele>
        <time>2021-04-04T15:26:17Z</time>
      </trkpt>
      <trkpt lat="42.89098" lon="1.32069">
        <ele>730</ele>
        <time>2021-04-04T15:26:27Z</time>
      </trkpt>
      <trkpt lat="42.89115" lon="1.32076">
        <ele>730</ele>
        <time>2021-04-04T15:26:39Z</time>
      </trkpt>
      <trkpt lat="42.89123" lon="1.32074">
        <ele>729</ele>
        <time>2021-04-04T15:26:46Z</time>
      </trkpt>
      <trkpt lat="42.89133" lon="1.32075">
        <ele>729</ele>
        <time>2021-04-04T15:26:54Z</time>
      </trkpt>
      <trkpt lat="42.89143" lon="1.32071">
        <ele>729</ele>
        <time>2021-04-04T15:27:01Z</time>
      </trkpt>
      <trkpt lat="42.89152" lon="1.32073">
        <ele>729</ele>
        <time>2021-04-04T15:27:07Z</time>
      </trkpt>
      <trkpt lat="42.89171" lon="1.3208">
        <ele>728</ele>
        <time>2021-04-04T15:27:20Z</time>
      </trkpt>
      <trkpt lat="42.89197" lon="1.32075">
        <ele>726</ele>
        <time>2021-04-04T15:27:36Z</time>
      </trkpt>
      <trkpt lat="42.89224" lon="1.32064">
        <ele>725</ele>
        <time>2021-04-04T15:27:54Z</time>
      </trkpt>
      <trkpt lat="42.8927" lon="1.32043">
        <ele>727</ele>
        <time>2021-04-04T15:28:24Z</time>
      </trkpt>
      <trkpt lat="42.89277" lon="1.32035">
        <ele>727</ele>
        <time>2021-04-04T15:28:30Z</time>
      </trkpt>
      <trkpt lat="42.89283" lon="1.32023">
        <ele>728</ele>
        <time>2021-04-04T15:28:36Z</time>
      </trkpt>
      <trkpt lat="42.89305" lon="1.31985">
        <ele>726</ele>
        <time>2021-04-04T15:28:56Z</time>
      </trkpt>
      <trkpt lat="42.89334" lon="1.31945">
        <ele>723</ele>
        <time>2021-04-04T15:29:24Z</time>
      </trkpt>
      <trkpt lat="42.89344" lon="1.31937">
        <ele>723</ele>
        <time>2021-04-04T15:29:32Z</time>
      </trkpt>
      <trkpt lat="42.89346" lon="1.31931">
        <ele>723</ele>
        <time>2021-04-04T15:29:35Z</time>
      </trkpt>
      <trkpt lat="42.89354" lon="1.31915">
        <ele>722</ele>
        <time>2021-04-04T15:29:44Z</time>
      </trkpt>
      <trkpt lat="42.89367" lon="1.31903">
        <ele>723</ele>
        <time>2021-04-04T15:29:53Z</time>
      </trkpt>
      <trkpt lat="42.8937" lon="1.31898">
        <ele>723</ele>
        <time>2021-04-04T15:29:56Z</time>
      </trkpt>
      <trkpt lat="42.89375" lon="1.31885">
        <ele>722</ele>
        <time>2021-04-04T15:30:02Z</time>
      </trkpt>
      <trkpt lat="42.89382" lon="1.31876">
        <ele>722</ele>
        <time>2021-04-04T15:30:08Z</time>
      </trkpt>
      <trkpt lat="42.89393" lon="1.31855">
        <ele>721</ele>
        <time>2021-04-04T15:30:20Z</time>
      </trkpt>
      <trkpt lat="42.89406" lon="1.31841">
        <ele>720</ele>
        <time>2021-04-04T15:30:30Z</time>
      </trkpt>
      <trkpt lat="42.89415" lon="1.31825">
        <ele>720</ele>
        <time>2021-04-04T15:30:40Z</time>
      </trkpt>
      <trkpt lat="42.89423" lon="1.31814">
        <ele>719</ele>
        <time>2021-04-04T15:30:47Z</time>
      </trkpt>
      <trkpt lat="42.89426" lon="1.31809">
        <ele>719</ele>
        <time>2021-04-04T15:30:50Z</time>
      </trkpt>
      <trkpt lat="42.89428" lon="1.31803">
        <ele>719</ele>
        <time>2021-04-04T15:30:53Z</time>
      </trkpt>
      <trkpt lat="42.8944" lon="1.31788">
        <ele>718</ele>
        <time>2021-04-04T15:31:02Z</time>
      </trkpt>
      <trkpt lat="42.89447" lon="1.31771">
        <ele>715</ele>
        <time>2021-04-04T15:31:11Z</time>
      </trkpt>
      <trkpt lat="42.89446" lon="1.31764">
        <ele>715</ele>
        <time>2021-04-04T15:31:15Z</time>
      </trkpt>
      <trkpt lat="42.89443" lon="1.31754">
        <ele>714</ele>
        <time>2021-04-04T15:31:21Z</time>
      </trkpt>
      <trkpt lat="42.89443" lon="1.31748">
        <ele>714</ele>
        <time>2021-04-04T15:31:24Z</time>
      </trkpt>
      <trkpt lat="42.89445" lon="1.31742">
        <ele>714</ele>
        <time>2021-04-04T15:31:27Z</time>
      </trkpt>
      <trkpt lat="42.89446" lon="1.31728">
        <ele>714</ele>
        <time>2021-04-04T15:31:34Z</time>
      </trkpt>
      <trkpt lat="42.8945" lon="1.31715">
        <ele>713</ele>
        <time>2021-04-04T15:31:41Z</time>
      </trkpt>
      <trkpt lat="42.89453" lon="1.31709">
        <ele>713</ele>
        <time>2021-04-04T15:31:44Z</time>
      </trkpt>
      <trkpt lat="42.89457" lon="1.31705">
        <ele>713</ele>
        <time>2021-04-04T15:31:47Z</time>
      </trkpt>
      <trkpt lat="42.89496" lon="1.31674">
        <ele>710</ele>
        <time>2021-04-04T15:32:16Z</time>
      </trkpt>
      <trkpt lat="42.89528" lon="1.31638">
        <ele>708</ele>
        <time>2021-04-04T15:32:41Z</time>
      </trkpt>
      <trkpt lat="42.89533" lon="1.31626">
        <ele>707</ele>
        <time>2021-04-04T15:32:48Z</time>
      </trkpt>
      <trkpt lat="42.89534" lon="1.3161">
        <ele>706</ele>
        <time>2021-04-04T15:33:06Z</time>
      </trkpt>
      <trkpt lat="42.89536" lon="1.31602">
        <ele>705</ele>
        <time>2021-04-04T15:33:10Z</time>
      </trkpt>
      <trkpt lat="42.89535" lon="1.31576">
        <ele>702</ele>
        <time>2021-04-04T15:33:16Z</time>
      </trkpt>
      <trkpt lat="42.89537" lon="1.31567">
        <ele>702</ele>
        <time>2021-04-04T15:33:18Z</time>
      </trkpt>
      <trkpt lat="42.89558" lon="1.31518">
        <ele>696</ele>
        <time>2021-04-04T15:33:30Z</time>
      </trkpt>
      <trkpt lat="42.89567" lon="1.31488">
        <ele>691</ele>
        <time>2021-04-04T15:33:39Z</time>
      </trkpt>
      <trkpt lat="42.89574" lon="1.31476">
        <ele>689</ele>
        <time>2021-04-04T15:33:43Z</time>
      </trkpt>
      <trkpt lat="42.89579" lon="1.31455">
        <ele>687</ele>
        <time>2021-04-04T15:33:49Z</time>
      </trkpt>
      <trkpt lat="42.89594" lon="1.31431">
        <ele>682</ele>
        <time>2021-04-04T15:33:57Z</time>
      </trkpt>
      <trkpt lat="42.89603" lon="1.31423">
        <ele>680</ele>
        <time>2021-04-04T15:34:01Z</time>
      </trkpt>
      <trkpt lat="42.89608" lon="1.31418">
        <ele>679</ele>
        <time>2021-04-04T15:34:03Z</time>
      </trkpt>
      <trkpt lat="42.8961" lon="1.31412">
        <ele>678</ele>
        <time>2021-04-04T15:34:05Z</time>
      </trkpt>
      <trkpt lat="42.89611" lon="1.31405">
        <ele>677</ele>
        <time>2021-04-04T15:34:07Z</time>
      </trkpt>
      <trkpt lat="42.89608" lon="1.31398">
        <ele>676</ele>
        <time>2021-04-04T15:34:09Z</time>
      </trkpt>
      <trkpt lat="42.89596" lon="1.31395">
        <ele>674</ele>
        <time>2021-04-04T15:34:13Z</time>
      </trkpt>
      <trkpt lat="42.89582" lon="1.31399">
        <ele>673</ele>
        <time>2021-04-04T15:34:17Z</time>
      </trkpt>
      <trkpt lat="42.89571" lon="1.31403">
        <ele>671</ele>
        <time>2021-04-04T15:34:21Z</time>
      </trkpt>
      <trkpt lat="42.8956" lon="1.31404">
        <ele>670</ele>
        <time>2021-04-04T15:34:25Z</time>
      </trkpt>
      <trkpt lat="42.89555" lon="1.31407">
        <ele>669</ele>
        <time>2021-04-04T15:34:27Z</time>
      </trkpt>
      <trkpt lat="42.89549" lon="1.31404">
        <ele>668</ele>
        <time>2021-04-04T15:34:31Z</time>
      </trkpt>
      <trkpt lat="42.8956" lon="1.31392">
        <ele>665</ele>
        <time>2021-04-04T15:34:36Z</time>
      </trkpt>
      <trkpt lat="42.89591" lon="1.31364">
        <ele>662</ele>
        <time>2021-04-04T15:34:48Z</time>
      </trkpt>
      <trkpt lat="42.89593" lon="1.31358">
        <ele>661</ele>
        <time>2021-04-04T15:34:50Z</time>
      </trkpt>
      <trkpt lat="42.89597" lon="1.31352">
        <ele>660</ele>
        <time>2021-04-04T15:34:52Z</time>
      </trkpt>
      <trkpt lat="42.89603" lon="1.3135">
        <ele>659</ele>
        <time>2021-04-04T15:34:54Z</time>
      </trkpt>
      <trkpt lat="42.89611" lon="1.31336">
        <ele>657</ele>
        <time>2021-04-04T15:35:03Z</time>
      </trkpt>
      <trkpt lat="42.89613" lon="1.3133">
        <ele>657</ele>
        <time>2021-04-04T15:35:06Z</time>
      </trkpt>
      <trkpt lat="42.89621" lon="1.31322">
        <ele>655</ele>
        <time>2021-04-04T15:35:14Z</time>
      </trkpt>
      <trkpt lat="42.89625" lon="1.31323">
        <ele>654</ele>
        <time>2021-04-04T15:35:18Z</time>
      </trkpt>
      <trkpt lat="42.89633" lon="1.31331">
        <ele>653</ele>
        <time>2021-04-04T15:35:25Z</time>
      </trkpt>
      <trkpt lat="42.89643" lon="1.31331">
        <ele>652</ele>
        <time>2021-04-04T15:35:34Z</time>
      </trkpt>
      <trkpt lat="42.89654" lon="1.3134">
        <ele>646</ele>
        <time>2021-04-04T15:35:54Z</time>
      </trkpt>
      <trkpt lat="42.89658" lon="1.31345">
        <ele>643</ele>
        <time>2021-04-04T15:36:01Z</time>
      </trkpt>
      <trkpt lat="42.89663" lon="1.31344">
        <ele>641</ele>
        <time>2021-04-04T15:36:05Z</time>
      </trkpt>
      <trkpt lat="42.89674" lon="1.31345">
        <ele>634</ele>
        <time>2021-04-04T15:36:25Z</time>
      </trkpt>
      <trkpt lat="42.89683" lon="1.31339">
        <ele>630</ele>
        <time>2021-04-04T15:36:35Z</time>
      </trkpt>
      <trkpt lat="42.89686" lon="1.31333">
        <ele>629</ele>
        <time>2021-04-04T15:36:39Z</time>
      </trkpt>
      <trkpt lat="42.89702" lon="1.31324">
        <ele>622</ele>
        <time>2021-04-04T15:36:56Z</time>
      </trkpt>
      <trkpt lat="42.89708" lon="1.31315">
        <ele>619</ele>
        <time>2021-04-04T15:37:04Z</time>
      </trkpt>
      <trkpt lat="42.8971" lon="1.31298">
        <ele>614</ele>
        <time>2021-04-04T15:37:24Z</time>
      </trkpt>
      <trkpt lat="42.8971" lon="1.31271">
        <ele>609</ele>
        <time>2021-04-04T15:37:38Z</time>
      </trkpt>
      <trkpt lat="42.89722" lon="1.31264">
        <ele>605</ele>
        <time>2021-04-04T15:37:51Z</time>
      </trkpt>
      <trkpt lat="42.8973" lon="1.3127">
        <ele>604</ele>
        <time>2021-04-04T15:37:55Z</time>
      </trkpt>
      <trkpt lat="42.89733" lon="1.31282">
        <ele>603</ele>
        <time>2021-04-04T15:37:58Z</time>
      </trkpt>
      <trkpt lat="42.89735" lon="1.31297">
        <ele>602</ele>
        <time>2021-04-04T15:38:02Z</time>
      </trkpt>
      <trkpt lat="42.89732" lon="1.31339">
        <ele>600</ele>
        <time>2021-04-04T15:38:15Z</time>
      </trkpt>
      <trkpt lat="42.89737" lon="1.31352">
        <ele>600</ele>
        <time>2021-04-04T15:38:19Z</time>
      </trkpt>
      <trkpt lat="42.89753" lon="1.31377">
        <ele>599</ele>
        <time>2021-04-04T15:38:29Z</time>
      </trkpt>
      <trkpt lat="42.8976" lon="1.31381">
        <ele>598</ele>
        <time>2021-04-04T15:38:36Z</time>
      </trkpt>
      <trkpt lat="42.8976" lon="1.31374">
        <ele>596</ele>
        <time>2021-04-04T15:38:42Z</time>
      </trkpt>
      <trkpt lat="42.89758" lon="1.31367">
        <ele>595</ele>
        <time>2021-04-04T15:38:48Z</time>
      </trkpt>
      <trkpt lat="42.8975" lon="1.31354">
        <ele>595</ele>
        <time>2021-04-04T15:38:52Z</time>
      </trkpt>
      <trkpt lat="42.89749" lon="1.31347">
        <ele>593</ele>
        <time>2021-04-04T15:39:01Z</time>
      </trkpt>
      <trkpt lat="42.89752" lon="1.31348">
        <ele>593</ele>
        <time>2021-04-04T15:39:48Z</time>
      </trkpt>
      <trkpt lat="42.89755" lon="1.3136">
        <ele>594</ele>
        <time>2021-04-04T15:39:54Z</time>
      </trkpt>
      <trkpt lat="42.89764" lon="1.31377">
        <ele>594</ele>
        <time>2021-04-04T15:40:05Z</time>
      </trkpt>
      <trkpt lat="42.89768" lon="1.31382">
        <ele>594</ele>
        <time>2021-04-04T15:40:08Z</time>
      </trkpt>
      <trkpt lat="42.8977" lon="1.31388">
        <ele>594</ele>
        <time>2021-04-04T15:40:11Z</time>
      </trkpt>
      <trkpt lat="42.89781" lon="1.31405">
        <ele>594</ele>
        <time>2021-04-04T15:40:23Z</time>
      </trkpt>
      <trkpt lat="42.8979" lon="1.31422">
        <ele>595</ele>
        <time>2021-04-04T15:40:33Z</time>
      </trkpt>
      <trkpt lat="42.89793" lon="1.31429">
        <ele>595</ele>
        <time>2021-04-04T15:40:37Z</time>
      </trkpt>
      <trkpt lat="42.89797" lon="1.31435">
        <ele>595</ele>
        <time>2021-04-04T15:40:41Z</time>
      </trkpt>
      <trkpt lat="42.89812" lon="1.31452">
        <ele>595</ele>
        <time>2021-04-04T15:40:53Z</time>
      </trkpt>
      <trkpt lat="42.89821" lon="1.31467">
        <ele>595</ele>
        <time>2021-04-04T15:41:03Z</time>
      </trkpt>
      <trkpt lat="42.89829" lon="1.31521">
        <ele>595</ele>
        <time>2021-04-04T15:41:38Z</time>
      </trkpt>
      <trkpt lat="42.89826" lon="1.31534">
        <ele>595</ele>
        <time>2021-04-04T15:41:44Z</time>
      </trkpt>
      <trkpt lat="42.89823" lon="1.31541">
        <ele>595</ele>
        <time>2021-04-04T15:41:48Z</time>
      </trkpt>
      <trkpt lat="42.89817" lon="1.31566">
        <ele>595</ele>
        <time>2021-04-04T15:42:03Z</time>
      </trkpt>
      <trkpt lat="42.89818" lon="1.31583">
        <ele>595</ele>
        <time>2021-04-04T15:42:28Z</time>
      </trkpt>
      <trkpt lat="42.89843" lon="1.31594">
        <ele>596</ele>
        <time>2021-04-04T15:43:01Z</time>
      </trkpt>
      <trkpt lat="42.8985" lon="1.31604">
        <ele>596</ele>
        <time>2021-04-04T15:43:07Z</time>
      </trkpt>
      <trkpt lat="42.89849" lon="1.31606">
        <ele>596</ele>
        <time>2021-04-04T15:43:33Z</time>
      </trkpt>
    </trkseg>
  </trk>
</gpx>